[[{"header":{"parameterUnit":"m.s-1","parameterCategory":1,"la1":30.6,"la2":28.766,"lo1":-90.7593,"lo2":-88.6598,"dy":0.0162,"dx":0.0183,"nx":116,"ny":114,"refTime":"2023-10-08T12:00:00:Z","depth":0,"parameterNumber":2,"parameterNumberName":"U-component_of_WINDS"},"data":[0.0,0.0,0.0,0.0,0.0,0.0,0.0,0.0,0.0,0.0,0.0,0.0,0.0,0.0,0.0,0.0,0.0,0.0,0.0,0.0,0.0,0.0,0.0,0.0,0.0,0.0,0.0,0.0,0.0,0.0,0.0,0.0,0.0,0.0,0.0,0.0,0.0,0.0,0.0,0.0,0.0,0.0,0.0,0.0,0.0,0.0,0.0,0.0,0.0,0.0,0.0,0.0,0.0,0.0,0.0,0.0,0.0,0.0,0.0,0.0,0.0,0.0,0.0,0.0,0.0,0.0,0.0,0.0,0.0,0.0,0.0,0.0,0.0,0.0,0.0,0.0,0.0,0.0,0.0,0.0,0.0,0.0,0.0,0.0,0.0,0.0,0.0,0.0,0.0,0.0,0.0,0.0,0.0,0.0,0.0,0.0,0.0,0.0,0.0,0.0,0.0,0.0,0.0,0.0,0.0,0.0,0.0,0.0,0.0,0.0,0.0,0.0,0.0,0.0,0.0,0.0,0.0,0.0,0.0,0.0,0.0,0.0,0.0,0.0,0.0,0.0,0.0,0.0,0.0,0.0,0.0,0.0,0.0,0.0,0.0,0.0,0.0,0.0,0.0,0.0,0.0,0.0,0.0,0.0,0.0,0.0,0.0,0.0,0.0,0.0,0.0,0.0,0.0,0.0,0.0,0.0,0.0,0.0,0.0,0.0,0.0,0.0,0.0,0.0,0.0,0.0,0.0,0.0,0.0,0.0,0.0,0.0,0.0,0.0,0.0,0.0,0.0,0.0,0.0,0.0,0.0,0.0,0.0,0.0,0.0,0.0,0.0,0.0,0.0,0.0,0.0,0.0,0.0,0.0,0.0,0.0,0.0,0.0,0.0,0.0,0.0,0.0,0.0,0.0,0.0,0.0,0.0,0.0,0.0,0.0,0.0,0.0,0.0,0.0,0.0,0.0,0.0,0.0,0.0,0.0,0.0,0.0,0.0,0.0,0.0,0.0,0.0,0.0,0.0,0.0,0.0,0.0,0.0,0.0,0.0,0.0,0.0,0.0,0.0,0.0,0.0,0.0,0.0,0.0,0.0,0.0,0.0,0.0,0.0,0.0,0.0,0.0,0.0,0.0,0.0,0.0,0.0,0.0,0.0,0.0,0.0,0.0,0.0,0.0,0.0,0.0,0.0,0.0,0.0,0.0,0.0,0.0,0.0,0.0,0.0,0.0,0.0,0.0,0.0,0.0,0.0,0.0,0.0,0.0,0.0,0.0,0.0,0.0,0.0,0.0,0.0,0.0,0.0,0.0,0.0,0.0,0.0,0.0,0.0,0.0,0.0,0.0,0.0,0.0,0.0,0.0,0.0,0.0,0.0,0.0,0.0,0.0,0.0,0.0,0.0,0.0,0.0,0.0,0.0,0.0,0.0,0.0,0.0,0.0,0.0,0.0,0.0,0.0,0.0,0.0,0.0,0.0,0.0,0.0,0.0,0.0,0.0,0.0,0.0,0.0,0.0,0.0,0.0,0.0,0.0,0.0,0.0,0.0,0.0,0.0,0.0,0.0,0.0,0.0,0.0,0.0,0.0,0.0,0.0,0.0,0.0,0.0,0.0,0.0,0.0,0.0,0.0,0.0,0.0,0.0,0.0,0.0,0.0,0.0,0.0,0.0,0.0,0.0,0.0,0.0,0.0,0.0,0.0,0.0,0.0,0.0,0.0,0.0,0.0,0.0,0.0,0.0,0.0,0.0,0.0,0.0,0.0,0.0,0.0,0.0,0.0,0.0,0.0,0.0,0.0,0.0,0.0,0.0,0.0,0.0,0.0,0.0,0.0,0.0,0.0,0.0,0.0,0.0,0.0,0.0,0.0,0.0,0.0,0.0,0.0,0.0,0.0,0.0,0.0,0.0,0.0,0.0,0.0,0.0,0.0,0.0,0.0,0.0,0.0,0.0,0.0,0.0,0.0,0.0,0.0,0.0,0.0,0.0,0.0,0.0,0.0,0.0,0.0,0.0,0.0,0.0,0.0,0.0,0.0,0.0,0.0,0.0,0.0,0.0,0.0,0.0,0.0,0.0,0.0,0.0,0.0,0.0,0.0,0.0,0.0,0.0,0.0,0.0,0.0,0.0,0.0,0.0,0.0,0.0,0.0,0.0,0.0,0.0,0.0,0.0,0.0,0.0,0.0,0.0,0.0,0.0,0.0,0.0,0.0,0.0,0.0,0.0,0.0,0.0,0.0,0.0,0.0,0.0,0.0,0.0,0.0,0.0,0.0,0.0,0.0,0.0,0.0,0.0,0.0,0.0,0.0,0.0,0.0,0.0,0.0,0.0,0.0,0.0,0.0,0.0,0.0,0.0,0.0,0.0,0.0,0.0,0.0,0.0,0.0,0.0,0.0,0.0,0.0,0.0,0.0,0.0,0.0,0.0,0.0,0.0,0.0,0.0,0.0,0.0,0.0,0.0,0.0,0.0,0.0,0.0,0.0,0.0,0.0,0.0,0.0,0.0,0.0,0.0,0.0,0.0,0.0,0.0,0.0,0.0,0.0,0.0,0.0,0.0,0.0,0.0,0.0,0.0,0.0,0.0,0.0,0.0,0.0,0.0,0.0,0.0,0.0,0.0,0.0,0.0,0.0,0.0,0.0,0.0,0.0,0.0,0.0,0.0,0.0,0.0,0.0,0.0,0.0,0.0,0.0,0.0,0.0,0.0,0.0,0.0,0.0,0.0,0.0,0.0,0.0,0.0,0.0,0.0,0.0,0.0,0.0,0.0,0.0,0.0,0.0,0.0,0.0,0.0,0.0,0.0,0.0,0.0,0.0,0.0,0.0,0.0,0.0,0.0,0.0,0.0,0.0,0.0,0.0,0.0,0.0,0.0,0.0,0.0,0.0,0.0,0.0,0.0,0.0,0.0,0.0,0.0,0.0,0.0,0.0,0.0,0.0,0.0,0.0,0.0,0.0,0.0,0.0,0.0,0.0,0.0,0.0,0.0,0.0,0.0,0.0,0.0,0.0,0.0,0.0,0.0,0.0,0.0,0.0,0.0,0.0,0.0,0.0,0.0,0.0,0.0,0.0,0.0,0.0,0.0,0.0,0.0,0.0,0.0,0.0,0.0,0.0,0.0,0.0,0.0,0.0,0.0,0.0,0.0,0.0,0.0,0.0,0.0,0.0,0.0,0.0,0.0,0.0,0.0,0.0,0.0,0.0,0.0,0.0,0.0,0.0,0.0,0.0,0.0,0.0,0.0,0.0,0.0,0.0,0.0,0.0,0.0,0.0,0.0,0.0,0.0,0.0,0.0,0.0,0.0,0.0,0.0,0.0,0.0,0.0,0.0,0.0,0.0,0.0,0.0,0.0,0.0,0.0,0.0,0.0,0.0,0.0,0.0,0.0,0.0,0.0,0.0,0.0,0.0,0.0,0.0,0.0,0.0,0.0,0.0,0.0,0.0,0.0,0.0,0.0,0.0,0.0,0.0,0.0,0.0,0.0,0.0,0.0,0.0,0.0,0.0,0.0,0.0,0.0,0.0,0.0,0.0,0.0,0.0,0.0,0.0,0.0,0.0,0.0,0.0,0.0,0.0,0.0,0.0,0.0,0.0,0.0,0.0,0.0,0.0,0.0,0.0,0.0,0.0,0.0,0.0,0.0,0.0,0.0,0.0,0.0,0.0,0.0,0.0,0.0,0.0,0.0,0.0,0.0,0.0,0.0,0.0,0.0,0.0,0.0,0.0,0.0,0.0,0.0,0.0,0.0,0.0,0.0,0.0,0.0,0.0,0.0,0.0,0.0,0.0,0.0,0.0,0.0,0.0,0.0,0.0,0.0,0.0,0.0,0.0,0.0,0.0,0.0,0.0,0.0,0.0,0.0,0.0,0.0,0.0,0.0,0.0,0.0,0.0,0.0,0.0,0.0,0.0,0.0,0.0,0.0,0.0,0.0,0.0,0.0,0.0,0.0,0.0,0.0,0.0,0.0,0.0,0.0,0.0,0.0,0.0,0.0,0.0,0.0,0.0,0.0,0.0,0.0,0.0,0.0,0.0,0.0,0.0,0.0,0.0,0.0,0.0,0.0,0.0,0.0,0.0,0.0,0.0,0.0,0.0,0.0,0.0,0.0,0.0,0.0,0.0,0.0,0.0,0.0,0.0,0.0,0.0,0.0,0.0,0.0,0.0,0.0,0.0,0.0,0.0,0.0,0.0,0.0,0.0,0.0,0.0,0.0,0.0,0.0,0.0,0.0,0.0,0.0,0.0,0.0,0.0,0.0,0.0,0.0,0.0,0.0,0.0,0.0,0.0,0.0,0.0,0.0,0.0,0.0,0.0,0.0,0.0,0.0,0.0,0.0,0.0,0.0,0.0,0.0,0.0,0.0,0.0,0.0,0.0,0.0,0.0,0.0,0.0,0.0,0.0,0.0,0.0,0.0,0.0,0.0,0.0,0.0,0.0,0.0,0.0,0.0,0.0,0.0,0.0,0.0,0.0,0.0,0.0,0.0,0.0,0.0,0.0,0.0,0.0,0.0,0.0,0.0,0.0,0.0,0.0,0.0,0.0,0.0,0.0,0.0,0.0,0.0,0.0,0.0,0.0,0.0,0.0,0.0,0.0,0.0,0.0,0.0,0.0,0.0,0.0,0.0,0.0,0.0,0.0,0.0,0.0,0.0,0.0,0.0,0.0,0.0,0.0,0.0,0.0,0.0,0.0,0.0,0.0,0.0,0.0,0.0,0.0,0.0,0.0,0.0,0.0,0.0,0.0,0.0,0.0,0.0,0.0,0.0,0.0,0.0,0.0,0.0,0.0,0.0,0.0,0.0,0.0,0.0,0.0,0.0,0.0,0.0,0.0,0.0,0.0,0.0,0.0,0.0,0.0,0.0,0.0,0.0,0.0,0.0,0.0,0.0,0.0,0.0,0.0,0.0,0.0,0.0,0.0,0.0,0.0,0.0,0.0,0.0,0.0,0.0,0.0,0.0,0.0,0.0,0.0,0.0,0.0,0.0,0.0,0.0,0.0,0.0,0.0,0.0,0.0,0.0,0.0,0.0,0.0,0.0,0.0,0.0,0.0,0.0,0.0,0.0,0.0,0.0,0.0,0.0,0.0,0.0,0.0,0.0,0.0,0.0,0.0,0.0,0.0,0.0,0.0,0.0,0.0,0.0,0.0,0.0,0.0,0.0,0.0,0.0,0.0,0.0,0.0,0.0,0.0,0.0,0.0,0.0,0.0,0.0,0.0,0.0,0.0,0.0,0.0,0.0,0.0,0.0,0.0,0.0,0.0,0.0,0.0,0.0,0.0,0.0,0.0,0.0,0.0,0.0,0.0,0.0,0.0,0.0,0.0,0.0,0.0,0.0,0.0,0.0,0.0,0.0,0.0,0.0,0.0,0.0,0.0,0.0,0.0,0.0,0.0,0.0,0.0,0.0,0.0,0.0,0.0,0.0,0.0,0.0,0.0,0.0,0.0,0.0,0.0,0.0,0.0,0.0,0.0,0.0,0.0,0.0,0.0,0.0,0.0,0.0,0.0,0.0,0.0,0.0,0.0,0.0,0.0,0.0,0.0,0.0,0.0,0.0,0.0,0.0,0.0,0.0,0.0,0.0,0.0,0.0,0.0,0.0,0.0,0.0,0.0,0.0,0.0,0.0,0.0,0.0,0.0,0.0,0.0,0.0,0.0,0.0,0.0,0.0,0.0,0.0,0.0,0.0,0.0,0.0,0.0,0.0,0.0,0.0,0.0,0.0,0.0,0.0,0.0,0.0,0.0,0.0,0.0,0.0,0.0,0.0,0.0,0.0,0.0,0.0,0.0,0.0,0.0,0.0,0.0,0.0,0.0,0.0,0.0,0.0,0.0,0.0,0.0,0.0,0.0,0.0,0.0,0.0,0.0,0.0,0.0,0.0,0.0,0.0,0.0,0.0,0.0,0.0,0.0,0.0,0.0,0.0,0.0,0.0,0.0,0.0,0.0,0.0,0.0,0.0,0.0,0.0,0.0,0.0,0.0,0.0,0.0,0.0,0.0,0.0,0.0,0.0,0.0,0.0,0.0,0.0,0.0,0.0,0.0,0.0,0.0,0.0,0.0,0.0,0.0,0.0,0.0,0.1431,0.1209,0.0,0.0,0.0,0.0,0.0,0.0,0.0,0.0,0.0,0.0,0.0,0.0,0.0,0.0,0.0,0.0,0.0,0.0,0.0,0.0,0.0,0.0,0.0,0.0,0.0,0.0,0.0,0.0,0.0,0.0,0.0,0.0,0.0,0.0,0.0,0.0,0.0,0.0,0.0,0.0,0.0,0.0,0.0,0.0,0.0,0.0,0.0,0.0,0.0,0.0,0.0,0.0,0.0,0.0,0.0,0.0,0.0,0.0,0.0,0.0,0.0,0.0,0.0,0.0,0.0,0.0,0.0,0.0,0.0,0.0,0.0,0.0,0.0,0.0,0.0,0.0,0.0,0.0,0.0,0.0,0.0,0.0,0.0,0.0,0.0,0.0,0.0,0.0,0.0,0.0,0.0,0.0,0.0,0.0,0.0,0.0,0.0,0.0,0.0,0.0,0.0,0.0,0.0,0.0,0.0,0.0,0.0,0.0,0.0,0.0,0.0,0.0,0.0,0.0,0.2299,0.2102,0.0,0.0,0.0,0.0,0.0,0.0,0.0,0.0,0.0,0.0,0.0,0.0,0.0,0.0,0.0,0.0,0.0,0.0,0.0,0.0,0.0,0.0,0.0,0.0,0.0,0.0,0.0,0.0,0.0,0.0,0.0,0.0,0.0,0.0,0.0,0.0,0.0,0.0,0.0,0.0,0.0,0.0,0.0,0.0,0.0,0.0,0.0,0.0,0.0,0.0,0.0,0.0,0.0,0.0,0.0,0.0,0.0,0.0,0.0,0.0,0.0,0.0,0.0,0.0,0.0,0.0,0.0,0.0,0.0,0.0,0.0,0.0,0.0,0.0,0.0,0.0,0.0,0.0,0.0,0.0,0.0,0.0,0.0,0.0,0.0,0.0,0.0,0.0,0.0,0.0,0.0,0.0,0.0,0.0,0.0,0.0,0.0,0.0,0.0,0.0,0.0,0.0,0.0,0.0,0.0,0.0,0.0,0.0,0.3441,0.3563,0.3594,0.3555,0.3606,0.3664,0.3234,0.3089,0.3159,0.3384,0.0,0.0,0.0,0.0,0.0,0.0,0.0,0.0,0.0,0.0,0.0,0.0,0.0,0.0,0.0,0.0,0.0,0.0,0.0,0.0,0.0,0.0,0.0,0.0,0.0,0.0,0.0,0.0,0.0,0.0,0.0,0.0,0.0,0.0,0.0,0.0,0.0,0.0,-1.4556,-1.4465,-1.4723,-1.5351,-1.6458,0.0,0.0,0.0,0.0,0.0,0.0,0.0,0.0,0.0,0.0,0.0,0.0,0.0,0.0,0.0,0.0,0.0,0.0,0.0,0.0,0.0,0.0,0.0,0.0,0.0,0.0,0.0,0.0,0.0,0.0,0.0,0.0,0.0,0.0,0.0,0.0,0.0,0.0,0.0,0.0,0.0,0.0,0.0,-0.1438,-0.127,0.0,0.0,0.0,0.0,0.0,0.0,0.0,0.0,0.0,0.0,0.0,0.0,0.0,0.3043,0.3142,0.3787,0.4107,0.4145,0.4442,0.4631,0.4692,0.4581,0.4633,0.4886,0.4753,0.0,0.3795,0.4071,0.0,0.0,0.0,0.0,0.0,0.0,0.0,0.0,0.0,0.0,0.0,0.0,0.0,0.0,0.0,0.0,0.0,0.0,0.0,0.0,0.0,0.0,0.0,0.0,0.0,0.0,0.0,0.0,0.0,0.0,0.0,0.0,0.0,0.0,0.0,0.0,-1.4794,-1.4698,-1.4592,-1.4428,-1.4449,-1.4609,-1.5486,-1.6246,-1.6874,-1.7114,0.0,0.0,0.0,0.0,0.0,0.0,0.0,0.0,0.0,0.0,0.0,0.0,0.0,0.0,0.0,0.0,0.0,0.0,0.0,0.0,0.0,0.0,0.0,0.0,0.0,0.0,0.0,0.0,0.0,0.0,0.0,0.0,0.0,0.0,0.0,0.0,0.0,0.0,0.0,-0.0885,-0.0536,-0.0302,0.0067,0.0469,0.0,0.0,0.0,0.0,0.0,0.0,0.0,0.0,0.0,0.3132,0.3498,0.3877,0.4242,0.4683,0.4956,0.4995,0.5246,0.5364,0.5345,0.5345,0.5392,0.5491,0.5615,0.5503,0.5204,0.5099,0.5181,0.5318,0.0,0.0,0.0,0.0,0.6477,0.695,0.0,0.0,0.0,0.0,0.0,0.0,0.0,0.0,0.0,0.0,0.0,0.0,0.0,0.0,0.0,-1.5408,0.0,0.0,0.0,0.0,0.0,0.0,0.0,0.0,0.0,0.0,0.0,-1.4928,-1.485,-1.4747,-1.4614,-1.4474,-1.4295,-1.4145,-1.4753,-1.561,-1.6644,-1.6751,-1.7177,0.0,0.0,0.0,0.0,0.0,0.0,0.0,0.0,0.0,0.0,0.0,0.0,0.0,0.0,0.0,0.0,0.0,0.0,0.0,0.0,0.0,0.0,0.0,0.0,0.0,0.0,0.0,0.0,0.0,0.0,0.0,0.0,0.0,0.0,0.0,0.0,0.0,0.0,0.0034,0.0335,0.0671,0.1004,0.1336,0.0,0.0,0.0,0.0,0.0,0.0,0.3101,0.3495,0.3884,0.4163,0.4526,0.4867,0.5242,0.5562,0.5768,0.5821,0.6006,0.605,0.6013,0.6093,0.613,0.6173,0.6386,0.6477,0.652,0.6062,0.5981,0.611,0.6147,0.6227,0.6349,0.6647,0.707,0.7579,0.0,0.0,0.0,0.0,0.0,0.0,0.0,0.0,0.0,0.0,0.0,0.0,0.0,0.0,-1.5338,-1.5381,-1.541,-1.5404,0.0,0.0,0.0,0.0,0.0,0.0,0.0,0.0,0.0,-1.4984,-1.4857,-1.4766,-1.4683,-1.4485,-1.4332,-1.4221,-1.4825,-1.5382,-1.5892,-1.653,-1.7177,-1.7811,0.0,0.0,0.0,0.0,0.0,0.0,0.0,0.0,0.0,0.0,0.0,0.0,0.0,0.0,0.0,0.0,0.0,0.0,0.0,0.0,0.0,0.0,0.0,0.0,0.0,0.0,0.0,0.0,0.0,0.0,0.0,0.0,0.0,0.0,0.0,0.0,0.0,0.0,0.0,0.1509,0.194,0.0,0.0,0.0,0.0,0.2867,0.3355,0.3804,0.4212,0.4848,0.5292,0.5491,0.6021,0.6165,0.5973,0.64,0.6615,0.6622,0.6774,0.6865,0.6937,0.6937,0.7021,0.714,0.714,0.7266,0.7398,0.666,0.6373,0.641,0.6605,0.6683,0.6725,0.7266,0.7614,0.7953,0.0,0.0,0.0,0.0,0.0,0.0,0.0,0.0,0.0,0.0,0.0,0.0,0.0,-1.6111,-1.6149,-1.6163,-1.6203,-1.5996,-1.5446,0.0,0.0,0.0,0.0,0.0,0.0,0.0,-1.5049,-1.4936,-1.4804,-1.4698,-1.464,-1.4469,-1.4313,-1.4159,-1.4768,-1.5331,-1.5841,-1.657,-1.7237,-1.7811,-1.7811,-1.7766,0.0,0.0,0.0,0.0,0.0,0.0,0.0,0.0,0.0,0.0,0.0,0.0,0.0,0.0,0.0,0.0,0.0,0.0,0.0,0.0,0.0,0.0,0.0,0.0,0.0,0.0,0.0,0.0,0.0,0.0,0.0,0.0,0.0,0.0,0.0,0.0,0.0,0.2405,0.2732,0.0,0.3204,0.3397,0.3556,0.3719,0.4338,0.4842,0.5108,0.5837,0.6332,0.649,0.6729,0.688,0.6984,0.7134,0.7231,0.7231,0.737,0.737,0.7314,0.7489,0.7614,0.7655,0.769,0.7765,0.7814,0.7523,0.737,0.7272,0.7537,0.773,0.7889,0.846,0.8899,0.9253,0.0,0.0,0.0,0.0,0.0,0.0,0.0,0.0,0.0,0.0,0.0,-1.5424,-1.633,-1.651,-1.6583,-1.66,-1.6657,-1.6326,-1.5464,0.0,0.0,0.0,0.0,0.0,0.0,-1.5574,-1.5335,-1.4902,-1.4776,-1.4639,-1.456,-1.4422,-1.4281,-1.4135,-1.4971,-1.5506,-1.5858,-1.6843,-1.7458,-1.7811,-1.7811,-1.7749,-1.7687,0.0,0.0,0.0,0.0,0.0,0.0,0.0,0.0,0.0,0.0,0.0,0.0,0.0,0.0,0.0,0.0,0.0,0.0,0.0,0.0,0.0,0.0,0.0,0.0,0.0,0.0,0.0,0.0,0.0,0.0,0.0,0.0,0.0,0.0,0.2242,0.2669,0.3101,0.3425,0.3686,0.3858,0.4021,0.428,0.4587,0.5215,0.5778,0.6236,0.695,0.7417,0.7551,0.7653,0.7719,0.7814,0.7821,0.7821,0.7821,0.787,0.7953,0.8021,0.8193,0.8283,0.8324,0.8398,0.839,0.8349,0.839,0.8316,0.824,0.8395,0.8517,0.8694,0.9361,0.9819,1.0129,0.0,0.0,0.0,0.0,0.0,0.0,0.0,0.0,0.0,0.0,-1.4919,-1.5342,-1.6243,-1.6433,-1.6522,-1.6622,-1.6667,-1.6334,-1.5468,-1.5408,0.0,0.0,0.0,0.0,-1.6503,-1.6425,-1.5903,-1.4904,-1.4766,-1.4629,-1.4501,-1.4362,-1.4247,-1.4193,-1.5449,-1.5938,-1.5927,-1.7314,-1.7878,-1.7811,-1.7811,-1.7749,-1.7687,0.0,0.0,0.0,0.0,0.0,0.0,0.0,0.0,0.0,0.0,0.0,0.0,0.0,0.0,0.0,0.0,0.0,0.0,0.0,0.0,0.0,0.0,0.0,0.0,0.0,0.0,0.0,0.0,0.0,0.0,0.0,0.0,0.0,0.1642,0.2405,0.3101,0.3578,0.3993,0.4291,0.4437,0.4566,0.4856,0.5396,0.595,0.6632,0.7479,0.8079,0.8531,0.8707,0.8822,0.8749,0.8414,0.8414,0.8414,0.8414,0.8414,0.8618,0.8975,0.9016,0.9056,0.9177,0.9177,0.9136,0.9016,0.9136,0.9177,0.9171,0.9096,0.9028,0.9164,1.0026,1.039,1.0561,0.0,0.0,0.0,0.0,0.0,0.0,0.0,0.0,0.0,0.0,-1.4794,-1.5451,-1.6996,-1.673,-1.6713,-1.7407,-1.6946,-1.6271,-1.5452,0.0,0.0,0.0,0.0,0.0,-1.6499,-1.6433,-1.5907,-1.4902,-1.4776,-1.4629,-1.4501,-1.4362,-1.4495,-1.4851,-1.5592,-1.6174,-1.6655,-1.7487,-1.7811,-1.7811,-1.7811,-1.7789,-1.7772,0.0,0.0,0.0,0.0,0.0,0.0,0.0,0.0,0.0,0.0,0.0,0.0,0.0,0.0,0.0,0.0,0.0,0.0,0.0,0.0,0.0,0.0,0.0,0.0,0.0,0.0,0.0,0.0,0.0,0.0,0.0,0.0485,0.1295,0.2086,0.2867,0.3614,0.4382,0.4745,0.5061,0.5389,0.5585,0.5832,0.617,0.6922,0.7589,0.8139,0.8707,0.9094,0.9119,0.9016,0.8903,0.8749,0.8651,0.8602,0.8602,0.87,0.883,0.8911,0.8984,0.9016,0.9056,0.9056,0.9016,0.9016,0.9056,0.9056,0.9125,0.9813,1.0161,1.0329,1.1291,1.1785,1.212,0.0,0.0,0.0,0.0,0.0,0.0,0.0,0.0,0.0,0.0,-1.4697,-1.5301,-1.6725,-1.6562,-1.6598,-1.7157,-1.6808,-1.6227,-1.541,0.0,0.0,0.0,0.0,-1.766,-1.7597,-1.7517,-1.7003,-1.5984,-1.5856,-1.5714,-1.5538,-1.5377,-1.5426,-1.5664,-1.6203,-1.6624,-1.6949,-1.7577,-1.7833,-1.7811,-1.7811,-1.7811,-1.7811,-1.7833,-1.7749,-1.7618,-1.7549,-1.7296,-1.6952,-1.6617,0.0,0.0,0.0,0.0,0.0,0.0,0.0,0.0,0.0,0.0,0.0,0.0,0.0,0.0,0.0,0.0,0.0,0.0,0.0,0.0,0.0,0.0,0.0,0.0,0.0845,0.1667,0.2478,0.3208,0.399,0.484,0.5222,0.554,0.5844,0.6115,0.6428,0.6793,0.7494,0.8089,0.8613,0.9094,0.9377,0.9377,0.9217,0.9056,0.8952,0.8822,0.8773,0.8773,0.8871,0.8952,0.9033,0.9024,0.9016,0.8975,0.8895,0.8938,0.8998,0.9048,0.9132,0.935,0.0,0.0,0.0,0.0,1.248,1.2832,0.0,0.0,0.0,0.0,0.0,0.0,0.0,0.0,0.0,0.0,0.0,-1.5015,-1.5891,-1.6072,-1.6189,-1.6376,-1.6355,-1.6097,0.0,0.0,0.0,-1.8081,-1.8824,-1.9159,-1.91,-1.9046,-1.8524,-1.7507,-1.7387,-1.7218,-1.7015,-1.6803,-1.6658,-1.6579,-1.701,-1.7151,-1.7079,-1.7676,-1.7861,-1.7811,-1.7811,-1.7811,-1.7811,-1.7883,-1.7878,-1.7811,-1.7811,-1.7618,-1.732,-1.7035,0.0,0.0,0.0,0.0,0.0,0.0,0.0,0.0,0.0,0.0,0.0,0.0,0.0,0.0,0.0,0.0,0.0,0.0,0.0,0.0,0.0,0.0,0.0,0.0,0.1218,0.2089,0.2829,0.3505,0.4245,0.5066,0.5494,0.5814,0.6034,0.6378,0.6753,0.7273,0.7741,0.8298,0.8918,0.9266,0.0,0.0,0.0,0.9128,0.8935,0.8871,0.883,0.879,0.879,0.8903,0.9056,0.8935,0.8854,0.8862,0.8684,0.8714,0.8881,0.9009,0.927,0.9584,1.028,1.0587,1.0803,1.2003,1.2627,1.2881,0.0,0.0,0.0,0.0,0.0,0.0,0.0,0.0,0.0,-1.4499,-1.4515,-1.4888,-1.5822,-1.5423,-1.5411,-1.626,-1.5734,-1.5645,0.0,0.0,-1.7311,-1.8903,-1.9119,-1.9195,-1.9177,-1.9114,-1.859,-1.7584,-1.75,-1.7334,-1.7089,-1.693,-1.7067,-1.743,-1.7329,-1.7528,-1.7959,-1.7963,-1.7944,-1.7878,-1.7833,-1.7811,-1.7811,-1.7922,-1.7944,-1.79,-1.7939,-1.7833,-1.7595,-1.7384,-1.7175,-1.6977,-1.6696,0.0,0.0,0.0,0.0,0.0,0.0,0.0,0.0,0.0,0.0,0.0,0.0,0.0,0.0,0.0,0.0,0.0,0.0,0.0,0.0,0.0745,0.1535,0.2314,0.3099,0.3696,0.4404,0.5311,0.5647,0.5975,0.6524,0.6709,0.6976,0.7369,0.7766,0.8237,0.8716,0.8975,0.9105,0.9105,0.8926,0.8724,0.8537,0.8381,0.8291,0.8185,0.8185,0.0,0.8226,0.8152,0.8118,0.8093,0.8089,0.8063,0.8143,0.8261,0.8641,0.9216,1.044,1.1211,1.171,1.2169,1.2372,1.2471,0.0,0.0,0.0,0.0,0.0,0.0,0.0,0.0,0.0,0.0,-1.4492,-1.4685,-1.5199,-1.4949,-1.4982,-1.5552,-1.5288,0.0,0.0,-1.6995,-1.7823,-1.9138,-1.9627,-1.9858,-1.984,-1.9787,-1.9482,-1.8954,-1.8819,-1.8636,-1.8398,-1.8263,-1.8291,-1.8458,-1.8592,-1.8759,-1.8944,-1.9152,-1.8967,-1.8495,-1.8444,-1.8178,-1.7856,-1.7961,-1.8005,-1.8009,-1.8113,-1.8048,-1.7861,-1.7704,-1.7526,-1.7361,-1.7117,-1.6738,-1.6172,0.0,0.0,0.0,0.0,0.0,0.0,0.0,0.0,0.0,0.0,0.0,0.0,0.0,0.0,-0.2823,-0.2223,0.0,0.0205,0.1048,0.1668,0.2253,0.2902,0.3433,0.4148,0.5287,0.5528,0.5876,0.6392,0.6526,0.6732,0.7027,0.7391,0.7765,0.8103,0.8275,0.8398,0.8398,0.8267,0.8103,0.7919,0.778,0.7614,0.7523,0.7523,0.7523,0.7482,0.7356,0.7363,0.7435,0.7255,0.7341,0.7583,0.771,0.8056,0.8537,0.9249,1.0264,1.1292,1.1493,1.176,1.2076,0.0,0.0,0.0,0.0,0.0,0.0,0.0,0.0,0.0,0.0,-1.4499,-1.4515,-1.4578,-1.4635,-1.4737,0.0,0.0,0.0,0.0,-1.7456,-1.8347,-1.9393,-2.0121,-2.0508,-2.0495,-2.0451,-2.0395,-2.032,-2.0139,-1.9934,-1.9762,-1.9785,-1.9678,-1.952,-2.0083,-2.0222,-2.0058,-2.0442,-2.0136,-1.9361,-1.9132,-1.8677,-1.8132,-1.8078,-1.8074,-1.8155,-1.8277,-1.8239,-1.8117,-1.7992,-1.7839,-1.7681,-1.7472,-1.7002,-1.6374,-1.5533,-1.4349,0.0,0.0,0.0,0.0,0.0,0.0,0.0,0.0,-0.7093,-0.6023,-0.4948,-0.3794,-0.2788,-0.2198,-0.0894,0.0345,0.1114,0.1658,0.2107,0.2506,0.2996,0.3656,0.4739,0.5091,0.5448,0.5873,0.5996,0.6161,0.6465,0.6761,0.7014,0.7266,0.7391,0.7474,0.744,0.7384,0.7217,0.7027,0.693,0.6797,0.6677,0.6683,0.6725,0.6683,0.6556,0.6575,0.6708,0.6429,0.6536,0.6954,0.7094,0.7337,0.7551,0.7652,0.8587,0.9931,1.0348,1.088,1.146,0.0,0.0,0.0,0.0,0.0,0.0,0.0,0.0,0.0,0.0,0.0,0.0,0.0,0.0,0.0,0.0,0.0,0.0,-1.737,-1.769,-1.8545,-2.0192,-2.0419,-2.0497,-2.0508,-2.049,-2.0464,-2.0385,-2.0243,-2.0112,-1.9971,-2.0564,-2.0717,-2.0556,-2.1209,-2.1406,-2.1201,-2.1013,-2.0741,-2.0356,-1.9516,-1.9138,-1.8984,-1.8383,-1.8166,-1.8205,-1.827,-1.829,-1.827,-1.8187,-1.8159,-1.8108,-1.79,-1.7422,-1.6761,-1.5884,-1.4645,-1.3419,-1.2871,-1.1957,-1.1029,-1.039,-0.9725,-0.8935,0.0,-0.7168,-0.6174,-0.5005,-0.3944,-0.2944,-0.2224,-0.0934,0.0178,0.0716,0.1344,0.1882,0.2146,0.2504,0.2904,0.3208,0.3961,0.4574,0.4913,0.5087,0.5351,0.5782,0.591,0.6081,0.6416,0.6319,0.6277,0.6204,0.6064,0.5936,0.5722,0.5679,0.5642,0.5475,0.5615,0.5663,0.5663,0.5663,0.5655,0.5667,0.571,0.5797,0.5959,0.5982,0.61,0.6213,0.6213,0.6637,0.7427,0.9006,0.985,1.0269,0.0,0.0,0.0,0.0,0.0,0.0,0.0,0.0,0.0,0.0,0.0,0.0,0.0,0.0,0.0,0.0,0.0,0.0,-1.6707,-1.7344,-1.8242,-1.9522,-2.0147,-2.0461,-2.0494,-2.0508,-2.0471,-2.0402,-2.0337,-2.0244,-2.0129,-2.0833,-2.1104,-2.1042,-2.2137,-2.2525,-2.2337,-2.2542,-2.2178,-2.1374,-2.0458,-1.979,-1.9299,-1.8624,-1.8408,-1.843,-1.8428,-1.8408,0.0,0.0,-1.8304,-1.8222,-1.7988,-1.7452,-1.6754,-1.59,-1.4718,-1.3524,-1.2543,-1.1836,-1.1217,-1.0534,-0.9892,-0.919,-0.8318,-0.7459,-0.6487,-0.529,-0.4134,-0.3072,-0.207,-0.1074,-0.0268,0.0134,0.0582,0.1029,0.152,0.1611,0.1744,0.1921,0.2186,0.2758,0.3862,0.4128,0.4303,0.4513,0.4691,0.4826,0.4904,0.4938,0.489,0.476,0.4635,0.4504,0.4326,0.4283,0.42,0.4077,0.4212,0.426,0.4264,0.4414,0.4479,0.455,0.4628,0.4714,0.4776,0.4776,0.4835,0.4952,0.5066,0.5391,0.6027,0.7587,0.8541,0.9065,0.0,0.0,0.0,0.0,0.0,0.0,0.0,0.0,0.0,0.0,0.0,0.0,0.0,0.0,0.0,0.0,0.0,0.0,0.0,-1.6821,-1.7731,-1.8893,-1.9637,-2.0162,-2.0467,-2.0494,-2.0488,-2.0433,-2.0435,-2.0376,-2.027,-2.1028,-2.1349,-2.1346,-2.2785,-2.3341,-2.3198,-2.375,-2.3309,-2.2164,-2.1224,-2.0332,-1.9535,-1.8863,-1.8622,-1.866,-1.8601,-1.8563,0.0,0.0,-1.8448,-1.8371,-1.8082,-1.7551,-1.6838,-1.5955,-1.4746,-1.3462,-1.233,-1.1836,-1.1463,-1.0752,-1.0168,-0.9478,-0.8639,-0.7835,-0.6866,-0.5487,-0.4334,-0.3228,-0.1984,-0.1253,-0.076,-0.0537,-0.0224,0.0179,0.0671,0.0626,0.0626,0.0805,0.0671,0.1027,0.2224,0.2713,0.307,0.3375,0.3419,0.3463,0.3419,0.3369,0.3318,0.3231,0.3058,0.2926,0.2791,0.2747,0.2662,0.2578,0.2713,0.2818,0.2855,0.3058,0.3218,0.3279,0.3346,0.3395,0.3395,0.3453,0.3564,0.3677,0.3959,0.4288,0.4718,0.5923,0.695,0.7913,0.0,0.0,0.0,0.0,0.0,0.0,0.0,0.0,0.0,0.0,0.0,0.0,0.0,0.0,0.0,0.0,0.0,0.0,0.0,-1.6157,-1.7013,-1.8722,-1.8965,-1.9477,-2.0381,-2.0464,-2.0508,-2.0507,-2.05,-2.045,-2.0402,-2.1222,-2.157,-2.1562,-2.3111,-2.3712,-2.3628,-2.4148,-2.3712,-2.259,-2.1578,-2.0666,-1.9801,-1.9074,-1.8825,-1.8878,-1.8734,0.0,0.0,-1.8697,-1.8697,-1.8623,-1.8371,-1.7842,-1.7109,-1.6157,-1.4777,-1.3344,-1.2579,-1.2138,-1.1752,-1.1196,-1.0548,-0.9787,-0.9066,-0.8219,-0.7144,-0.5533,-0.452,-0.35,-0.2158,-0.1566,-0.1254,-0.1164,-0.076,-0.0447,-0.0358,-0.0358,-0.0313,-0.0179,-0.0268,-0.0358,-0.0268,0.0669,0.1647,0.2583,0.2178,0.1954,0.2133,0.1736,0.1471,0.1471,0.1292,0.1114,0.0979,0.0979,0.0979,0.0979,0.1158,0.132,0.147,0.1685,0.1742,0.1748,0.1812,0.1895,0.1895,0.2174,0.223,0.2286,0.2792,0.3125,0.34,0.3793,0.5054,0.6696,0.0,0.0,0.0,0.0,0.0,0.0,0.0,0.0,0.0,0.0,0.0,0.0,0.0,0.0,0.0,0.0,0.0,0.0,0.0,-1.5646,-1.627,-1.6904,-1.8145,-1.8992,-1.9393,-2.0034,-2.0398,-2.0431,-2.0481,-2.0488,-2.0479,-2.1296,-2.1653,-2.1673,-2.269,-2.3054,-2.2931,-2.298,-2.2671,-2.2088,-2.106,-2.0463,-2.0083,-1.9306,-1.8999,-1.9035,0.0,0.0,0.0,-1.8659,-1.8623,-1.8585,-1.831,-1.7881,-1.714,-1.5674,-1.4589,-1.3735,-1.2931,-1.2401,-1.1923,-1.1456,-1.0841,-1.0196,-0.9707,-0.9032,-0.813,-0.6645,-0.5653,-0.4648,-0.3334,-0.2674,-0.2322,-0.223,-0.2008,-0.1787,-0.1738,-0.1827,-0.2051,-0.241,-0.2361,-0.2268,-0.2268,-0.0712,0.0402,0.0714,0.0669,0.0579,0.0579,0.0446,0.0313,0.0223,-0.0,-0.0134,-0.0179,-0.0357,-0.0452,-0.0557,-0.0477,-0.0296,-0.0051,-0.0,0.0161,0.0329,0.0333,0.039,0.0502,0.0558,0.0726,0.0893,0.1284,0.173,0.2233,0.2621,0.3342,0.4281,0.0,0.0,0.0,0.0,0.0,0.0,0.0,0.0,0.0,0.0,0.0,0.0,0.0,0.0,0.0,0.0,0.0,-1.4519,0.0,0.0,-1.5518,-1.5878,-1.702,-1.7871,-1.8313,-1.8965,-1.9341,-1.9439,-1.9494,-1.9548,-1.9585,-2.0096,-2.0334,-2.0383,-2.1453,-2.1886,-2.183,-2.2249,-2.2151,-2.1577,-2.0882,-2.0412,-2.0039,-1.9488,-1.9274,0.0,0.0,0.0,0.0,-1.843,-1.8556,-1.8699,-1.8155,-1.7684,-1.702,-1.5547,-1.4713,-1.4136,-1.3331,-1.2756,-1.2265,-1.1851,-1.1251,-1.0622,-1.0238,-0.964,-0.8799,-0.7487,-0.6543,-0.5629,-0.4401,-0.3818,-0.3463,-0.3287,-0.3161,-0.3073,-0.3105,-0.3284,-0.3551,-0.3997,-0.3942,-0.3891,-0.3931,-0.278,-0.177,-0.1157,-0.1113,-0.1158,-0.1383,-0.1205,-0.1116,-0.1162,-0.1297,-0.1386,-0.1431,-0.1634,-0.1817,-0.1985,-0.1912,-0.1813,-0.1642,-0.1557,-0.1476,-0.1283,-0.1228,-0.1172,-0.106,-0.0894,-0.0726,-0.0447,-0.0,0.0503,0.1006,0.1397,0.1843,0.2456,0.0,0.0,0.0,0.0,0.0,0.0,0.0,0.0,0.0,0.0,0.0,0.0,0.0,0.0,0.0,0.0,0.0,0.0,0.0,0.0,0.0,-1.5575,-1.5709,-1.622,-1.7187,-1.7403,-1.755,-1.7688,-1.7757,-1.7812,-1.7883,-1.7881,-1.788,-1.7969,-1.9569,-2.0275,-2.0359,-2.1816,-2.1894,-2.1015,-2.0913,-2.0396,-1.9651,-1.9632,0.0,0.0,0.0,0.0,-1.8199,-1.8057,-1.8458,-1.8866,-1.7892,-1.7339,-1.6847,-1.5831,-1.5182,-1.4585,-1.3756,-1.3173,-1.2734,-1.2357,-1.173,-1.113,-1.0754,-1.0032,-0.9164,-0.812,-0.7301,-0.6499,-0.5415,-0.4938,-0.4635,-0.4465,-0.4299,-0.4299,-0.45,-0.463,-0.4803,-0.5,-0.5134,-0.5305,-0.5428,-0.5423,-0.478,-0.3184,-0.3102,-0.329,-0.3619,-0.312,-0.2721,-0.2549,-0.2549,-0.2598,-0.2739,-0.2897,-0.3061,-0.3229,-0.3138,-0.3083,-0.3184,-0.3025,-0.2961,-0.2961,-0.2792,-0.2736,-0.2736,-0.2237,-0.2014,-0.179,-0.1062,-0.0614,-0.0223,0.0168,0.0672,0.1285,0.0,0.0,0.0,0.0,0.0,0.0,0.0,0.0,0.0,0.0,0.0,0.0,0.0,0.0,0.0,0.0,0.0,0.0,0.0,0.0,0.0,0.0,0.0,0.0,0.0,0.0,0.0,-1.7392,-1.752,-1.7606,-1.768,-1.7684,-1.7691,-1.7777,-1.8254,-1.8452,-1.8494,-1.8829,-1.8833,-1.8648,0.0,-1.9239,-1.9088,0.0,0.0,0.0,0.0,0.0,-1.8451,-1.817,-1.8097,-1.8039,-1.7541,-1.7515,-1.7501,-1.6636,-1.5985,-1.533,-1.4428,-1.3663,-1.3099,-1.2864,-1.2267,-1.1675,-1.1608,-1.1041,-1.0348,-0.9469,-0.8747,-0.8034,-0.7266,-0.6626,-0.6247,-0.6283,-0.6077,-0.5998,-0.6277,-0.6379,-0.6512,-0.6793,-0.6912,-0.7044,-0.7293,-0.7293,-0.7127,-0.669,-0.538,-0.4539,-0.4509,-0.4073,-0.3686,-0.3388,-0.3262,-0.3176,-0.3228,-0.345,-0.3679,-0.3877,-0.3908,-0.3969,-0.4126,-0.3837,-0.3744,-0.3688,-0.3469,-0.3357,-0.3357,-0.3132,-0.291,-0.274,-0.235,-0.1846,-0.1342,-0.1007,-0.0504,0.0056,0.0,0.0,0.0,0.0,0.0,0.0,0.0,0.0,0.0,0.0,0.0,0.0,0.0,0.0,0.0,0.0,0.0,0.0,0.0,0.0,0.0,0.0,0.0,0.0,0.0,0.0,0.0,0.0,0.0,0.0,-1.6244,-1.6246,-1.6287,-1.6407,-1.6814,-1.704,-1.7128,-1.7491,0.0,0.0,0.0,0.0,0.0,0.0,0.0,0.0,0.0,0.0,-1.8119,-1.7547,-1.7441,-1.7586,-1.7948,-1.8072,-1.7924,-1.7109,-1.646,-1.5823,-1.4956,-1.4269,-1.3754,-1.3476,-1.2949,-1.2423,-1.2267,-1.1713,-1.1084,-1.0393,-0.9776,-0.9204,-0.8683,-0.8181,-0.7888,-0.797,-0.7725,-0.765,-0.8026,-0.796,-0.8057,-0.8383,-0.8383,-0.8431,-0.8642,-0.8602,-0.8569,-0.8569,-0.7079,-0.6114,-0.5913,-0.5363,-0.4899,-0.4565,-0.4136,-0.3945,-0.3942,-0.4124,-0.4273,-0.4445,-0.4426,-0.4522,-0.468,-0.4408,-0.4301,-0.4301,-0.4079,-0.3968,-0.3968,-0.3747,-0.3524,-0.3299,-0.291,-0.2519,-0.2127,-0.1734,-0.1286,-0.084,0.0,0.0,0.0,0.0,0.0,0.0,0.0,0.0,0.0,0.0,0.0,0.0,0.0,0.0,0.0,0.0,0.0,0.0,0.0,0.0,0.0,0.0,0.0,0.0,0.0,0.0,0.0,0.0,0.0,0.0,0.0,0.0,0.0,0.0,0.0,0.0,0.0,0.0,0.0,0.0,0.0,0.0,0.0,0.0,0.0,0.0,0.0,-1.875,-1.75,-1.664,-1.6755,-1.7454,-1.8583,-1.8701,-1.8279,-1.7496,-1.6871,-1.6254,-1.5462,-1.497,-1.4519,-1.4136,-1.3676,-1.3259,-1.2857,-1.2283,-1.1707,-1.1175,-1.0685,-1.0272,-0.9887,-0.9618,-0.9444,-0.9444,-0.9268,-0.9226,-0.9603,-0.9464,-0.9442,-0.9737,-0.9628,-0.9558,-0.9677,-0.9597,-0.9509,-0.9469,-0.8545,-0.7844,-0.7536,-0.6778,-0.6143,-0.5685,-0.5145,-0.4809,-0.4709,-0.4786,-0.4904,-0.5007,-0.4827,-0.4886,-0.5011,-0.4853,-0.4802,-0.4746,-0.4629,-0.4574,-0.4574,-0.4242,-0.3968,-0.3747,-0.3297,-0.3019,-0.28,-0.235,-0.1958,-0.1511,0.0,0.0,0.0,0.0,0.0,0.0,0.0,0.0,0.0,0.0,-1.3175,-1.3295,0.0,0.0,0.0,0.0,0.0,0.0,0.0,0.0,0.0,0.0,0.0,0.0,0.0,0.0,-1.3603,-1.3815,-1.3835,0.0,0.0,0.0,0.0,0.0,0.0,0.0,0.0,0.0,0.0,0.0,0.0,0.0,0.0,0.0,0.0,0.0,-1.7997,-1.7416,-1.7175,0.0,-1.6777,-1.7639,-1.8357,-1.8793,-1.8916,-1.8353,-1.7686,-1.6995,-1.6285,-1.5692,-1.5168,-1.4821,-1.445,-1.4087,-1.3762,-1.3377,-1.2936,-1.246,-1.214,-1.1752,-1.1204,-1.0815,-1.0618,-1.0664,-1.0379,-1.0319,-1.0897,-1.0743,-1.0601,-1.0677,-1.0639,-1.0649,-1.0649,-1.0649,-1.0572,-1.0485,-1.0205,-0.964,-0.861,-0.7982,-0.7189,-0.6112,-0.603,-0.5798,-0.534,-0.5344,-0.543,-0.5664,-0.5358,-0.537,-0.5626,-0.5352,-0.5187,-0.5187,-0.4959,-0.4901,-0.4959,-0.4688,-0.4629,-0.4625,-0.4349,-0.4021,-0.3744,-0.3302,-0.2685,-0.2015,0.0,0.0,0.0,0.0,0.0,0.0,0.0,-1.251,-1.2569,-1.2494,-1.261,-1.2799,-1.3104,-1.3174,-1.3226,0.0,0.0,0.0,0.0,0.0,0.0,0.0,0.0,0.0,0.0,-1.2929,-1.3142,-1.3328,0.0,-1.3491,-1.357,-1.3536,-1.358,-1.3674,-1.3763,-1.3811,0.0,0.0,0.0,0.0,-1.6082,0.0,0.0,0.0,0.0,0.0,0.0,-1.6263,-1.6332,-1.5762,-1.5958,-1.667,-1.8139,-1.8955,-1.9263,-1.88,-1.825,-1.7697,-1.7131,-1.6699,-1.636,-1.608,-1.5793,-1.5485,-1.5052,-1.4614,-1.4192,-1.3684,-1.3134,-1.2612,-1.2348,-1.1858,-1.1535,-1.1516,-1.1535,-1.1623,-1.1906,-1.1966,-1.1947,-1.1839,-1.1693,-1.152,-1.1394,-1.1207,-1.1057,-1.0992,-1.0878,-1.0408,-0.9509,-0.8683,-0.7818,-0.6826,-0.6756,-0.6503,-0.5945,-0.5829,-0.5742,-0.5634,-0.544,-0.544,-0.5588,-0.5575,-0.5563,-0.5563,-0.534,-0.5289,-0.5344,-0.5018,-0.4904,-0.4901,-0.4625,-0.4298,-0.3913,-0.3411,-0.2796,-0.2128,0.0,0.0,0.0,0.0,0.0,0.0,0.0,-1.2066,-1.2107,-1.2024,-1.2045,-1.2251,-1.2665,-1.2813,-1.2906,0.0,0.0,0.0,0.0,0.0,0.0,0.0,0.0,0.0,0.0,0.0,0.0,-1.3034,-1.3123,0.0,0.0,0.0,0.0,0.0,-1.3003,-1.3074,-1.316,-1.3258,0.0,0.0,0.0,-1.5868,0.0,0.0,0.0,0.0,0.0,-1.5031,-1.5123,-1.4666,-1.4724,-1.5295,-1.7165,-1.8416,-1.9144,-1.8837,-1.861,-1.8389,-1.7966,-1.7755,-1.7586,-1.7339,-1.7156,-1.6904,-1.639,-1.5953,-1.5512,-1.5007,-1.4225,-1.3571,-1.3445,-1.2858,-1.232,-1.2252,-1.2407,-1.2615,-1.2794,-1.2987,-1.3095,-1.3026,-1.2728,-1.2472,-1.2175,-1.1886,-1.1641,-1.1479,-1.1207,-1.0791,-1.0196,-0.9332,-0.848,-0.7702,-0.7556,-0.7231,-0.6651,-0.6426,-0.6171,-0.5936,-0.5851,-0.5854,-0.5906,-0.6163,-0.6258,-0.6258,-0.5996,-0.5887,-0.5837,-0.5399,-0.5179,-0.512,-0.4794,-0.4463,-0.4079,-0.3463,-0.2852,-0.224,0.0,0.0,0.0,0.0,0.0,0.0,0.0,-1.1623,-1.1645,-1.1645,-1.1645,-1.1703,-1.1811,-1.2205,-1.2463,0.0,0.0,0.0,0.0,0.0,0.0,0.0,0.0,0.0,0.0,0.0,0.0,-1.3168,-1.3065,0.0,0.0,0.0,0.0,0.0,0.0,-1.2222,-1.2411,-1.2341,0.0,0.0,0.0,0.0,0.0,0.0,0.0,0.0,0.0,-1.3599,-1.3428,-1.285,-1.3219,-1.4024,-1.4544,-1.6324,-1.8226,-1.8254,-1.8634,-1.8983,-1.8753,-1.8578,-1.8443,-1.8233,-1.8121,-1.7949,-1.7531,-1.7272,-1.6981,-1.657,-1.5854,-1.5113,-1.4546,-1.3763,-1.3149,-1.3021,-1.2671,-1.2741,-1.3629,-1.3578,-1.3588,-1.3915,-1.3847,-1.3631,-1.339,-1.3144,-1.2836,-1.2425,-1.1689,-1.1008,-1.038,-1.0108,-0.9628,-0.8852,-0.8675,-0.8297,-0.776,-0.743,-0.7301,-0.7319,-0.7296,-0.7389,-0.7589,-0.7647,-0.7711,-0.7658,-0.7069,-0.6799,-0.675,-0.6005,-0.5786,-0.5837,-0.5407,-0.4967,-0.4522,-0.3793,-0.3186,-0.2579,0.0,0.0,0.0,0.0,0.0,0.0,-1.0784,-1.0831,-1.0855,-1.0831,-1.0963,-1.1048,-1.1048,-1.1748,-1.2179,-1.2106,0.0,0.0,0.0,0.0,0.0,0.0,0.0,0.0,0.0,0.0,-1.2238,-1.2606,-1.2765,0.0,0.0,0.0,0.0,0.0,0.0,-1.1325,-1.1321,-1.1285,0.0,0.0,0.0,0.0,0.0,0.0,0.0,0.0,0.0,0.0,-1.1556,-1.1207,-1.1468,-1.2054,-1.238,-1.3616,-1.5293,-1.7205,-1.802,-1.8423,-1.8911,-1.9053,-1.9077,-1.9078,-1.9033,-1.8887,-1.8585,-1.8393,-1.8002,-1.7122,-1.6353,-1.5627,-1.4865,-1.4108,-1.3562,-1.343,-1.3448,-1.3746,-1.4459,-1.4702,-1.4955,-1.5326,-1.5184,-1.4871,-1.4426,-1.4055,-1.357,-1.2789,-1.2306,-1.1799,-1.1282,-1.0572,-0.9991,-0.95,-0.9103,-0.8681,-0.8261,-0.7915,-0.786,-0.8032,-0.8022,-0.827,-0.8629,-0.8779,-0.8862,-0.8856,-0.8066,-0.7593,-0.7272,-0.6095,-0.5559,-0.5399,-0.4684,-0.4184,-0.379,-0.3411,-0.28,-0.2132,0.0,0.0,0.0,0.0,0.0,-1.0122,-1.0097,-1.0122,-1.0147,-1.0122,-1.0285,-1.0436,-1.0411,-1.1383,-1.1897,-1.1588,-1.22,0.0,0.0,0.0,0.0,0.0,0.0,0.0,0.0,0.0,-1.1682,-1.2054,-1.2211,-1.2272,0.0,0.0,-1.1307,-1.0744,0.0,0.0,0.0,0.0,0.0,0.0,0.0,0.0,0.0,0.0,0.0,0.0,0.0,0.0,0.0,0.0,0.0,-1.0013,-1.0329,-1.0996,0.0,-1.5415,-1.6809,-1.7509,-1.8294,-1.881,-1.909,-1.9055,-1.9029,-1.894,-1.8547,-1.8382,-1.8096,-1.7244,-1.6508,-1.5848,-1.5236,-1.4548,-1.4024,-1.3893,-1.4051,-1.4487,-1.5296,-1.5649,-1.6082,-1.6733,-1.6588,-1.6259,-1.5825,-1.5198,-1.4508,-1.369,-1.331,-1.2948,-1.2531,-1.1929,-1.1193,-1.036,-0.9851,-0.955,-0.9407,-0.9157,-0.9113,-0.9273,-0.938,-0.962,-0.9979,-1.0089,-1.0092,-0.999,-0.8665,-0.7588,-0.6648,-0.5,-0.3969,-0.3359,-0.265,-0.2096,-0.1595,-0.1326,-0.0885,-0.0387,0.0,0.0,0.0,0.0,0.0,0.0,-0.9621,-0.9621,-0.9647,-0.9687,-0.9764,-0.9854,-0.9995,-1.1084,-1.1548,-1.0875,-1.1597,0.0,0.0,0.0,0.0,0.0,0.0,0.0,0.0,0.0,-1.0582,-1.1712,-1.1432,-1.1418,-1.1614,-1.1148,-1.0421,-0.9498,0.0,0.0,0.0,0.0,0.0,0.0,0.0,0.0,0.0,0.0,0.0,0.0,0.0,0.0,0.0,0.0,0.0,0.0,0.0,0.0,0.0,0.0,-1.4864,-1.6326,-1.6812,-1.7651,-1.8298,-1.7831,-1.782,-1.7748,-1.707,-1.6979,-1.7014,-1.6995,-1.6402,-1.59,-1.5893,-1.5226,-1.4641,-1.4511,-1.4339,-1.4705,-1.6182,-1.6268,-1.6705,-1.811,-1.809,-1.7864,-1.7611,-1.6678,-1.5883,-1.54,-1.4873,-1.4474,-1.4192,-1.4493,-1.3714,-1.1642,-1.1236,-1.1187,-1.148,-1.1402,-1.1368,-1.1378,-1.1727,-1.1872,-1.1845,-1.1819,-1.1566,-1.1057,-0.8657,-0.647,-0.4495,-0.2449,-0.0763,0.0542,0.076,0.1461,0.237,0.2812,0.2909,0.289,0.0,0.0,0.0,0.0,0.0,0.0,0.0,-0.8816,-0.8816,-0.8887,-0.9104,-0.9266,-0.9316,-1.0488,-1.0948,-1.0252,-1.1222,0.0,0.0,0.0,0.0,0.0,0.0,0.0,0.0,0.0,-0.9632,-1.0001,-0.989,-0.9831,-0.9816,-0.9346,-0.8683,-0.7921,-0.7698,-0.7528,0.0,0.0,0.0,0.0,0.0,0.0,0.0,0.0,0.0,0.0,0.0,0.0,0.0,0.0,0.0,0.0,0.0,0.0,0.0,-0.8604,-1.0841,-1.3136,-1.4231,-1.484,-1.5263,-1.553,-1.5757,-1.5982,-1.6168,-1.6374,-1.6394,-1.5984,-1.5788,-1.556,-1.5097,-1.4843,-1.4873,-1.5362,-1.5446,-1.5969,-1.7469,-1.7614,-1.7893,-1.8735,-1.8625,-1.8384,-1.8086,-1.7625,-1.7147,-1.6727,-1.6325,-1.6243,-1.6508,-1.6546,-1.564,-1.3641,-1.3715,-1.3843,-1.3975,-1.3535,-1.3529,-1.3933,-1.2809,-1.2898,-1.3933,-1.2036,-1.1182,-1.0961,-0.6216,-0.2983,-0.0681,0.2983,0.5157,0.6173,0.6468,0.699,0.7663,0.8194,0.8481,0.9004,0.0,0.0,0.0,0.0,0.0,0.0,0.0,-0.8156,-0.8117,-0.8202,-0.8406,-0.8612,-0.8623,-0.96,-1.0042,-0.9518,-1.0207,0.0,0.0,0.0,0.0,0.0,0.0,0.0,0.0,-0.8039,-0.8208,-0.8378,-0.8196,-0.8094,-0.8033,-0.7521,-0.6952,-0.6331,-0.6117,-0.5914,0.0,0.0,0.0,0.0,0.0,0.0,-0.3943,0.0,0.0,0.0,0.0,0.0,0.0,0.0,0.0,0.0,0.0,0.0,0.0,0.0,-0.7205,-0.9142,-1.1075,-1.1992,-1.2491,-1.282,-1.3243,-1.3654,-1.4055,-1.4427,-1.4654,-1.4468,-1.4541,-1.4541,-1.4137,-1.4411,-1.487,-1.5377,-1.5824,-1.6542,-1.7781,-1.79,-1.8069,-1.8573,-1.8521,-1.8364,-1.8164,-1.7984,-1.7723,-1.7405,-1.748,-1.7701,-1.806,-1.8599,-1.8287,-1.7034,-1.6722,-1.6679,-1.6939,-1.6547,-1.653,-1.6869,-1.5431,-1.5454,-1.6693,-1.3854,-1.1568,-0.9597,-0.4254,0.0368,0.0,0.8129,1.0282,1.1296,1.149,1.1907,1.2411,1.2801,1.3182,1.391,0.0,0.0,0.0,0.0,0.0,0.0,0.0,-0.7579,-0.7549,-0.7627,-0.7772,-0.7859,-0.7935,-0.8549,-0.888,-0.8684,0.0,0.0,0.0,0.0,0.0,0.0,0.0,0.0,0.0,-0.6408,-0.6432,-0.6787,-0.6322,-0.6142,-0.6214,-0.565,-0.5131,-0.4654,-0.4211,-0.4087,0.0,0.0,0.0,0.0,0.0,0.0,0.0,0.0,0.0,0.0,0.0,0.0,0.0,0.0,0.0,0.0,0.0,0.0,0.0,0.0,0.0,0.0,0.0,-0.9031,-0.991,-0.9848,-1.0379,-1.0931,-1.0987,-1.1499,0.0,-1.2539,-1.2806,-1.2985,-1.3099,-1.3887,-1.4559,-1.4648,-1.5546,-1.6484,-1.7216,-1.7277,-1.7359,-1.7729,-1.7833,-1.7849,-1.7787,-1.7743,-1.7621,-1.7443,-1.8239,-1.8787,-1.8925,-2.0409,-2.1212,-2.1117,-1.9878,-1.9451,-1.9968,-1.971,-1.9524,-1.9395,-1.8255,-1.8177,-1.8988,-1.5837,-1.1899,-0.7249,-0.2452,0.3503,1.0036,1.2585,1.4391,1.5556,1.5533,1.5859,1.6311,1.6311,1.6793,1.7422,0.0,0.0,0.0,0.0,0.0,0.0,0.0,0.0,0.0,0.0,-0.7216,-0.7325,-0.7433,-0.7984,-0.8088,0.0,0.0,0.0,0.0,0.0,0.0,0.0,0.0,0.0,0.0,-0.5262,-0.4966,-0.4863,-0.4275,-0.3898,-0.367,-0.3306,-0.2874,-0.2356,-0.2297,0.0,0.0,0.0,0.0,0.0,0.0,0.0,0.0,0.0,0.0,0.0,-0.01,-0.0201,0.0,0.0,0.0,0.0,0.0,0.0,0.0,0.0,-0.2619,-0.278,-0.3556,0.0,-0.6452,-0.6989,-0.7663,-0.8377,0.0,-0.9751,-1.0482,-1.0944,-1.1329,-1.1708,-1.2137,-1.2613,-1.3289,-1.4304,-1.4988,-1.5681,-1.652,-1.6533,-1.647,-1.6504,-1.6579,-1.6642,-1.6672,-1.674,-1.678,-1.6748,-1.7586,-1.8454,-1.9233,-2.0219,-2.0887,-2.1157,-1.9934,-1.9401,-1.9697,-1.7538,-1.6189,-1.5618,-1.1765,-1.1074,-1.3021,-0.8015,-0.5721,-0.5332,0.1651,0.6385,0.9431,1.3285,1.5394,1.6149,1.5852,1.6029,1.6449,1.6449,1.6982,1.7747,0.0,0.0,0.0,0.0,0.0,0.0,0.0,0.0,0.0,0.0,0.0,0.0,0.0,0.0,0.0,0.0,0.0,0.0,0.0,0.0,0.0,0.0,0.0,0.0,-0.4892,-0.4315,-0.3841,-0.3504,-0.2887,-0.2343,-0.192,-0.1605,-0.1249,-0.0866,-0.0889,-0.0812,-0.0578,0.0,0.0,0.0,0.0079,0.0,0.0,0.0,0.0,0.0,0.0839,0.0738,0.0,0.0235,-0.0101,-0.0469,0.0,0.0,0.0,0.0,-0.1607,-0.1676,-0.1907,-0.2976,-0.4188,-0.4859,-0.5625,-0.6462,-0.7272,-0.8108,-0.8878,-0.9389,-0.9894,-1.0302,-1.0494,-1.1242,-1.2061,-1.2716,-1.3614,-1.4372,-1.4739,-1.464,-1.4427,-1.427,-1.4365,-1.4411,-1.4427,-1.4571,-1.4715,-1.4847,-1.5883,-1.6855,-1.7626,-1.8566,-1.9018,-1.8867,-1.7622,-1.7448,-1.8488,-1.6127,-1.459,-1.3868,-1.0646,-1.0065,-1.1652,-0.736,-0.4688,-0.3146,0.2307,0.6574,0.9884,1.261,1.3946,1.4218,1.4072,1.4137,1.4319,1.4475,1.4891,1.5492,0.0,0.0,0.0,0.0,0.0,0.0,0.0,0.0,0.0,0.0,0.0,0.0,0.0,0.0,0.0,0.0,0.0,0.0,0.0,0.0,0.0,0.0,0.0,-0.451,-0.4131,-0.3467,-0.2898,-0.2457,-0.1792,-0.1187,-0.0635,-0.0267,0.0069,0.0331,0.0363,0.0472,0.0715,0.0715,0.0829,0.1002,0.1123,0.0,0.0,0.0,0.0,0.0,0.0,0.0,0.0,0.1075,0.0773,0.0437,0.0168,0.0,0.0,0.0,0.0,0.0,-0.1408,-0.2037,-0.2732,-0.3351,-0.4146,-0.5029,-0.5768,-0.6593,-0.7357,-0.7824,-0.8373,-0.8755,-0.8623,-0.9756,-1.0665,-1.0643,-1.1761,-1.2617,-1.2462,-1.2235,-1.1965,-1.175,-1.1755,-1.1768,-1.172,-1.1815,-1.1931,-1.2112,-1.3301,-1.4219,-1.4613,-1.566,-1.5909,-1.5133,-1.3819,-1.385,-1.5315,-1.3931,-1.282,-1.1965,-1.0345,-1.0036,-1.0825,-0.8119,-0.4806,-0.1124,0.1599,0.5365,0.9633,1.0578,1.0889,1.0772,1.091,1.0889,1.0791,1.117,1.1479,1.1933,0.0,0.0,0.0,0.0,0.0,0.0,0.0,0.0,0.0,0.0,0.0,0.0,0.0,0.0,0.0,0.0,0.0,0.0,0.0,0.0,0.0,0.0,-0.4212,-0.3942,-0.3381,-0.259,-0.1935,-0.1414,-0.0694,-0.0068,0.047,0.0803,0.1304,0.1856,0.1921,0.2017,0.219,0.219,0.2225,0.2303,0.2447,0.0,0.0,0.0,0.0,0.0,0.0,0.0,0.0,0.1609,0.1208,0.0773,0.0504,0.0,0.0,0.0,0.0,0.0,-0.0941,-0.1341,-0.1904,-0.2798,-0.3486,-0.4135,-0.4712,-0.538,-0.5953,-0.6158,-0.6608,-0.7074,-0.7261,-0.7853,-0.8448,-0.8819,-0.9646,-1.0307,-1.0416,-1.0202,-1.0026,-0.9995,-0.9643,-0.9473,-0.9544,-0.9195,-0.8862,-0.8666,-0.952,-1.015,-1.025,-1.1112,-1.1352,-1.0702,-0.913,-0.7807,-0.6792,-0.7473,-0.7218,-0.6007,-0.3101,-0.2444,-0.3702,-0.0755,0.0271,-0.0107,0.2562,0.4174,0.5031,0.6108,0.6544,0.6549,0.6544,0.6544,0.6606,0.7053,0.7512,0.825,0.0,0.0,0.0,0.0,0.0,0.0,0.0,0.0,0.0,0.0,0.0,0.0,0.0,0.0,0.0,0.0,0.0,0.0,0.0,0.0,0.0,-0.3756,-0.3452,-0.3132,-0.2818,-0.2048,-0.1344,-0.0761,-0.0035,0.0623,0.1141,0.1509,0.1917,0.2345,0.2399,0.2519,0.2732,0.2771,0.2827,0.2945,0.0,0.0,0.0,0.0,0.0,0.0,0.0,0.0,0.0,0.0,0.1611,0.1208,0.084,0.0,0.0,0.0,0.0,0.0,-0.0976,-0.131,-0.1709,-0.2308,-0.2936,-0.3513,-0.3996,-0.4551,-0.5016,-0.5211,-0.5634,-0.5943,-0.5952,-0.6475,-0.7045,-0.7553,-0.7882,-0.8158,-0.8468,-0.8326,-0.816,-0.8018,-0.7661,-0.7308,-0.7015,-0.654,-0.6167,-0.6035,-0.6395,-0.6778,-0.6966,-0.7443,-0.7369,-0.6726,-0.5664,-0.4465,-0.3144,-0.3289,-0.3106,-0.2532,-0.0833,-0.0335,-0.095,0.0391,0.0615,0.0056,0.1278,0.1775,0.1829,0.2369,0.2583,0.2583,0.2583,0.2583,0.2692,0.3632,0.4776,0.6168,0.0,0.0,0.0,0.0,0.0,0.0,0.0,0.0,0.0,0.0,0.0,0.0,0.0,0.0,0.0,0.0,0.0,0.0,0.0,0.0,-0.4005,-0.3315,-0.2728,-0.2388,-0.2249,-0.1471,-0.0753,-0.0181,0.0539,0.1188,0.174,0.2141,0.2445,0.2698,0.273,0.287,0.3087,0.317,0.3347,0.3514,0.0,0.0,0.0,0.0,0.0,0.0,0.0,0.0,0.0,0.0,0.0,0.0,0.0,0.0,0.0,-0.0202,-0.0571,-0.0942,-0.1212,-0.1444,-0.1709,-0.2014,-0.248,-0.304,-0.3472,-0.3901,-0.4262,-0.4479,-0.4812,-0.501,-0.4848,-0.5272,-0.5815,-0.6339,-0.6344,-0.6422,-0.6713,-0.671,-0.652,-0.6271,-0.5926,-0.5522,-0.4973,-0.4374,-0.3992,-0.3863,-0.3849,-0.3917,-0.4132,-0.4233,-0.4042,-0.3473,-0.296,-0.2232,-0.1307,-0.0815,-0.0556,-0.0505,-0.0168,0.0,0.0,0.0,0.0,0.0,0.0,0.0,0.0,0.0,0.0,0.0,0.0,0.0112,0.0392,0.1511,0.3174,0.4933,0.0,0.0,0.0,0.0,0.0,0.0,0.0,0.0,0.0,0.0,0.0,0.0,0.0,0.0,0.0,0.0,0.0,0.0,0.0,0.0,-0.3159,-0.2683,-0.2212,-0.1787,-0.149,-0.0762,-0.0069,0.051,0.1142,0.178,0.2444,0.285,0.3118,0.3247,0.3354,0.3507,0.3656,0.3792,0.4056,0.4456,0.4778,0.0,0.0,0.0,0.0,0.0,0.0,0.0,0.0,0.0,0.0,0.0,0.0,0.0,0.0034,-0.0303,-0.0706,-0.1145,-0.1415,-0.1579,-0.1742,-0.1947,-0.2307,-0.272,-0.3151,-0.3421,-0.3617,-0.3736,-0.3966,-0.4053,-0.3926,-0.4103,-0.4418,-0.4868,-0.5033,-0.5196,-0.5473,-0.5508,-0.5461,-0.5246,-0.4692,-0.426,-0.4092,-0.3262,-0.26,-0.2209,-0.1952,-0.1752,-0.1559,-0.1559,-0.151,-0.1309,-0.106,-0.0758,-0.0506,-0.021,-0.0054,-0.0056,0.0,0.0,0.0,0.0,0.0,0.0,0.0,0.0,0.0,0.0,0.0,0.0,0.0,0.0393,0.1066,0.1623,0.2954,0.4553,0.0,0.0,0.0,0.0,0.0,0.0,0.0,0.0,0.0,0.0,0.0,0.0,0.0,0.0,0.0,0.0,0.0,0.0,0.0,0.0,-0.2777,-0.2071,-0.16,-0.0993,-0.0291,0.0035,0.0475,0.1037,0.1758,0.2308,0.2683,0.2974,0.3246,0.3471,0.3535,0.3716,0.3972,0.4192,0.4495,0.484,0.5188,0.5137,0.0,0.0,0.0,0.0,0.0,0.0,0.0,0.0,0.2208,0.1811,0.1311,0.0739,0.0134,-0.0269,-0.0773,-0.1211,-0.1479,-0.1644,-0.1724,-0.1854,-0.2018,-0.2284,-0.2778,-0.3106,-0.3383,-0.3611,-0.3691,-0.3752,-0.3666,-0.3701,-0.3822,-0.4126,-0.4094,-0.4157,-0.4513,-0.4368,-0.4206,-0.4037,-0.3565,-0.3074,-0.2569,-0.1912,-0.1354,-0.0938,-0.07,-0.0585,-0.0488,-0.0476,-0.047,-0.0423,-0.0337,-0.0244,-0.0146,-0.0051,0.0,0.0,0.0,0.0,0.0,0.0,0.0,0.0,0.0,0.0,0.0,0.0,0.0,0.0,0.0112,0.0505,0.1178,0.1792,0.2956,0.4226,0.0,0.0,0.0,0.0,0.0,0.0,0.0,0.0,0.0,0.0,0.0,0.0,0.0,0.0,0.0,0.0,0.0,0.0,0.0,-0.2703,-0.2221,-0.1444,-0.0871,-0.0194,0.0656,0.0878,0.1161,0.1473,0.2242,0.2712,0.2915,0.3131,0.3349,0.3546,0.3597,0.3759,0.3987,0.4236,0.4526,0.4851,0.5194,0.5166,0.0,0.0,0.0,0.0,0.0,0.0,0.0,0.0,0.2078,0.1711,0.1244,0.0706,0.0134,-0.0336,-0.0841,-0.1318,-0.168,-0.1791,-0.1813,-0.1913,-0.1896,-0.1971,-0.2447,-0.2859,-0.326,-0.3547,-0.3618,-0.3625,-0.3536,-0.3422,-0.3331,-0.3405,-0.3294,-0.3284,-0.3395,-0.335,-0.3236,-0.2901,-0.2567,-0.2124,-0.1455,-0.0988,-0.059,-0.0262,-0.015,-0.0096,-0.0141,-0.0137,-0.0135,-0.0135,-0.0139,-0.0141,-0.0141,-0.0197,-0.0153,-0.0052,-0.0055,-0.0056,0.0,0.0,0.0,0.0,0.0,0.0,0.0,0.0,0.0,0.0056,0.0224,0.0617,0.1234,0.1961,0.2961,0.4012,0.0,0.0,0.0,0.0,0.0,0.0,0.0,0.0,0.0,0.0,0.0,0.0,0.0,0.0,0.0,0.0,0.0,0.0,-0.2308,-0.1903,-0.1408,-0.082,-0.0082,0.0602,0.1274,0.1818,0.2056,0.1911,0.2513,0.2915,0.3109,0.3456,0.3543,0.3417,0.3621,0.3698,0.3698,0.3927,0.419,0.4537,0.485,0.4824,0.4579,0.0,0.0,0.0,0.0,0.0,0.0,0.0,0.188,0.1509,0.1043,0.0538,0.0,-0.0538,-0.0977,-0.1433,-0.2047,-0.2112,-0.2027,-0.2173,-0.1952,-0.1787,-0.2135,-0.2682,-0.318,-0.3519,-0.3723,-0.3717,-0.3421,-0.3168,-0.2902,-0.2538,-0.2609,-0.2587,-0.223,-0.246,-0.2458,-0.1846,-0.1679,-0.1399,-0.0953,-0.0617,-0.0381,-0.0406,-0.0302,-0.0244,-0.0406,-0.0405,-0.045,-0.0494,-0.0494,-0.0494,-0.0494,-0.0583,-0.0453,-0.0202,-0.0217,-0.0112,0.0,0.0,0.0,0.0,0.0,0.0,0.0,0.0,0.0056,0.0224,0.0336,0.0785,0.1402,0.1961,0.2905,0.3852,0.0,0.0,0.0,0.0,0.0,0.0,0.0,0.0,0.0,0.0,0.0,0.0,0.0,0.0,0.0,0.0,0.0,0.0,-0.1887,-0.1409,-0.0832,-0.0117,0.0476,0.1103,0.1727,0.2141,0.2349,0.2311,0.2673,0.294,0.3109,0.3294,0.3457,0.3547,0.3601,0.3729,0.3927,0.408,0.4352,0.4661,0.4737,0.4677,0.4433,0.0,0.0,0.0,0.0,0.0,0.0,0.0,0.0,0.0,0.0819,0.0347,-0.0134,-0.0672,-0.1208,-0.1748,-0.2205,-0.231,-0.2265,-0.2198,-0.1872,-0.1658,-0.2112,-0.2453,-0.2873,-0.3498,-0.3717,-0.3676,-0.3182,-0.2878,-0.2519,-0.2068,-0.1952,-0.1826,-0.1624,-0.1569,-0.1456,-0.1177,-0.1064,-0.084,-0.0449,-0.0393,-0.0385,-0.0421,-0.0461,-0.0543,-0.075,-0.0774,-0.0807,-0.0896,-0.0941,-0.0896,-0.0762,-0.0755,-0.0589,-0.0353,-0.0265,-0.011,0.0,0.0,0.0,0.0,0.0,0.0,0.0,0.0112,0.0224,0.0393,0.0729,0.1177,0.1736,0.246,0.3128,0.3738,0.0,0.0,0.0,0.0,0.0,0.0,0.0,0.0,0.0,0.0,0.0,0.0,0.0,0.0,0.0,0.0,0.0,0.0,0.0,0.0,-0.0336,0.043,0.1075,0.1673,0.2273,0.2531,0.2665,0.2665,0.2807,0.2941,0.3139,0.3211,0.3336,0.3435,0.347,0.3568,0.3746,0.3822,0.4003,0.4219,0.4219,0.4101,0.3951,0.0,0.0,0.0,0.0,0.0,0.0,0.0,0.0,0.0,0.0451,0.0,-0.043,-0.0967,-0.1502,-0.1996,-0.2414,-0.2513,-0.2438,-0.2252,-0.1857,-0.1673,-0.2081,-0.2528,-0.3018,-0.3548,-0.3685,-0.35,-0.2954,-0.2513,-0.2064,-0.1574,-0.1436,-0.1344,-0.1122,-0.1122,-0.1122,-0.0898,-0.0898,-0.0725,-0.044,-0.0494,-0.0592,-0.0666,-0.0799,-0.097,-0.1165,-0.1226,-0.1343,-0.1475,-0.1475,-0.1432,-0.1344,-0.1279,-0.0985,-0.0504,-0.0425,-0.0275,0.0,0.0,0.0,0.0,0.0,0.0056,0.0112,0.0224,0.0449,0.0729,0.1177,0.1681,0.2238,0.2852,0.3352,0.3796,0.0,0.0,0.0,0.0,0.0,0.0,0.0,0.0,0.0,0.0,0.0,0.0,0.0,0.0,0.0,0.0,0.0,0.0,0.0,0.0,0.0148,0.0891,0.1657,0.2316,0.2901,0.2911,0.292,0.2951,0.2867,0.2957,0.3183,0.3208,0.3191,0.3208,0.3245,0.3278,0.3311,0.3278,0.3372,0.3467,0.3467,0.3405,0.3278,0.3179,0.0,0.0,0.0,0.0,0.0,0.0,0.0,0.0,-0.004,-0.0434,-0.0864,-0.1371,-0.1808,-0.2233,-0.2586,-0.2656,-0.2547,-0.228,-0.193,-0.1697,-0.2121,-0.2777,-0.3393,-0.3663,-0.3522,-0.319,-0.2747,-0.2127,-0.1624,-0.1178,-0.1066,-0.101,-0.0785,-0.1066,-0.1178,-0.0954,-0.1066,-0.1052,-0.0855,-0.0852,-0.093,-0.1149,-0.1285,-0.1451,-0.1661,-0.1792,-0.1969,-0.2188,-0.2144,-0.2107,-0.2029,-0.1944,-0.1512,-0.0761,-0.0706,-0.0449,0.0,0.0,0.0,0.0,0.0,0.0112,0.0224,0.0393,0.0729,0.1233,0.168,0.224,0.2802,0.3302,0.3691,0.4024,0.0,0.0,0.0,0.0,0.0,0.0,0.0,0.0,0.0,0.0,0.0,0.0,0.0,0.0,0.0,0.0,0.0,0.0,0.0,0.0,0.07,0.1177,0.1974,0.2546,0.2898,0.2911,0.3022,0.3212,0.318,0.3132,0.304,0.3188,0.3209,0.3138,0.3175,0.3245,0.3311,0.3245,0.3278,0.3344,0.3241,0.3171,0.3109,0.2948,0.2911,0.0,0.0,0.0,0.0,0.0,0.0,0.0,-0.0415,-0.0849,-0.1253,-0.1685,-0.2132,-0.2548,-0.2708,-0.2688,-0.253,-0.2248,-0.1978,-0.1815,-0.1991,-0.2382,-0.2775,-0.3181,-0.3021,-0.2689,-0.224,-0.1737,-0.1346,-0.1122,-0.101,-0.0954,-0.101,-0.1066,-0.1178,-0.1234,-0.1234,-0.1218,-0.1123,-0.133,-0.1445,-0.1485,-0.1807,-0.2102,-0.2288,-0.2417,-0.2595,-0.2732,-0.264,-0.2502,-0.2396,-0.207,-0.1639,-0.1159,-0.0824,-0.0505,-0.0168,-0.0056,0.0,0.0,0.0112,0.0224,0.0393,0.0785,0.1233,0.168,0.2296,0.28,0.3302,0.3691,0.3968,0.4193,0.0,0.0,0.0,0.0,0.0,0.0,0.0,0.0,0.0,0.0,0.0,0.0,0.0,0.0,0.0,0.0,0.0,0.0,0.0,0.0,0.0,0.195,0.2539,0.2917,0.3072,0.3083,0.3155,0.3306,0.331,0.3193,0.3035,0.3106,0.309,0.3105,0.3208,0.3278,0.3278,0.3208,0.3109,0.3047,0.2878,0.2779,0.2723,0.2621,0.2558,0.2468,0.223,0.0,0.0,0.0,0.0,0.0,0.0,0.0,-0.1506,-0.1927,-0.2256,-0.2445,-0.2506,-0.242,-0.2242,-0.1877,-0.1605,-0.1514,-0.1736,-0.2015,-0.2238,-0.2462,-0.2408,-0.224,-0.1849,-0.1514,-0.129,-0.1234,-0.1289,-0.1344,-0.14,-0.168,-0.1902,-0.1959,-0.2041,-0.2048,-0.1975,-0.2038,-0.207,-0.2137,-0.2357,-0.2609,-0.2729,-0.286,-0.2951,-0.304,-0.2965,-0.284,-0.2664,-0.2317,-0.1883,-0.1333,-0.0993,-0.0505,0.0,0.0,0.0056,0.0112,0.0224,0.0449,0.0785,0.1233,0.1736,0.2296,0.28,0.3302,0.3747,0.3968,0.419,0.4356,0.0,0.0,0.0,0.0,0.0,0.0,0.0,0.0,0.0,0.0,0.0,0.0,0.0,0.0,0.0,0.0,0.0,0.0,0.0,0.0,0.0,0.0,0.3029,0.3238,0.3306,0.3306,0.3306,0.3309,0.3283,0.3206,0.3117,0.3014,0.2996,0.3072,0.3208,0.3278,0.3245,0.3109,0.2944,0.2716,0.251,0.2362,0.2262,0.2322,0.2224,0.2036,0.1908,0.1598,0.1164,0.0627,0.0,0.0,0.0,0.0,-0.1687,-0.2016,-0.2196,-0.2211,-0.2115,-0.2013,-0.1757,-0.1326,-0.1122,-0.1122,-0.1399,-0.1567,-0.1623,-0.168,-0.1792,-0.1849,-0.1628,-0.1458,-0.1402,-0.1514,-0.1736,-0.1958,-0.2069,-0.2514,-0.285,-0.285,-0.2927,-0.293,-0.2873,-0.2769,-0.2711,-0.2737,-0.2909,-0.2998,-0.3078,-0.317,-0.3214,-0.3214,-0.3161,-0.3005,-0.2788,-0.2524,-0.2083,-0.1452,-0.0941,-0.0393,0.0336,0.0224,0.0224,0.028,0.0505,0.0785,0.1233,0.1736,0.2294,0.2858,0.3302,0.3747,0.4079,0.4193,0.4356,0.4519,0.0,0.0,0.0,0.0,0.0,0.0,0.0,0.0,0.0,0.0,0.0,0.0,0.0,0.0,0.0,0.0,0.0,0.0,0.0841,0.0,0.0,0.2788,0.2997,0.3215,0.3389,0.3351,0.3309,0.3392,0.3215,0.3102,0.3117,0.3133,0.3075,0.2937,0.3142,0.3175,0.3105,0.2911,0.2712,0.251,0.2247,0.2141,0.2129,0.2069,0.2005,0.1918,0.1719,0.1425,0.103,0.0449,0.0,0.0,0.0,0.0,-0.1622,-0.1818,-0.1928,-0.1992,-0.1743,-0.1354,-0.1014,-0.0833,-0.0785,-0.0785,-0.0953,-0.1009,-0.1065,-0.1178,-0.129,-0.1458,-0.1572,-0.1569,-0.1734,-0.224,-0.2462,-0.2738,-0.3132,-0.3246,-0.3357,-0.3471,-0.3366,-0.33,-0.3179,-0.311,-0.308,-0.2954,-0.3173,-0.3353,-0.335,-0.3353,-0.3306,-0.3214,-0.2979,-0.2757,-0.265,-0.2141,-0.1787,-0.1562,-0.0559,0.0224,0.0785,0.0898,0.0842,0.0673,0.101,0.1401,0.1734,0.2352,0.2856,0.3357,0.3747,0.4024,0.4193,0.4408,0.4463,0.4519,0.0,0.0,0.0,0.0,0.0,0.0,0.0,0.0,0.0,0.0,0.0,0.0,0.0,0.0,0.0,0.037,0.0773,0.1193,0.1614,0.2344,0.2874,0.3034,0.3256,0.3412,0.3523,0.348,0.348,0.3523,0.3324,0.3209,0.3206,0.3173,0.3173,0.3176,0.3228,0.3186,0.3036,0.2747,0.2477,0.2217,0.2011,0.1784,0.1614,0.1588,0.146,0.1266,0.1123,0.0926,0.0626,0.0219,-0.0128,-0.0421,-0.0836,0.0,0.0,0.0,-0.1407,-0.1311,-0.1082,-0.0755,-0.0534,-0.0543,-0.0498,-0.0449,-0.0617,-0.0617,-0.0673,-0.0842,-0.0898,-0.1066,-0.1347,-0.1569,-0.1902,-0.241,-0.2854,-0.3188,-0.3471,-0.3694,-0.386,-0.3916,-0.3908,-0.377,-0.3683,-0.3592,-0.35,-0.336,-0.3442,-0.349,-0.3398,-0.335,-0.3173,-0.2951,-0.2664,-0.2426,-0.2265,-0.1868,-0.1382,-0.0785,0.0,0.0728,0.1287,0.1681,0.1681,0.1344,0.1568,0.1959,0.246,0.291,0.3357,0.3747,0.4024,0.419,0.4356,0.4463,0.4519,0.4519,0.0,0.0,0.0,0.0,0.0,0.0,0.0,0.0,0.0,0.0,0.0,0.0,0.0,0.0,0.0,0.0,0.1132,0.1651,0.2294,0.2845,0.3137,0.3223,0.3453,0.3581,0.3581,0.3581,0.3605,0.3564,0.3363,0.3306,0.3265,0.3189,0.3162,0.3276,0.3196,0.3031,0.2835,0.2484,0.2168,0.1896,0.1681,0.1422,0.1109,0.1106,0.0974,0.0731,0.0665,0.0538,0.0313,0.0087,-0.0127,-0.0372,-0.0572,-0.0697,0.0,0.0,0.0,-0.0678,-0.0518,-0.035,-0.0158,-0.0265,-0.0273,-0.0224,-0.0336,-0.0393,-0.0505,-0.0729,-0.0785,-0.0954,-0.1347,-0.1681,-0.2014,-0.2575,-0.3132,-0.358,-0.3749,-0.4027,-0.4193,-0.4193,-0.4123,-0.4082,-0.3983,-0.3835,-0.3688,-0.3592,-0.3581,-0.3534,-0.3398,-0.3217,-0.2951,-0.2595,-0.2253,-0.1995,-0.1811,-0.1463,-0.0842,0.0056,0.0616,0.1232,0.1902,0.2408,0.2519,0.2291,0.235,0.2629,0.3128,0.3411,0.3747,0.4079,0.419,0.4356,0.4519,0.4519,0.4519,0.4519,0.0,0.0,0.0,0.0,0.0,0.0,0.0,0.0,0.0,0.0,0.0,0.0,0.0,0.0538,0.079,0.105,0.1486,0.2036,0.2722,0.3017,0.3223,0.3306,0.3497,0.0,0.3581,0.3581,0.3554,0.3406,0.3354,0.3265,0.3223,0.3213,0.3116,0.2926,0.2803,0.2611,0.2413,0.2062,0.1827,0.1593,0.1212,0.1005,0.0879,0.0715,0.0605,0.0493,0.0494,0.036,0.018,0.0045,-0.0042,-0.016,-0.0435,-0.0507,-0.0522,0.0,0.0,0.0,-0.0236,-0.0098,0.0,0.0,-0.0109,-0.0224,-0.0224,-0.0449,-0.0729,-0.0842,-0.1066,-0.1347,-0.1685,-0.1906,-0.2238,-0.2963,-0.3463,-0.3855,-0.4138,-0.4193,-0.4193,-0.4193,-0.3955,-0.3816,-0.383,-0.3694,-0.3602,-0.3592,-0.3581,-0.3534,-0.3398,-0.3087,-0.2732,-0.2324,-0.1821,-0.1459,-0.1261,-0.0705,-0.0112,0.0673,0.1064,0.1734,0.2635,0.2965,0.3297,0.3685,0.3411,0.3411,0.3572,0.3855,0.4079,0.4193,0.4408,0.4519,0.4519,0.4519,0.4519,0.4519,0.0,0.0,0.0,0.0,0.0,0.0,0.0,0.0,0.0,0.0,0.0,0.0,0.0,0.0596,0.0901,0.1259,0.2041,0.2614,0.2896,0.324,0.3453,0.3497,0.3551,0.3581,0.3581,0.3581,0.3551,0.3407,0.3364,0.3274,0.3054,0.2927,0.2687,0.2408,0.2438,0.2249,0.1919,0.1547,0.1253,0.1023,0.0812,0.0664,0.0507,0.0391,0.0266,0.018,0.018,0.0135,0.0045,0.0,0.0,-0.0041,-0.0165,-0.0165,-0.0166,-0.0177,-0.0135,-0.009,-0.0092,-0.0047,0.0,0.0,-0.0106,-0.0218,-0.0335,-0.0561,-0.0953,-0.1287,-0.1512,-0.1792,-0.2294,-0.2352,-0.2464,-0.2907,-0.3461,-0.3852,-0.4024,-0.4138,-0.4193,-0.4079,-0.3923,-0.3732,-0.3554,-0.3427,-0.33,-0.3216,-0.3179,-0.3043,-0.2815,-0.2549,-0.219,-0.1744,-0.1304,-0.0982,-0.0678,-0.0329,0.0168,0.0729,0.1231,0.1846,0.2577,0.2965,0.3244,0.3522,0.3633,0.3799,0.3965,0.4079,0.4245,0.4408,0.4463,0.4519,0.4519,0.4519,0.4519,0.4519,0.0,0.0,0.0,0.0,0.0,0.0,0.0,0.0,0.0,0.0,0.0,0.0,0.0,0.0,0.1184,0.176,0.2548,0.304,0.3122,0.3433,0.3581,0.3581,0.3578,0.3534,0.3534,0.349,0.3398,0.3262,0.3265,0.3084,0.2768,0.2551,0.2237,0.183,0.1823,0.1714,0.1456,0.1081,0.0781,0.0619,0.0511,0.0388,0.0259,0.0178,0.0091,0.0,0.0,0.0,0.0,0.0,0.0,0.0,0.0,0.0,0.0,0.0,0.0,0.0,0.0,0.0,0.0,0.0,-0.0208,-0.0376,-0.0556,-0.0953,-0.1456,-0.1847,-0.2125,-0.246,-0.285,-0.2963,-0.2965,-0.3128,-0.3574,-0.391,-0.4024,-0.4079,-0.4024,-0.391,-0.3633,-0.3366,-0.3199,-0.3036,-0.2921,-0.2858,-0.2794,-0.264,-0.237,-0.2146,-0.17,-0.1121,-0.0803,-0.0547,-0.0261,0.0,0.0336,0.0785,0.1399,0.1959,0.2521,0.2852,0.313,0.3302,0.3577,0.3799,0.4079,0.4138,0.4301,0.4408,0.4463,0.4519,0.4519,0.4519,0.4519,0.4519,0.0,0.0,0.0,0.0,0.0,0.0,0.0,0.0,0.0,0.0,0.0,0.0,0.0,0.0,0.0,0.2511,0.2968,0.3262,0.3398,0.3534,0.3581,0.3581,0.3486,0.3398,0.3398,0.3262,0.3126,0.299,0.2909,0.2684,0.2279,0.2061,0.1748,0.1254,0.0985,0.094,0.103,0.0674,0.0494,0.045,0.027,0.018,0.018,0.0045,0.0,0.0,0.0,0.0,0.0,0.0,0.0,0.0,0.0,0.0,0.0,0.0,0.0,0.0,0.0,0.0,0.0,0.0,-0.0362,-0.0752,-0.0889,-0.1568,-0.2296,-0.2465,-0.3023,-0.3413,-0.3413,-0.3633,-0.3796,-0.3627,-0.3852,-0.4024,-0.4193,-0.3965,-0.3741,-0.3627,-0.3077,-0.2711,-0.2675,-0.2474,-0.2434,-0.2533,-0.2477,-0.2328,-0.2099,-0.188,-0.139,-0.0539,-0.0291,-0.0151,0.0,0.0271,0.0561,0.0898,0.1511,0.2015,0.2465,0.274,0.2961,0.3074,0.3299,0.3522,0.3796,0.4079,0.4193,0.4193,0.4411,0.4519,0.4519,0.4519,0.4519,0.4519,0.0,0.0,0.0,0.0,0.0,0.0,0.0,0.0,0.0,0.0,0.0,0.0,0.0,0.0,0.2169,0.2636,0.3064,0.3353,0.3398,0.3534,0.3578,0.3442,0.3306,0.3214,0.3126,0.2951,0.2773,0.2637,0.2413,0.2146,0.1791,0.1567,0.1254,0.0851,0.0628,0.0494,0.0449,0.0314,0.0225,0.0135,0.009,0.0046,0.0047,0.0,0.0,0.0,0.0,0.0,0.0,0.0,0.0,0.0,0.0,-0.0044,-0.0084,-0.0084,-0.0126,-0.021,-0.0084,0.0,0.0,0.0,0.0,0.0,-0.1287,-0.1983,-0.2689,-0.3079,-0.3411,-0.3744,-0.3971,-0.4024,-0.4135,-0.4239,-0.419,-0.4138,-0.4193,-0.4079,-0.3799,-0.3466,-0.3023,-0.2514,-0.2099,-0.1821,-0.1654,-0.1593,-0.1533,-0.1432,-0.1254,-0.0942,-0.0629,-0.0315,-0.0146,-0.0051,0.0,0.0163,0.0336,0.0561,0.0953,0.1345,0.1626,0.1846,0.2069,0.2294,0.2631,0.291,0.3183,0.3799,0.4135,0.4193,0.4411,0.4519,0.4519,0.4519,0.4519,0.4519,0.0,0.0,0.0,0.0,0.0,0.0,0.0,0.0,0.0,0.0,0.0,0.0,0.0,0.0,0.2593,0.2951,0.3309,0.349,0.349,0.3578,0.3534,0.3398,0.3176,0.2996,0.2812,0.2551,0.2328,0.2103,0.1878,0.1611,0.1299,0.1076,0.0807,0.0493,0.0359,0.0225,0.0135,0.0135,0.009,0.0,0.0,0.0,0.0,0.0,0.0,0.0,0.0,0.0,0.0,0.0,-0.005,-0.0095,-0.0093,-0.0177,-0.0253,-0.0253,-0.0379,-0.0463,-0.0379,-0.0435,-0.0499,-0.052,0.0,0.0,-0.1691,-0.2458,-0.3188,-0.3522,-0.3852,-0.4132,-0.4301,-0.4301,-0.4356,-0.4463,-0.4408,-0.4301,-0.4301,-0.4076,-0.3799,-0.3469,-0.28,-0.224,-0.1737,-0.1359,-0.1109,-0.1034,-0.0947,-0.0863,-0.0736,-0.0453,-0.0272,-0.0184,-0.0049,0.0,0.0,0.0109,0.0224,0.0336,0.0673,0.0954,0.1122,0.1345,0.1624,0.1962,0.2354,0.2687,0.3016,0.3685,0.4021,0.4135,0.4408,0.4519,0.4519,0.4519,0.4519,0.4519,0.0,0.0,0.0,0.0,0.0,0.0,0.0,0.0,0.0,0.0,0.0,0.0,0.0,0.0,0.0,0.0,0.3513,0.3612,0.3626,0.3629,0.3529,0.3376,0.3066,0.27,0.2415,0.2061,0.1794,0.1523,0.1299,0.1075,0.0851,0.0584,0.036,0.018,0.0,0.009,0.0,0.0,0.0,0.0,0.0,0.0,0.0,0.0,0.0,0.0,0.0,0.0,0.0,0.0,-0.0102,-0.0193,-0.0239,-0.0362,-0.0551,-0.059,-0.0673,-0.08,-0.08,-0.0783,-0.0861,-0.0938,-0.1369,0.0,-0.2099,-0.2936,-0.3683,-0.3796,-0.4128,-0.4463,-0.4463,-0.4463,-0.4463,-0.4519,-0.4463,-0.4463,-0.4519,-0.4128,-0.3741,-0.3413,-0.2573,-0.1905,-0.1572,-0.1091,-0.0749,-0.0692,-0.067,-0.0546,-0.0432,-0.0278,-0.0185,-0.0192,-0.005,0.0,0.0,0.011,0.0168,0.0168,0.0505,0.0729,0.0898,0.1122,0.1459,0.1853,0.23,0.2742,0.3186,0.363,0.391,0.4076,0.4353,0.4519,0.4519,0.4519,0.4519,0.4519,0.0,0.0,0.0,0.0,0.0,0.0,0.0,0.0,0.0,0.0,0.0,0.0,0.0,0.0,0.0,0.0,0.3382,0.3667,0.3775,0.3782,0.3637,0.3336,0.2866,0.2362,0.1928,0.1523,0.1208,0.103,0.0763,0.0584,0.0494,0.0314,0.018,0.0045,0.0045,0.0045,0.0,0.0,0.0,0.0,0.0,0.0,0.0,0.0,0.0,0.0,0.0,0.0,0.0,0.0,-0.0106,-0.0207,-0.0341,-0.0646,-0.1011,-0.106,-0.126,-0.1471,-0.1301,-0.1432,-0.1528,-0.1358,-0.1917,0.0,-0.2594,-0.3207,-0.3796,-0.3796,-0.3965,-0.4135,-0.4245,-0.4249,-0.4301,-0.4463,-0.4356,-0.4301,-0.4463,-0.4187,-0.3799,-0.3469,-0.2687,-0.1905,-0.1234,-0.0781,-0.0384,-0.016,-0.0155,-0.0101,-0.01,-0.005,-0.005,-0.005,0.0,0.0,0.0,0.0,0.0056,0.0056,0.0112,0.0336,0.0729,0.0898,0.1345,0.1961,0.2354,0.28,0.3355,0.3688,0.3965,0.4193,0.4408,0.4519,0.4519,0.4519,0.4519,0.4519,0.0,0.0,0.0,0.0,0.0,0.0,0.0,0.0,0.0,0.0,0.0,0.0,0.0,0.0,0.0,0.0,0.0,0.0,0.0,0.3465,0.3311,0.295,0.2519,0.2054,0.157,0.1121,0.0807,0.0673,0.0449,0.0315,0.0315,0.018,0.0045,-0.009,-0.009,-0.0135,-0.018,-0.0135,-0.009,-0.009,-0.0048,0.0,0.0,0.0,0.0,0.0,0.0,0.0,0.0,0.0,-0.016,-0.0362,-0.0609,-0.0958,-0.1389,-0.1523,-0.1721,-0.1868,-0.178,-0.1895,-0.2014,-0.1969,-0.2474,0.0,0.0,-0.3403,-0.3741,-0.3633,-0.3691,-0.3802,-0.391,-0.3965,-0.4021,-0.4132,-0.4076,-0.3965,-0.3965,-0.3858,-0.3691,-0.3299,-0.2573,-0.1849,-0.1178,-0.0673,-0.0278,0.0,0.0,0.0,0.0,0.0,0.0,0.0,0.0,0.0,0.0,0.0,0.0056,0.0112,0.0112,0.0393,0.0898,0.1121,0.168,0.2352,0.2798,0.3246,0.3691,0.391,0.4135,0.4356,0.4463,0.4519,0.4519,0.4519,0.4519,0.4519,0.0,0.0,0.0,0.0,0.0,0.0,0.0,0.0,0.0,0.0,0.0,0.0,0.0,0.0,0.2114,0.2613,0.0,0.0,0.2998,0.2998,0.2851,0.2553,0.2163,0.1693,0.121,0.0808,0.0494,0.0315,0.0225,0.0135,0.0135,0.0,-0.0135,-0.027,-0.027,-0.0315,-0.045,-0.0315,-0.027,-0.0226,-0.0098,0.0,0.0,0.0,0.0,0.0,0.0,0.0,0.0,0.0,-0.0215,-0.0511,-0.0785,-0.1233,-0.1641,-0.1824,-0.2025,-0.2152,-0.2109,-0.2194,-0.2328,-0.2485,-0.2868,-0.3227,0.0,0.0,0.0,-0.3302,-0.3304,-0.3413,-0.3405,-0.3516,-0.363,-0.3685,-0.363,-0.3519,-0.3299,-0.3246,-0.319,-0.3021,-0.2294,-0.168,-0.1122,-0.0617,-0.0224,0.0,0.0,0.0,0.0,0.0,0.0,0.0054,0.0054,0.0054,0.0056,0.0056,0.0168,0.028,0.0336,0.0673,0.1233,0.1567,0.2127,0.2858,0.3246,0.3691,0.4024,0.4138,0.4301,0.4519,0.4519,0.4519,0.4519,0.4519,0.4519,0.4519,0.0,0.0,0.0,0.0,0.0,0.0,0.0,0.0,0.0051,0.0,0.0,0.0,0.0897,0.1182,0.1463,0.1715,0.2166,0.2503,0.2639,0.2643,0.2551,0.2355,0.1752,0.1211,0.0762,0.0449,0.018,0.0045,0.0045,-0.0045,-0.0135,-0.018,-0.027,-0.045,-0.045,-0.0539,-0.0674,-0.0539,-0.045,-0.0362,-0.0245,-0.0101,0.0,0.0,0.0,0.0,0.0,0.0,0.0,0.0,-0.0164,-0.0474,-0.0666,-0.118,-0.1693,-0.1778,-0.2024,-0.2281,-0.2199,-0.2239,-0.2346,-0.2481,-0.2779,-0.2993,-0.2783,0.0,-0.2907,-0.2631,0.0,-0.2687,-0.2792,0.0,0.0,-0.3186,-0.2961,-0.2792,-0.2792,-0.2348,-0.2127,-0.2521,-0.185,-0.1234,-0.0954,-0.0393,-0.0056,0.0,0.0,0.0,0.0,0.0,0.0056,0.0167,0.0167,0.0223,0.0336,0.0336,0.0449,0.0617,0.0785,0.1121,0.1734,0.2015,0.2575,0.3302,0.3527,0.3805,0.4193,0.4193,0.4301,0.4519,0.4519,0.4519,0.4519,0.4519,0.4519,0.4519,0.0,0.0,0.0,0.0,0.0,0.0,0.0,0.0,0.0053,0.0,0.0,0.0378,0.0712,0.0851,0.1041,0.1302,0.1532,0.169,0.1859,0.1864,0.1745,0.1562,0.1224,0.0886,0.0512,0.0318,0.0135,0.0,0.0,-0.009,-0.018,-0.027,-0.0494,-0.0852,-0.0942,-0.1091,-0.1256,-0.0977,-0.0801,-0.0677,-0.0357,-0.0104,0.0,0.0,0.0,0.0,0.0,-0.0056,-0.0112,-0.0112,-0.0384,-0.0799,-0.1124,-0.16,-0.202,-0.2181,-0.2309,-0.2377,-0.2293,-0.2313,-0.2386,-0.2485,-0.273,-0.2866,-0.2649,-0.2623,-0.2519,-0.2071,0.0,0.0,0.0,0.0,0.0,0.0,-0.2237,-0.2069,-0.1792,-0.1512,-0.1456,-0.1902,-0.1457,-0.0898,-0.0505,-0.0168,0.0,0.0,0.0,0.0,0.0,0.0056,0.0168,0.0336,0.0449,0.0617,0.0785,0.0785,0.1009,0.1344,0.14,0.179,0.246,0.2629,0.3077,0.3747,0.3916,0.4135,0.4356,0.4356,0.4411,0.4519,0.4519,0.4519,0.4519,0.4519,0.4519,0.4519,0.0,0.0,0.0,0.0,0.0,0.0,0.0,0.0,0.0054,0.0112,0.0168,0.0224,0.0505,0.0548,0.0646,0.0853,0.0935,0.0984,0.1117,0.1119,0.1065,0.0905,0.0779,0.0604,0.034,0.0236,0.0092,0.0,-0.0046,-0.0136,-0.027,-0.0494,-0.0807,-0.1254,-0.145,-0.1621,-0.1718,-0.1397,-0.113,-0.086,-0.042,-0.0161,0.0,0.0,0.0,0.0,-0.0056,-0.0168,-0.028,-0.0336,-0.0713,-0.1124,-0.1535,-0.1853,-0.2177,-0.2341,-0.2373,-0.2336,-0.2201,-0.2124,-0.2097,-0.2181,-0.2293,-0.2397,-0.2153,-0.2091,-0.1905,-0.1455,-0.1455,0.0,0.0,0.0,-0.168,-0.1568,0.0,-0.14,-0.1065,-0.0842,-0.0841,-0.1287,-0.0952,-0.0561,-0.0168,-0.0056,0.0,0.0,0.0,0.0,0.0,0.0112,0.028,0.0505,0.0729,0.1009,0.1345,0.1401,0.1624,0.2068,0.2069,0.246,0.3072,0.3241,0.3577,0.4079,0.4138,0.4301,0.4519,0.4519,0.4519,0.4519,0.4519,0.4519,0.4519,0.4519,0.4519,0.4519,0.0,0.0,0.0,0.0,0.0,0.0,0.0,0.0,0.0,0.0,0.0,0.0,0.0,0.0112,0.0221,0.0214,0.0479,0.0638,0.0639,0.0639,0.0639,0.0639,0.0372,0.0209,0.0201,0.005,0.0,0.0,-0.0143,-0.028,-0.0494,-0.0896,-0.1254,-0.1615,-0.1912,-0.1994,-0.1864,-0.1737,-0.136,-0.0759,-0.0525,-0.0217,0.0,0.0,0.0,0.0,-0.0168,-0.028,-0.0449,-0.0785,-0.1042,-0.1332,-0.1602,-0.1871,-0.2116,-0.2123,-0.2071,-0.1967,-0.1868,-0.1563,-0.1372,-0.1423,-0.1331,-0.1236,-0.1167,-0.1065,-0.0898,-0.0785,-0.0729,-0.0729,-0.0729,-0.0842,-0.0954,0.0,-0.0842,0.0,0.0,-0.0449,-0.0336,-0.0673,-0.0449,-0.0168,0.0,0.0,0.0,0.0,0.0,0.0,0.0,0.0112,0.0393,0.0898,0.1122,0.1514,0.1959,0.2127,0.235,0.2681,0.2792,0.3128,0.3569,0.3738,0.391,0.4193,0.4193,0.4301,0.4519,0.4519,0.4519,0.4519,0.4519,0.4519,0.4519,0.4519,0.4519,0.4519,0.0,0.0,0.0,0.0,-0.0056,-0.0224,-0.0449,-0.0449,-0.0449,-0.0449,-0.0449,-0.0393,-0.0168,-0.011,-0.0054,0.0053,0.0156,0.0208,0.0213,0.0213,0.0215,0.022,0.0108,0.0053,0.0052,0.0,0.0,0.0,-0.0149,-0.034,-0.0654,-0.1151,-0.1627,-0.2054,-0.2331,-0.2405,-0.2259,-0.1923,-0.143,-0.0814,-0.0329,-0.0056,0.0,0.0,0.0,0.0,-0.0168,-0.0393,-0.0617,-0.0954,-0.128,-0.1656,-0.1929,-0.2186,-0.2381,-0.2491,-0.2399,-0.226,-0.2261,-0.1919,-0.1584,-0.1641,-0.1379,-0.1107,-0.1007,-0.0842,-0.0673,-0.0449,-0.0449,-0.0449,-0.0393,-0.0505,-0.0561,0.0,0.0,-0.0336,0.0,-0.0112,-0.0112,-0.0224,-0.0112,-0.0056,0.0,0.0,0.0,0.0,0.0,0.0,0.0,0.0336,0.0673,0.101,0.1569,0.2127,0.2571,0.2852,0.313,0.3405,0.3461,0.3685,0.4021,0.4024,0.419,0.4408,0.4408,0.4463,0.4519,0.4519,0.4519,0.4519,0.4519,0.4519,0.4519,0.4519,0.4519,0.4519,-0.0224,-0.0224,-0.0224,-0.0056,-0.0168,-0.0393,-0.0673,-0.0729,-0.0729,-0.0729,-0.0673,-0.0561,-0.0224,-0.022,-0.0163,0.0,0.0,0.0,0.0,0.0,0.0,0.0,0.0,0.0,0.0,0.0,0.0,-0.0052,-0.0257,-0.0555,-0.1021,-0.1595,-0.2089,-0.2529,-0.2727,-0.2654,-0.2395,-0.1938,-0.1372,-0.0785,-0.0224,0.0,0.0,0.0,0.0,0.0,-0.0224,-0.0449,-0.0785,-0.1122,-0.1515,-0.1853,-0.2128,-0.2296,-0.241,-0.2521,-0.2371,-0.2233,-0.223,-0.1877,-0.1474,-0.1507,-0.1122,-0.0785,-0.0673,-0.0561,-0.0393,-0.0168,-0.0224,-0.0224,-0.0168,-0.0224,-0.0224,0.0,0.0,-0.0112,0.0,0.0,0.0,0.0,0.0,0.0,0.0,0.0,0.0,0.0056,0.0056,0.0112,0.0112,0.0505,0.0897,0.1289,0.1903,0.2462,0.3074,0.3411,0.3688,0.3965,0.3965,0.4079,0.4301,0.4301,0.4356,0.4519,0.4519,0.4519,0.4519,0.4519,0.4519,0.4519,0.4519,0.4519,0.4519,0.4519,0.4519,0.4519,-0.0673,-0.0729,-0.0617,-0.0168,-0.028,-0.0505,-0.0729,-0.0842,-0.0898,-0.0785,-0.0729,-0.0617,-0.0224,-0.0224,-0.0168,0.0,0.0,0.0,0.0,0.0,0.0,0.0,0.0,0.0,0.0,0.0,-0.0055,-0.0213,-0.048,-0.0944,-0.1518,-0.2228,-0.2684,-0.2938,-0.3146,-0.2876,-0.2245,-0.1821,-0.1231,-0.0617,-0.0168,0.0,0.0,0.0,0.0,-0.0056,-0.028,-0.0505,-0.0785,-0.1347,-0.1629,-0.1797,-0.2074,-0.2127,-0.2183,-0.2183,-0.2071,-0.1959,-0.1852,-0.1459,-0.1066,-0.0954,-0.0561,-0.0224,-0.0224,-0.0112,0.0,0.0,0.0,0.0,0.0,0.0,0.0,0.0,0.0,0.0,0.0,0.0,0.0,0.0,0.0,0.0,0.0,0.0,0.0056,0.0168,0.0224,0.028,0.0393,0.0617,0.1008,0.1566,0.2015,0.2629,0.3413,0.3688,0.3965,0.4193,0.4193,0.4301,0.4519,0.4519,0.4519,0.4519,0.4519,0.4519,0.4519,0.4519,0.4519,0.4519,0.4519,0.4519,0.4519,0.4519,0.4519,0.4519,-0.0954,-0.1066,-0.1177,-0.1175,-0.1121,-0.1178,-0.1459,-0.1625,-0.1624,-0.1402,-0.1347,-0.1122,-0.0449,-0.0336,-0.028,0.0,0.0,0.0,0.0,0.0,0.0,0.0,0.0,0.0,0.0,-0.0112,-0.0223,-0.0332,-0.0775,-0.125,-0.1836,-0.2475,-0.2902,-0.3151,-0.3263,-0.2927,-0.2211,-0.1783,-0.1119,-0.0336,-0.0112,0.0,0.0,0.0,0.0,0.0,-0.0168,-0.0336,-0.0561,-0.0954,-0.1178,-0.1291,-0.1458,-0.1514,-0.1569,-0.1847,-0.179,-0.1734,-0.2017,-0.1682,-0.129,-0.1403,-0.0898,-0.0336,-0.0336,-0.0168,0.0,0.0,0.0,0.0,0.0,0.0,0.0,0.0,0.0,0.0,0.0,0.0,0.0,0.0,0.0112,0.0112,0.0,0.0,0.0056,0.0168,0.0224,0.0336,0.0617,0.0842,0.1233,0.1734,0.2404,0.2965,0.3527,0.3913,0.419,0.4411,0.4411,0.4463,0.4519,0.4519,0.4519,0.4519,0.4519,0.4519,0.4519,0.4519,0.4519,0.4519,0.4519,0.4519,0.4519,0.4519,0.4519,0.4519,-0.1736,-0.1959,-0.2137,-0.2338,-0.2343,-0.2221,-0.1911,-0.2017,-0.1961,-0.1628,-0.1459,-0.1122,-0.0449,-0.0336,-0.0224,0.0,0.0,0.0,0.0,0.0,0.0,0.0,0.0,0.0,0.0,-0.0112,-0.0336,-0.0617,-0.1064,-0.1663,-0.2336,-0.2934,-0.3317,-0.3533,-0.344,-0.3021,-0.2348,-0.1567,-0.0784,-0.0112,-0.0056,-0.0056,0.0,-0.0112,-0.0112,-0.0168,-0.0168,-0.0224,-0.0337,-0.0685,-0.086,-0.0975,-0.1089,-0.1147,-0.1143,-0.135,-0.1344,-0.1344,-0.1568,-0.1345,-0.1066,-0.1178,-0.0729,-0.0336,-0.0336,-0.0168,0.0,0.0,0.0,0.0,0.0,0.0,0.0,0.0,0.0,0.0,0.0,0.0,0.0,0.0,0.0112,0.0168,0.0168,0.028,0.0393,0.0561,0.0617,0.0785,0.1176,0.1177,0.1457,0.2071,0.2517,0.3021,0.3691,0.3968,0.4245,0.4519,0.4519,0.4519,0.4519,0.4519,0.4519,0.4519,0.4519,0.4519,0.4519,0.4519,0.4519,0.4519,0.4519,0.4519,0.4519,0.4519,0.4519,0.4519,-0.2774,-0.3058,-0.3258,-0.347,-0.3602,-0.3331,-0.2389,-0.2324,-0.2213,-0.1762,-0.1416,-0.1016,-0.0508,-0.0337,-0.0168,0.0,0.0,0.0,0.0,0.0,0.0,0.0,0.0,0.0,0.0,-0.0168,-0.0505,-0.1009,-0.1455,-0.2125,-0.2961,-0.3461,-0.3796,-0.3965,-0.3635,-0.313,-0.2514,-0.1288,-0.0506,-0.0056,-0.0112,-0.0169,-0.0282,-0.0281,-0.0336,-0.0449,-0.0336,-0.0225,-0.0227,-0.0525,-0.0591,-0.0652,-0.0771,-0.0769,-0.0762,-0.0797,-0.0788,-0.0842,-0.0842,-0.0785,-0.0673,-0.0673,-0.0449,-0.0224,-0.0224,-0.0112,0.0,0.0,0.0,0.0,0.0,0.0,0.0,0.0,0.0,0.0,0.0,0.0,0.0,0.0,0.0168,0.0,0.0449,0.0617,0.0842,0.1122,0.1122,0.1345,0.179,0.1569,0.1738,0.2521,0.2577,0.3021,0.3796,0.3965,0.419,0.4519,0.4519,0.4519,0.4519,0.4519,0.4519,0.4519,0.4519,0.4519,0.4519,0.4519,0.4519,0.4519,0.4519,0.4519,0.4519,0.4519,0.4519,0.4519,-0.3751,-0.3811,-0.3879,-0.3901,-0.4027,-0.4019,-0.3696,-0.3455,-0.3032,-0.2427,-0.2016,-0.1517,-0.0818,-0.0513,-0.028,0.0,0.0,0.0,0.0,0.0,0.0,0.0,0.0,-0.0056,-0.0168,-0.0449,-0.0896,-0.1455,-0.2071,-0.2687,-0.3302,-0.3744,-0.3965,-0.3965,-0.3799,-0.3072,-0.1902,-0.1289,-0.0797,-0.0408,-0.051,-0.057,-0.0641,-0.0737,-0.0785,-0.0785,-0.0673,-0.0457,-0.0175,-0.0118,-0.012,-0.0122,-0.0122,-0.018,-0.0177,-0.0293,-0.0344,-0.0393,-0.0673,-0.0617,-0.0505,-0.0673,-0.0449,-0.0224,-0.0224,-0.0112,0.0,0.0,0.0,0.0,0.0,0.0,0.0,0.0,0.0,0.0,0.0,0.0,0.0,0.0,0.0336,0.0673,0.0785,0.0842,0.0954,0.1234,0.129,0.1457,0.1958,0.1903,0.2183,0.2796,0.3077,0.3469,0.3965,0.4079,0.4301,0.4519,0.4519,0.4519,0.4519,0.4519,0.4519,0.4519,0.4519,0.4519,0.4519,0.4519,0.4519,0.4519,0.4519,0.4519,0.4519,0.4519,0.4519,0.4519,-0.4363,-0.4427,-0.451,-0.4578,-0.4653,-0.4615,-0.4556,-0.4315,-0.3804,-0.2845,-0.2255,-0.1694,-0.1036,-0.0736,-0.0449,-0.0112,-0.0112,-0.0056,0.0,0.0,0.0,0.0,0.0,-0.0056,-0.0224,-0.0617,-0.1121,-0.1679,-0.2406,-0.3019,-0.3633,-0.3968,-0.4135,-0.4242,-0.3849,-0.307,-0.2015,-0.168,-0.1371,-0.0999,-0.1098,-0.1231,-0.1445,-0.1483,-0.1517,-0.1552,-0.1322,-0.0987,-0.0591,-0.024,-0.0061,0.0,0.0,0.0,0.0,-0.0061,-0.0119,-0.0118,-0.0295,-0.0295,-0.0235,-0.0289,-0.023,-0.0115,-0.0113,-0.0056,0.0,0.0,0.0,0.0,0.0,0.0,0.0,0.0,0.0,0.0,0.0112,0.0112,0.0168,0.0336,0.0673,0.1009,0.1344,0.1569,0.1737,0.1737,0.185,0.2073,0.2352,0.2296,0.2519,0.313,0.3302,0.3635,0.4079,0.4193,0.4301,0.4519,0.4519,0.4519,0.4519,0.4519,0.4519,0.4519,0.4519,0.4519,0.4519,0.4519,0.4519,0.4519,0.4519,0.4519,0.4519,0.4519,0.4519,0.4519,-0.4862,-0.4998,-0.5098,-0.5209,-0.5226,-0.5192,-0.5143,-0.5024,-0.4443,-0.3267,-0.2623,-0.2055,-0.1365,-0.107,-0.0728,-0.0393,-0.028,-0.0168,-0.0056,0.0,0.0,0.0,0.0,-0.0112,-0.028,-0.0729,-0.1288,-0.2014,-0.2683,-0.3297,-0.391,-0.4135,-0.4301,-0.4408,-0.3907,-0.3183,-0.2406,-0.2238,-0.1996,-0.1704,-0.1762,-0.1977,-0.228,-0.2402,-0.2417,-0.2353,-0.2056,-0.1698,-0.1231,-0.0725,-0.0307,-0.0062,-0.0128,-0.0064,-0.0064,-0.0063,-0.0062,0.0,0.0,0.0,0.0,0.0,0.0,0.0,0.0,0.0,0.0,0.0,0.0,0.0,0.0,0.0,0.0,0.0,0.0,0.0113,0.0227,0.0282,0.0449,0.0729,0.1066,0.1457,0.1847,0.2352,0.2631,0.2406,0.2464,0.2577,0.2747,0.2689,0.2912,0.3469,0.3524,0.3802,0.4249,0.4249,0.4356,0.4519,0.4463,0.4408,0.4408,0.4353,0.4349,0.4349,0.4349,0.4408,0.4408,0.4408,0.4463,0.4519,0.4519,0.4519,0.4519,0.4519,0.4519,0.4519,-0.5498,-0.5525,-0.5532,-0.5545,-0.5549,-0.5504,-0.5379,-0.5226,-0.4766,-0.3842,-0.343,-0.2909,-0.2115,-0.1709,-0.1343,-0.0897,-0.0561,-0.0336,-0.0168,-0.0056,0.0,0.0,0.0,-0.0224,-0.0617,-0.0954,-0.1568,-0.2625,-0.313,-0.3635,-0.4193,-0.4356,-0.4411,-0.4193,-0.4024,-0.3633,-0.3019,-0.285,-0.2565,-0.2235,-0.2642,-0.2813,-0.2954,-0.332,-0.3258,-0.2995,-0.2817,-0.242,-0.1866,-0.1694,-0.1084,-0.0372,-0.0448,-0.0317,-0.0187,-0.0255,-0.0126,0.0,0.0,0.0,0.0,0.0,0.0,0.0,0.0,0.0,0.0,0.0,0.0,0.0,0.0,0.0,0.0,0.0,0.0119,0.0235,0.0352,0.0629,0.0898,0.1066,0.1569,0.1959,0.2127,0.2854,0.3246,0.3019,0.28,0.2747,0.286,0.2968,0.3241,0.3741,0.4024,0.4245,0.4463,0.4463,0.4463,0.4519,0.4301,0.4249,0.4193,0.3965,0.3852,0.3852,0.3852,0.4021,0.4249,0.4249,0.4356,0.4519,0.4519,0.4519,0.4519,0.4519,0.4519,0.4519,-0.5688,-0.5718,-0.5718,-0.5718,-0.5718,-0.5667,-0.5521,-0.543,-0.5209,-0.4528,-0.4012,-0.344,-0.2638,-0.2312,-0.1849,-0.1178,-0.0898,-0.0561,-0.0224,-0.0056,0.0,0.0,0.0,-0.0224,-0.0673,-0.1066,-0.168,-0.2681,-0.3244,-0.3749,-0.4193,-0.4408,-0.4411,-0.4193,-0.4138,-0.391,-0.3519,-0.3463,-0.3303,-0.317,-0.3343,-0.3565,-0.3778,-0.3899,-0.3845,-0.3735,-0.3546,-0.3046,-0.2521,-0.2384,-0.1692,-0.0845,-0.0871,-0.0685,-0.0495,-0.0376,-0.0253,-0.0126,0.0,0.0,0.0,0.0,0.0,0.0,0.0,0.0,0.0,0.0,0.0,0.0,0.0,0.0,0.0,0.0,0.0122,0.0361,0.0531,0.0874,0.1204,0.1573,0.2128,0.2519,0.274,0.319,0.3471,0.3299,0.3246,0.3193,0.3023,0.3188,0.3413,0.3691,0.3805,0.3913,0.4073,0.4024,0.3968,0.3968,0.386,0.3805,0.3691,0.3635,0.3577,0.3577,0.363,0.3852,0.4079,0.4193,0.4301,0.4525,0.4565,0.4599,0.4609,0.4704,0.4735,0.4735,-0.584,-0.5867,-0.5867,-0.5867,-0.5867,-0.5803,-0.5616,-0.5589,-0.5413,-0.4987,-0.4606,-0.4016,-0.331,-0.2869,-0.2408,-0.1738,-0.1234,-0.0785,-0.0449,-0.0168,-0.0112,-0.0224,-0.0224,-0.0449,-0.0954,-0.1346,-0.1959,-0.2905,-0.3411,-0.386,-0.4301,-0.4408,-0.4411,-0.4301,-0.4301,-0.4135,-0.391,-0.391,-0.3851,-0.382,-0.3912,-0.4094,-0.4371,-0.4323,-0.4342,-0.4234,-0.4077,-0.3618,-0.3128,-0.307,-0.2442,-0.1634,-0.1383,-0.1095,-0.0794,-0.0554,-0.0376,-0.019,-0.0062,0.0,0.0,0.0,0.0,0.0,0.0,0.0,0.0,0.0,0.0,0.0,0.0,0.0,0.0,0.0,0.0189,0.0433,0.066,0.1067,0.1513,0.1967,0.241,0.28,0.3021,0.3357,0.3471,0.3302,0.3471,0.3413,0.313,0.3299,0.3413,0.3471,0.3527,0.358,0.3574,0.3524,0.3471,0.3471,0.3357,0.3299,0.3188,0.3077,0.3079,0.3135,0.3297,0.363,0.3968,0.4126,0.4366,0.4545,0.4697,0.4758,0.4772,0.4877,0.4918,0.4918,-0.5996,-0.6027,-0.6027,-0.6027,-0.6027,-0.5928,-0.5633,-0.5589,-0.5477,-0.5172,-0.5065,-0.4827,-0.4074,-0.3478,-0.291,-0.2521,-0.1625,-0.1066,-0.0898,-0.0449,-0.0336,-0.0673,-0.0673,-0.0954,-0.1572,-0.1849,-0.2462,-0.3413,-0.3685,-0.4018,-0.4519,-0.4519,-0.4519,-0.4519,-0.4519,-0.4411,-0.4193,-0.4193,-0.4138,-0.4036,-0.434,-0.4513,-0.4533,-0.48,-0.4703,-0.4513,-0.4513,-0.4188,-0.3796,-0.3796,-0.3463,-0.2925,-0.2037,-0.1471,-0.1068,-0.0796,-0.0432,-0.0185,-0.0062,0.0,0.0,0.0,0.0,0.0,0.0,0.0,0.0,0.0,0.0,0.0,0.0,0.0,0.0,0.0,0.0263,0.0575,0.0682,0.12,0.1684,0.1967,0.241,0.2747,0.2916,0.3193,0.3302,0.313,0.3299,0.3302,0.313,0.3299,0.3302,0.313,0.3299,0.3302,0.313,0.313,0.313,0.313,0.285,0.2736,0.2681,0.235,0.2296,0.2521,0.2796,0.3239,0.3808,0.411,0.4397,0.4704,0.4857,0.4914,0.4918,0.4918,0.4918,0.4918,-0.6159,-0.6186,-0.6186,-0.6186,-0.6186,-0.6122,-0.5922,-0.58,-0.5664,-0.5471,-0.526,-0.5031,-0.4752,-0.4115,-0.3439,-0.2802,-0.2127,-0.1569,-0.1178,-0.0954,-0.0842,-0.0954,-0.1066,-0.1346,-0.1849,-0.2071,-0.2571,-0.3519,-0.3741,-0.4018,-0.4519,-0.4519,-0.4519,-0.4519,-0.4519,-0.4463,-0.4408,-0.4408,-0.4353,-0.4356,-0.4458,-0.4539,-0.4626,-0.4629,-0.464,-0.4616,-0.4515,-0.4337,-0.4079,-0.4079,-0.3744,-0.3193,-0.2717,-0.2102,-0.1483,-0.0981,-0.0588,-0.0298,-0.0058,0.0,0.0,0.0,0.0,0.0,0.0,0.0,0.0,0.0,0.0,0.0,0.0,0.0,0.0,0.0,0.0201,0.0392,0.0498,0.098,0.143,0.169,0.224,0.2521,0.241,0.274,0.2794,0.2517,0.2573,0.2779,0.3007,0.2947,0.2858,0.2743,0.2461,0.2262,0.2198,0.1982,0.1849,0.1849,0.1793,0.1869,0.2025,0.2026,0.2225,0.2628,0.2987,0.3463,0.4065,0.4282,0.4543,0.486,0.5006,0.5064,0.5077,0.5182,0.522,0.522,-0.624,-0.6338,-0.6338,-0.6338,-0.6338,-0.621,-0.6054,-0.5949,-0.5817,-0.5616,-0.5423,-0.526,-0.5142,-0.4661,-0.4062,-0.3313,-0.2535,-0.1961,-0.1738,-0.1513,-0.1456,-0.168,-0.1792,-0.2071,-0.2517,-0.2685,-0.3072,-0.3741,-0.3962,-0.4239,-0.4519,-0.4519,-0.4519,-0.4519,-0.4519,-0.4519,-0.4519,-0.4519,-0.4519,-0.4519,-0.4519,-0.4577,-0.4596,-0.4556,-0.4577,-0.4592,-0.4553,-0.4408,-0.4301,-0.4249,-0.3913,-0.3466,-0.2961,-0.2348,-0.1679,-0.1065,-0.0626,-0.0288,-0.0056,0.0,0.0,0.0,0.0,0.0,0.0,0.0,0.0,0.0,0.0,0.0,0.0,0.0,0.0,0.0,0.0202,0.033,0.0311,0.0741,0.1086,0.1298,0.1737,0.1962,0.1849,0.2071,0.2137,0.1994,0.2034,0.2199,0.2491,0.2423,0.2307,0.215,0.1777,0.1525,0.1437,0.1234,0.1165,0.1165,0.1223,0.1412,0.1735,0.2034,0.2417,0.2954,0.3322,0.3814,0.4308,0.4541,0.4748,0.5013,0.5159,0.5216,0.5226,0.5325,0.5428,0.5428,-0.6352,-0.6352,-0.6352,-0.6352,-0.6352,-0.6224,-0.6067,-0.6037,-0.5932,-0.5657,-0.5603,-0.5481,-0.5192,-0.5021,-0.465,-0.3904,-0.2917,-0.2357,-0.2577,-0.2127,-0.2181,-0.2736,-0.2736,-0.2961,-0.3413,-0.3574,-0.3741,-0.4024,-0.4353,-0.4519,-0.4519,-0.4519,-0.4519,-0.4519,-0.4519,-0.4519,-0.4519,-0.4519,-0.4519,-0.4519,-0.4519,-0.4519,-0.4519,-0.4519,-0.4519,-0.4519,-0.4519,-0.4519,-0.4463,-0.4249,-0.4024,-0.3685,-0.2903,-0.2291,-0.1623,-0.1065,-0.0561,-0.0168,-0.0056,0.0,0.0,0.0,0.0,0.0,0.0,0.0,0.0,0.0,0.0,0.0,0.0,0.0,0.0,0.0,0.0135,0.0264,0.0187,0.0432,0.0724,0.0848,0.101,0.1122,0.1234,0.1234,0.1308,0.1525,0.1531,0.1575,0.1607,0.1698,0.1612,0.1363,0.1173,0.0987,0.0867,0.0865,0.0865,0.0865,0.1112,0.142,0.1855,0.2407,0.2903,0.3347,0.3837,0.4206,0.4584,0.4782,0.5024,0.5162,0.5304,0.5428,0.5428,0.5428,0.5428,0.5428,-0.6403,-0.6424,-0.6424,-0.6424,-0.6424,-0.6373,-0.6227,-0.6105,-0.6006,-0.5935,-0.5728,-0.5562,-0.5488,-0.5147,-0.4813,-0.4511,-0.384,-0.333,-0.3195,-0.3077,-0.3077,-0.3244,-0.3357,-0.3469,-0.3685,-0.3741,-0.391,-0.4138,-0.4408,-0.4519,-0.4519,-0.4519,-0.4519,-0.4519,-0.4519,-0.4519,-0.4519,-0.4519,-0.4519,-0.4519,-0.4519,-0.4519,-0.4519,-0.4519,-0.4519,-0.4519,-0.4519,-0.4519,-0.4463,-0.4249,-0.3971,-0.3524,-0.2905,-0.2125,-0.1346,-0.0898,-0.0505,-0.0168,-0.0056,0.0,0.0,0.0,0.0,0.0,0.0,0.0,0.0,0.0,0.0,0.0,0.0,0.0,0.0,0.0,0.0067,0.0066,0.0062,0.0185,0.0302,0.0339,0.0617,0.0729,0.0617,0.0729,0.0796,0.0705,0.0722,0.0745,0.0773,0.072,0.0792,0.1186,0.0695,0.0437,0.0447,0.0312,0.037,0.0617,0.1048,0.1559,0.2105,0.2741,0.3354,0.3883,0.4273,0.4665,0.499,0.5026,0.5173,0.5311,0.5415,0.5428,0.5428,0.5428,0.5428,0.5428,-0.6458,-0.6529,-0.6556,-0.6485,-0.6471,-0.6424,-0.6281,-0.619,-0.6108,-0.6037,-0.5891,-0.5739,-0.5603,-0.5376,-0.5127,-0.4908,-0.4276,-0.382,-0.3699,-0.3633,-0.3633,-0.3747,-0.386,-0.3968,-0.4128,-0.4128,-0.4187,-0.4356,-0.4463,-0.4519,-0.4519,-0.4519,-0.4519,-0.4519,-0.4519,-0.4519,-0.4519,-0.4519,-0.4519,-0.4519,-0.4519,-0.4519,-0.4519,-0.4519,-0.4519,-0.4519,-0.4519,-0.4519,-0.4463,-0.419,-0.3858,-0.3416,-0.2685,-0.1903,-0.1122,-0.0673,-0.0336,-0.0112,0.0,0.0,0.0,0.0,0.0,0.0,0.0,0.0,0.0,0.0,0.0,0.0,0.0,0.0,0.0,0.0,0.0,0.0,0.0,0.0063,0.0123,0.0173,0.0344,0.0456,0.0393,0.0449,0.0458,0.042,0.0428,0.0443,0.0468,0.034,0.0409,0.074,0.0327,0.013,0.0132,0.0131,0.0396,0.0802,0.1401,0.207,0.2878,0.3478,0.4082,0.4492,0.4827,0.509,0.5223,0.5223,0.5292,0.5428,0.5428,0.5428,0.5428,0.5428,0.5428,0.5428,-0.6536,-0.6647,-0.6685,-0.6532,-0.6508,-0.6451,-0.6285,-0.6338,-0.6213,-0.6081,-0.6044,-0.5925,-0.565,-0.5603,-0.5467,-0.5155,-0.4518,-0.414,-0.412,-0.3974,-0.4021,-0.4245,-0.4249,-0.4301,-0.4519,-0.4519,-0.4519,-0.4519,-0.4519,-0.4519,-0.4519,-0.4519,-0.4519,-0.4519,-0.4519,-0.4519,-0.4519,-0.4519,-0.4519,-0.4519,-0.4519,-0.4519,-0.4519,-0.4519,-0.4519,-0.4519,-0.4519,-0.4519,-0.4463,-0.4132,-0.3744,-0.3246,-0.2464,-0.1681,-0.101,-0.0561,-0.0224,0.0,0.0,0.0,0.0,0.0,0.0,0.0,0.0,0.0,0.0,0.0,0.0,0.0,0.0,0.0,0.0,0.0,0.0,0.0,0.0065,0.0065,0.0127,0.0239,0.0237,0.0294,0.04,0.0285,0.0292,0.0433,0.0312,0.0324,0.0419,0.0352,0.0279,0.0273,0.0068,0.0,0.0,0.0209,0.0642,0.1239,0.1892,0.2732,0.3727,0.4289,0.4786,0.5155,0.5336,0.5396,0.5463,0.5435,0.5428,0.5428,0.5428,0.5428,0.5428,0.5428,0.5428,0.5428,-0.6831,-0.6878,-0.6844,-0.6692,-0.6664,-0.6573,-0.6302,-0.6338,-0.6251,-0.623,-0.6112,-0.5962,-0.5786,-0.5661,-0.5467,-0.5155,-0.4917,-0.4697,-0.4609,-0.4478,-0.4408,-0.4463,-0.4463,-0.4463,-0.4519,-0.4519,-0.4519,-0.4519,-0.4519,-0.4519,-0.4519,-0.4519,-0.4519,-0.4519,-0.4519,-0.4519,-0.4519,-0.4519,-0.4519,-0.4519,-0.4519,-0.4519,-0.4519,-0.4519,-0.4519,-0.4519,-0.4519,-0.4519,-0.4463,-0.4132,-0.3744,-0.3246,-0.2464,-0.1681,-0.101,-0.0561,-0.0224,0.0,0.0,0.0,0.0,0.0,0.0,0.0,0.0,0.0,0.0,0.0,0.0,0.0,0.0,0.0,0.0,0.0,0.0,0.0067,0.0259,0.0258,0.0319,0.0431,0.0429,0.0489,0.0487,0.0365,0.0309,0.032,0.0131,0.0068,0.007,0.0072,0.0072,0.0072,0.0,0.0,0.0,0.0362,0.0871,0.1459,0.2184,0.3049,0.4051,0.4629,0.512,0.5448,0.554,0.5555,0.5545,0.5413,0.5428,0.5428,0.5428,0.5428,0.5428,0.5428,0.5428,0.5428,-0.6915,-0.699,-0.697,-0.6742,-0.6658,-0.6542,-0.6298,-0.6338,-0.6338,-0.6338,-0.62,-0.6064,-0.5827,-0.5742,-0.5583,-0.5281,-0.5118,-0.4969,-0.4823,-0.4592,-0.4519,-0.4519,-0.4519,-0.4519,-0.4519,-0.4519,-0.4519,-0.4519,-0.4519,-0.4519,-0.4519,-0.4519,-0.4519,-0.4519,-0.4519,-0.4519,-0.4519,-0.4519,-0.4519,-0.4519,-0.4519,-0.4519,-0.4519,-0.4519,-0.4519,-0.4519,-0.4519,-0.4519,-0.4463,-0.4021,-0.3577,-0.3077,-0.2238,-0.1513,-0.0898,-0.0449,-0.0173,0.0,0.0,0.0,0.0,0.0,0.0,0.0,0.0,0.0,0.0,0.0,0.0,0.0,0.0,0.0,0.0,0.0,0.0,0.0069,0.0271,0.027,0.0399,0.0636,0.0633,0.0696,0.0759,0.0569,0.0387,0.0404,0.0137,0.0,0.0,0.0,0.0,0.0,0.0074,0.0147,0.0149,0.0595,0.1049,0.1745,0.2501,0.3385,0.4306,0.4973,0.5374,0.5656,0.5661,0.5705,0.5698,0.5627,0.5552,0.5484,0.5484,0.5433,0.5428,0.5428,0.5428,0.5428,-0.7149,-0.7065,-0.7048,-0.6753,-0.6624,-0.6495,-0.6369,-0.6338,-0.6338,-0.6338,-0.623,-0.6105,-0.583,-0.5772,-0.5647,-0.5452,-0.522,-0.5084,-0.4975,-0.4684,-0.4556,-0.4519,-0.4519,-0.4519,-0.4519,-0.4519,-0.4519,-0.4519,-0.4519,-0.4519,-0.4519,-0.4519,-0.4519,-0.4519,-0.4519,-0.4519,-0.4519,-0.4519,-0.4519,-0.4519,-0.4519,-0.4519,-0.4519,-0.4519,-0.4519,-0.4519,-0.4519,-0.4463,-0.4353,-0.3962,-0.3461,-0.285,-0.2069,-0.1344,-0.0785,-0.0336,-0.0118,0.0,0.0,0.0,0.0,0.0,0.0,0.0,0.0,0.0,0.0,0.0,0.0,0.0,0.0,0.0,0.0,0.0,0.0,0.0071,0.0353,0.0353,0.0488,0.0869,0.0865,0.0865,0.0998,0.0665,0.0474,0.0423,0.0142,0.0,0.0,0.0,0.0,0.0,0.0227,0.03,0.0305,0.0687,0.1232,0.1882,0.2741,0.3643,0.4568,0.5176,0.5647,0.5905,0.5871,0.5854,0.585,0.5817,0.5739,0.564,0.564,0.5566,0.5464,0.5464,0.5464,0.5464,-0.7566,-0.7309,-0.7048,-0.6753,-0.6624,-0.6495,-0.6369,-0.6338,-0.6338,-0.6338,-0.6135,-0.5983,-0.582,-0.5684,-0.5538,-0.5442,-0.522,-0.5125,-0.5114,-0.484,-0.4609,-0.4525,-0.4519,-0.4519,-0.4519,-0.4519,-0.4519,-0.4519,-0.4519,-0.4519,-0.4519,-0.4519,-0.4519,-0.4519,-0.4519,-0.4519,-0.4519,-0.4519,-0.4519,-0.4519,-0.4519,-0.4519,-0.4519,-0.4519,-0.4519,-0.4519,-0.4519,-0.4356,-0.419,-0.391,-0.335,-0.2625,-0.2014,-0.1288,-0.0673,-0.028,-0.0118,0.0,0.0,0.0,0.0,0.0,0.0,0.0,0.0,0.0,0.0,0.0,0.0,0.0,0.0,0.0,0.0,0.0,0.0,0.0145,0.0509,0.0581,0.0726,0.1157,0.1012,0.0867,0.0939,0.0578,0.0289,0.0291,0.0149,0.0,0.0,0.0,0.0,0.0,0.0157,0.0313,0.0313,0.0705,0.1254,0.1882,0.2741,0.3677,0.4688,0.5309,0.5848,0.6217,0.6074,0.6013,0.6003,0.5861,0.5796,0.5786,0.5786,0.5779,0.5769,0.5769,0.5769,0.5769,-0.7408,-0.7228,-0.7048,-0.6753,-0.6519,-0.6349,-0.6352,-0.6338,-0.6227,-0.6129,-0.6067,-0.5939,-0.5698,-0.5623,-0.5528,-0.5442,-0.5308,-0.5233,-0.5138,-0.5026,-0.4813,-0.4532,-0.4519,-0.4519,-0.4519,-0.4519,-0.4519,-0.4519,-0.4519,-0.4519,-0.4519,-0.4519,-0.4519,-0.4519,-0.4519,-0.4519,-0.4525,-0.4565,-0.4606,-0.4613,-0.4707,-0.4687,-0.4606,-0.4606,-0.4545,-0.4463,-0.4356,-0.419,-0.4024,-0.3519,-0.3006,-0.2423,-0.1618,-0.1055,-0.0596,-0.0179,-0.0061,0.0,0.0,0.0,0.0,0.0,0.0,0.0,0.0,0.0,0.0,0.0,0.0,0.0,0.0,0.0,0.0,0.0,0.0,0.0075,0.0373,0.0448,0.052,0.073,0.0729,0.066,0.0745,0.0448,0.03,0.0305,0.0077,0.0,0.0,0.0,0.0,0.0,0.0157,0.0393,0.0471,0.1021,0.157,0.2117,0.2899,0.3759,0.4701,0.5326,0.587,0.6335,0.62,0.6173,0.6169,0.6112,0.603,0.5942,0.5942,0.5884,0.58,0.58,0.58,0.58,-0.776,-0.7166,-0.68,-0.66,-0.6393,-0.6338,-0.6338,-0.6338,-0.6207,-0.6051,-0.5986,-0.5864,-0.5616,-0.5549,-0.5477,-0.5435,-0.5428,-0.5318,-0.5209,-0.5159,-0.4952,-0.4551,-0.4543,-0.4519,-0.4519,-0.4519,-0.4519,-0.4519,-0.4519,-0.4519,-0.4519,-0.4519,-0.4543,-0.4591,-0.4591,-0.4562,-0.4613,-0.4718,-0.4762,-0.4772,-0.4877,-0.4857,-0.4762,-0.4762,-0.4697,-0.4606,-0.4381,-0.4209,-0.3978,-0.3345,-0.2753,-0.215,-0.1316,-0.0789,-0.0433,-0.0125,0.0,0.0,0.0,0.0,0.0,0.0,0.0,0.0,0.0,0.0,0.0,0.0,0.0,0.0,0.0,0.0,0.0,0.0,0.0,0.0077,0.0306,0.0306,0.0381,0.0524,0.0448,0.0451,0.0535,0.0306,0.0231,0.0235,0.0079,0.0,0.0,0.0,0.0,0.0,0.0157,0.0394,0.0635,0.1183,0.1806,0.2275,0.3056,0.3915,0.4776,0.5323,0.587,0.6338,0.6338,0.6338,0.6338,0.6338,0.62,0.6101,0.6101,0.6037,0.5945,0.5945,0.5945,0.5945,-0.8819,-0.7327,-0.6338,-0.6338,-0.6338,-0.6338,-0.6338,-0.6338,-0.6207,-0.6051,-0.5895,-0.5745,-0.5606,-0.5454,-0.5428,-0.5428,-0.5428,-0.5428,-0.5428,-0.5216,-0.4999,-0.4707,-0.4548,-0.4522,-0.4522,-0.4519,-0.4519,-0.4519,-0.4519,-0.4519,-0.4519,-0.4519,-0.4601,-0.4691,-0.4694,-0.4775,-0.4918,-0.4921,-0.4921,-0.4921,-0.4921,-0.4921,-0.4921,-0.4921,-0.4921,-0.4857,-0.4668,-0.4424,-0.4061,-0.3324,-0.2586,-0.1788,-0.1112,-0.0494,0.0,0.0,0.0,0.0,0.0,0.0,0.0,0.0,0.0,0.0,0.0,0.0,0.0,0.0,0.0,0.0,0.0,0.0,0.0,0.0,0.0,0.0079,0.0236,0.0314,0.0393,0.055,0.0393,0.0314,0.0314,0.0079,0.0,0.0,0.0,0.0,0.0,0.0,0.0,0.0,0.0157,0.0397,0.0732,0.1114,0.1728,0.2511,0.3136,0.3992,0.5004,0.5401,0.587,0.6338,0.6338,0.6338,0.6338,0.6338,0.6338,0.6338,0.6338,0.6338,0.6338,0.6338,0.6338,0.6338,-0.8145,-0.701,-0.6338,-0.6338,-0.6338,-0.6338,-0.6338,-0.6338,-0.6207,-0.6051,-0.5895,-0.5745,-0.5606,-0.5454,-0.5428,-0.5428,-0.5428,-0.5428,-0.5428,-0.5216,-0.5091,-0.5003,-0.486,-0.4782,-0.4782,-0.4677,-0.4623,-0.4623,-0.457,-0.4519,-0.4519,-0.4572,-0.4646,-0.4697,-0.4802,-0.4877,-0.4925,-0.5023,-0.5067,-0.5077,-0.5186,-0.5165,-0.5067,-0.5067,-0.5006,-0.4857,-0.4543,-0.4177,-0.375,-0.3075,-0.2309,-0.1468,-0.0718,-0.0263,0.0,0.0,0.0,0.0,0.0,0.0,0.0,0.0,0.0,0.0,0.0,0.0,0.0,0.0,0.0,0.0,0.0,0.0,0.0,0.0,0.0,0.0,0.0079,0.0079,0.0079,0.0157,0.0157,0.0079,0.008,0.0,0.0,0.0,0.0,0.0,0.0,0.0,0.0,0.0,0.0079,0.0318,0.0732,0.1273,0.19,0.2574,0.3319,0.4151,0.5004,0.5401,0.587,0.6338,0.6338,0.6338,0.6338,0.6338,0.6338,0.6338,0.6338,0.6338,0.6338,0.6338,0.6338,0.6338,-0.7857,-0.6872,-0.6338,-0.6338,-0.6338,-0.6338,-0.6338,-0.6338,-0.6207,-0.6051,-0.5949,-0.5837,-0.5691,-0.5589,-0.5535,-0.5535,-0.5535,-0.5511,-0.5457,-0.5365,-0.5284,-0.5223,-0.5142,-0.504,-0.4921,-0.4826,-0.4779,-0.4779,-0.4687,-0.4643,-0.4646,-0.4738,-0.4809,-0.4867,-0.4962,-0.5036,-0.5101,-0.5186,-0.522,-0.523,-0.5325,-0.5304,-0.522,-0.522,-0.5169,-0.5031,-0.4709,-0.4264,-0.3695,-0.2931,-0.2001,-0.0987,-0.0402,-0.0067,0.0,0.0,0.0,0.0,0.0,0.0,0.0,0.0,0.0,0.0,0.0,0.0,0.0,0.0,0.0,0.0,0.0,0.0,0.0,0.0,0.0,0.0,0.0,0.0,0.0,0.0,0.0,0.0,0.0,0.0,0.0,0.0,0.0,0.0,0.0,0.0,0.0,0.0,0.0,0.0161,0.0577,0.0977,0.17,0.2601,0.3282,0.4032,0.4929,0.5321,0.5712,0.618,0.6261,0.6338,0.6338,0.6338,0.6338,0.6338,0.6338,0.6295,0.6342,0.6342,0.6342,0.6342,-0.7807,-0.681,-0.6338,-0.6338,-0.6338,-0.6338,-0.6338,-0.6338,-0.621,-0.6067,-0.6037,-0.5976,-0.5837,-0.581,-0.58,-0.58,-0.58,-0.5745,-0.5616,-0.5596,-0.5528,-0.5456,-0.5435,-0.5237,-0.4965,-0.4945,-0.4938,-0.4938,-0.4925,-0.4918,-0.4918,-0.4931,-0.5006,-0.5131,-0.5145,-0.523,-0.5428,-0.5428,-0.5428,-0.5428,-0.5428,-0.5428,-0.5428,-0.5428,-0.5428,-0.5362,-0.4964,-0.4428,-0.3825,-0.2887,-0.1614,-0.0404,-0.0135,0.0,0.0,0.0,0.0,0.0,0.0,0.0,0.0,0.0,0.0,0.0,0.0,0.0,0.0,0.0,0.0,0.0,0.0,0.0,0.0,0.0,0.0,0.0,0.0,0.0,0.0,0.0,0.0,0.0,0.0,0.0,0.0,0.0,0.0,0.0,0.0,0.0,0.0,0.0,0.0,0.0165,0.0422,0.0507,0.1252,0.2528,0.2925,0.3687,0.4698,0.5087,0.555,0.5941,0.618,0.6338,0.6338,0.6338,0.6345,0.6281,0.6281,0.6366,0.6491,0.6491,0.6491,0.6491,-0.7303,-0.6681,-0.6338,-0.6338,-0.6338,-0.6338,-0.6338,-0.6338,-0.6247,-0.6213,-0.6105,-0.6017,-0.5983,-0.5874,-0.58,-0.58,-0.58,-0.5789,-0.5755,-0.565,-0.5576,-0.5542,-0.5423,-0.5397,-0.5267,-0.5145,-0.5084,-0.5084,-0.4972,-0.4918,-0.4921,-0.5033,-0.5101,-0.5135,-0.5257,-0.5328,-0.5428,-0.5428,-0.5428,-0.5428,-0.5428,-0.5428,-0.5428,-0.5428,-0.5428,-0.5362,-0.4827,-0.4292,-0.3625,-0.2014,-0.0942,-0.027,-0.0067,0.0,0.0,0.0,0.0,0.0,0.0,0.0,0.0,0.0,0.0,0.0,0.0,0.0,0.0,0.0,0.0,0.0,0.0,0.0,0.0,0.0,0.0,0.0,0.0,0.0,0.0,0.0,0.0,0.0,0.0,0.0,0.0,0.0,0.0,0.0,0.0,0.0,0.0,0.0,0.0,0.0166,0.0432,0.0432,0.094,0.1836,0.2537,0.3363,0.4226,0.5007,0.555,0.5941,0.618,0.6338,0.6338,0.6338,0.6325,0.6427,0.6427,0.6519,0.6651,0.6651,0.6651,0.6634,-0.7,-0.6537,-0.6338,-0.6338,-0.6338,-0.6338,-0.6338,-0.6338,-0.6338,-0.6338,-0.619,-0.6139,-0.6139,-0.6067,-0.602,-0.602,-0.602,-0.5989,-0.5915,-0.5772,-0.5661,-0.5593,-0.5443,-0.5428,-0.5428,-0.5281,-0.524,-0.524,-0.5165,-0.5128,-0.5131,-0.5206,-0.524,-0.5243,-0.5325,-0.5428,-0.5428,-0.5428,-0.5428,-0.5428,-0.5428,-0.5428,-0.5428,-0.5428,-0.5428,-0.5362,-0.4761,-0.3887,-0.2817,-0.1545,-0.074,-0.027,-0.0067,0.0,0.0,0.0,0.0,0.0,0.0,0.0,0.0,0.0,0.0,0.0,0.0,0.0,0.0,0.0,0.0,0.0,0.0,0.0,0.0,0.0,0.0,0.0,0.0,0.0,0.0,0.0,0.0,0.0,0.0,0.0,0.0,0.0,0.0,0.0,0.0,0.0,0.0,0.0,0.0,0.0085,0.0174,0.0176,0.0525,0.1196,0.2087,0.2935,0.382,0.4719,0.5395,0.5789,0.618,0.6338,0.6345,0.6332,0.6407,0.6478,0.6552,0.6675,0.681,0.681,0.681,0.6776,-0.6861,-0.6542,-0.6302,-0.6345,-0.6338,-0.6338,-0.6338,-0.6281,-0.6288,-0.6264,-0.6281,-0.6288,-0.6342,-0.6338,-0.6338,-0.6338,-0.6338,-0.6207,-0.6078,-0.5925,-0.5776,-0.5633,-0.5481,-0.5456,-0.5428,-0.5456,-0.5456,-0.5428,-0.5428,-0.5428,-0.5428,-0.5428,-0.5428,-0.5428,-0.5428,-0.5428,-0.5428,-0.5428,-0.5428,-0.5428,-0.5428,-0.5428,-0.5428,-0.5428,-0.5362,-0.5292,-0.4758,-0.3485,-0.1946,-0.1276,-0.0673,-0.0202,-0.0068,0.0,0.0,0.0,0.0,0.0,0.0,0.0,0.0,0.0,0.0,0.0,0.0,0.0,0.0,0.0,0.0,0.0,0.0,0.0,0.0,0.0,0.0,0.0,0.0,0.0,0.0,0.0,0.0,0.0,0.0,0.0,0.0,0.0,0.0,0.0,0.0,0.0,0.0,0.0,0.0,0.0,0.0,0.0,0.0267,0.07,0.1703,0.2575,0.3487,0.4508,0.524,0.5637,0.6106,0.6338,0.6349,0.6386,0.6464,0.6522,0.6651,0.681,0.6966,0.6966,0.6949,0.6888,-0.6773,-0.661,-0.6464,-0.6369,-0.6338,-0.6338,-0.6338,-0.6366,-0.64,-0.6278,-0.6369,-0.6396,-0.6274,-0.6338,-0.6338,-0.6338,-0.6338,-0.6251,-0.623,-0.6084,-0.5932,-0.5779,-0.5637,-0.5498,-0.5432,-0.5491,-0.5494,-0.5428,-0.5428,-0.5428,-0.5428,-0.5428,-0.5428,-0.5428,-0.5428,-0.5428,-0.5428,-0.5428,-0.5428,-0.5428,-0.5428,-0.5428,-0.5428,-0.5428,-0.5292,-0.5087,-0.4556,-0.3218,-0.1614,-0.1008,-0.0471,-0.0068,0.0,0.0,0.0,0.0,0.0,0.0,0.0,0.0,0.0,0.0,0.0,0.0,0.0,0.0,0.0,0.0,0.0,0.0,0.0,0.0,0.0,0.0,0.0,0.0,0.0,0.0,0.0,0.0,0.0,0.0,0.0,0.0,0.0,0.0,0.0,0.0,0.0,0.0,0.0,0.0,0.0,0.0,0.0,0.0,0.0269,0.0714,0.1544,0.2408,0.3243,0.4427,0.524,0.5637,0.6106,0.6338,0.6264,0.6281,0.6441,0.6671,0.6692,0.6868,0.7112,0.7112,0.7034,0.6905,-0.6759,-0.6668,-0.6559,-0.6305,-0.6338,-0.6288,-0.6366,-0.643,-0.6481,-0.6505,-0.6563,-0.6542,-0.6393,-0.6308,-0.6338,-0.6338,-0.6338,-0.6338,-0.6338,-0.6115,-0.6,-0.5932,-0.5786,-0.5677,-0.5606,-0.5674,-0.5674,-0.5606,-0.5606,-0.5606,-0.5606,-0.5528,-0.5491,-0.5484,-0.5399,-0.541,-0.5491,-0.5491,-0.5491,-0.5491,-0.5491,-0.5369,-0.5223,-0.5223,-0.509,-0.47,-0.3891,-0.2705,-0.1408,-0.0985,-0.0493,0.0,0.0,0.0,0.0,0.0,0.0,0.0,0.0,0.0,0.0,0.0,0.0,0.0,0.0,0.0,0.0,0.0,0.0,0.0,0.0,0.0,0.0,0.0,0.0,0.0,0.0,0.0,0.0,0.0,0.0,0.0,0.0,0.0,0.0,0.0,0.0,0.0,0.0,0.0,0.0,0.0,0.0,0.0,0.0,0.0,0.0269,0.0717,0.1565,0.2369,0.3222,0.4453,0.524,0.5637,0.6106,0.6338,0.6345,0.6346,0.6505,0.6709,0.6797,0.6956,0.7139,0.7139,0.7102,0.7014]},{"header":{"parameterUnit":"m.s-1","parameterCategory":1,"la1":30.6,"la2":28.766,"lo1":-90.7593,"lo2":-88.6598,"dy":0.0162,"dx":0.0183,"nx":116,"ny":114,"refTime":"2023-10-08T12:00:00:Z","depth":0,"parameterNumber":3,"parameterNumberName":"V-component_of_WINDS"},"data":[0.0,0.0,0.0,0.0,0.0,0.0,0.0,0.0,0.0,0.0,0.0,0.0,0.0,0.0,0.0,0.0,0.0,0.0,0.0,0.0,0.0,0.0,0.0,0.0,0.0,0.0,0.0,0.0,0.0,0.0,0.0,0.0,0.0,0.0,0.0,0.0,0.0,0.0,0.0,0.0,0.0,0.0,0.0,0.0,0.0,0.0,0.0,0.0,0.0,0.0,0.0,0.0,0.0,0.0,0.0,0.0,0.0,0.0,0.0,0.0,0.0,0.0,0.0,0.0,0.0,0.0,0.0,0.0,0.0,0.0,0.0,0.0,0.0,0.0,0.0,0.0,0.0,0.0,0.0,0.0,0.0,0.0,0.0,0.0,0.0,0.0,0.0,0.0,0.0,0.0,0.0,0.0,0.0,0.0,0.0,0.0,0.0,0.0,0.0,0.0,0.0,0.0,0.0,0.0,0.0,0.0,0.0,0.0,0.0,0.0,0.0,0.0,0.0,0.0,0.0,0.0,0.0,0.0,0.0,0.0,0.0,0.0,0.0,0.0,0.0,0.0,0.0,0.0,0.0,0.0,0.0,0.0,0.0,0.0,0.0,0.0,0.0,0.0,0.0,0.0,0.0,0.0,0.0,0.0,0.0,0.0,0.0,0.0,0.0,0.0,0.0,0.0,0.0,0.0,0.0,0.0,0.0,0.0,0.0,0.0,0.0,0.0,0.0,0.0,0.0,0.0,0.0,0.0,0.0,0.0,0.0,0.0,0.0,0.0,0.0,0.0,0.0,0.0,0.0,0.0,0.0,0.0,0.0,0.0,0.0,0.0,0.0,0.0,0.0,0.0,0.0,0.0,0.0,0.0,0.0,0.0,0.0,0.0,0.0,0.0,0.0,0.0,0.0,0.0,0.0,0.0,0.0,0.0,0.0,0.0,0.0,0.0,0.0,0.0,0.0,0.0,0.0,0.0,0.0,0.0,0.0,0.0,0.0,0.0,0.0,0.0,0.0,0.0,0.0,0.0,0.0,0.0,0.0,0.0,0.0,0.0,0.0,0.0,0.0,0.0,0.0,0.0,0.0,0.0,0.0,0.0,0.0,0.0,0.0,0.0,0.0,0.0,0.0,0.0,0.0,0.0,0.0,0.0,0.0,0.0,0.0,0.0,0.0,0.0,0.0,0.0,0.0,0.0,0.0,0.0,0.0,0.0,0.0,0.0,0.0,0.0,0.0,0.0,0.0,0.0,0.0,0.0,0.0,0.0,0.0,0.0,0.0,0.0,0.0,0.0,0.0,0.0,0.0,0.0,0.0,0.0,0.0,0.0,0.0,0.0,0.0,0.0,0.0,0.0,0.0,0.0,0.0,0.0,0.0,0.0,0.0,0.0,0.0,0.0,0.0,0.0,0.0,0.0,0.0,0.0,0.0,0.0,0.0,0.0,0.0,0.0,0.0,0.0,0.0,0.0,0.0,0.0,0.0,0.0,0.0,0.0,0.0,0.0,0.0,0.0,0.0,0.0,0.0,0.0,0.0,0.0,0.0,0.0,0.0,0.0,0.0,0.0,0.0,0.0,0.0,0.0,0.0,0.0,0.0,0.0,0.0,0.0,0.0,0.0,0.0,0.0,0.0,0.0,0.0,0.0,0.0,0.0,0.0,0.0,0.0,0.0,0.0,0.0,0.0,0.0,0.0,0.0,0.0,0.0,0.0,0.0,0.0,0.0,0.0,0.0,0.0,0.0,0.0,0.0,0.0,0.0,0.0,0.0,0.0,0.0,0.0,0.0,0.0,0.0,0.0,0.0,0.0,0.0,0.0,0.0,0.0,0.0,0.0,0.0,0.0,0.0,0.0,0.0,0.0,0.0,0.0,0.0,0.0,0.0,0.0,0.0,0.0,0.0,0.0,0.0,0.0,0.0,0.0,0.0,0.0,0.0,0.0,0.0,0.0,0.0,0.0,0.0,0.0,0.0,0.0,0.0,0.0,0.0,0.0,0.0,0.0,0.0,0.0,0.0,0.0,0.0,0.0,0.0,0.0,0.0,0.0,0.0,0.0,0.0,0.0,0.0,0.0,0.0,0.0,0.0,0.0,0.0,0.0,0.0,0.0,0.0,0.0,0.0,0.0,0.0,0.0,0.0,0.0,0.0,0.0,0.0,0.0,0.0,0.0,0.0,0.0,0.0,0.0,0.0,0.0,0.0,0.0,0.0,0.0,0.0,0.0,0.0,0.0,0.0,0.0,0.0,0.0,0.0,0.0,0.0,0.0,0.0,0.0,0.0,0.0,0.0,0.0,0.0,0.0,0.0,0.0,0.0,0.0,0.0,0.0,0.0,0.0,0.0,0.0,0.0,0.0,0.0,0.0,0.0,0.0,0.0,0.0,0.0,0.0,0.0,0.0,0.0,0.0,0.0,0.0,0.0,0.0,0.0,0.0,0.0,0.0,0.0,0.0,0.0,0.0,0.0,0.0,0.0,0.0,0.0,0.0,0.0,0.0,0.0,0.0,0.0,0.0,0.0,0.0,0.0,0.0,0.0,0.0,0.0,0.0,0.0,0.0,0.0,0.0,0.0,0.0,0.0,0.0,0.0,0.0,0.0,0.0,0.0,0.0,0.0,0.0,0.0,0.0,0.0,0.0,0.0,0.0,0.0,0.0,0.0,0.0,0.0,0.0,0.0,0.0,0.0,0.0,0.0,0.0,0.0,0.0,0.0,0.0,0.0,0.0,0.0,0.0,0.0,0.0,0.0,0.0,0.0,0.0,0.0,0.0,0.0,0.0,0.0,0.0,0.0,0.0,0.0,0.0,0.0,0.0,0.0,0.0,0.0,0.0,0.0,0.0,0.0,0.0,0.0,0.0,0.0,0.0,0.0,0.0,0.0,0.0,0.0,0.0,0.0,0.0,0.0,0.0,0.0,0.0,0.0,0.0,0.0,0.0,0.0,0.0,0.0,0.0,0.0,0.0,0.0,0.0,0.0,0.0,0.0,0.0,0.0,0.0,0.0,0.0,0.0,0.0,0.0,0.0,0.0,0.0,0.0,0.0,0.0,0.0,0.0,0.0,0.0,0.0,0.0,0.0,0.0,0.0,0.0,0.0,0.0,0.0,0.0,0.0,0.0,0.0,0.0,0.0,0.0,0.0,0.0,0.0,0.0,0.0,0.0,0.0,0.0,0.0,0.0,0.0,0.0,0.0,0.0,0.0,0.0,0.0,0.0,0.0,0.0,0.0,0.0,0.0,0.0,0.0,0.0,0.0,0.0,0.0,0.0,0.0,0.0,0.0,0.0,0.0,0.0,0.0,0.0,0.0,0.0,0.0,0.0,0.0,0.0,0.0,0.0,0.0,0.0,0.0,0.0,0.0,0.0,0.0,0.0,0.0,0.0,0.0,0.0,0.0,0.0,0.0,0.0,0.0,0.0,0.0,0.0,0.0,0.0,0.0,0.0,0.0,0.0,0.0,0.0,0.0,0.0,0.0,0.0,0.0,0.0,0.0,0.0,0.0,0.0,0.0,0.0,0.0,0.0,0.0,0.0,0.0,0.0,0.0,0.0,0.0,0.0,0.0,0.0,0.0,0.0,0.0,0.0,0.0,0.0,0.0,0.0,0.0,0.0,0.0,0.0,0.0,0.0,0.0,0.0,0.0,0.0,0.0,0.0,0.0,0.0,0.0,0.0,0.0,0.0,0.0,0.0,0.0,0.0,0.0,0.0,0.0,0.0,0.0,0.0,0.0,0.0,0.0,0.0,0.0,0.0,0.0,0.0,0.0,0.0,0.0,0.0,0.0,0.0,0.0,0.0,0.0,0.0,0.0,0.0,0.0,0.0,0.0,0.0,0.0,0.0,0.0,0.0,0.0,0.0,0.0,0.0,0.0,0.0,0.0,0.0,0.0,0.0,0.0,0.0,0.0,0.0,0.0,0.0,0.0,0.0,0.0,0.0,0.0,0.0,0.0,0.0,0.0,0.0,0.0,0.0,0.0,0.0,0.0,0.0,0.0,0.0,0.0,0.0,0.0,0.0,0.0,0.0,0.0,0.0,0.0,0.0,0.0,0.0,0.0,0.0,0.0,0.0,0.0,0.0,0.0,0.0,0.0,0.0,0.0,0.0,0.0,0.0,0.0,0.0,0.0,0.0,0.0,0.0,0.0,0.0,0.0,0.0,0.0,0.0,0.0,0.0,0.0,0.0,0.0,0.0,0.0,0.0,0.0,0.0,0.0,0.0,0.0,0.0,0.0,0.0,0.0,0.0,0.0,0.0,0.0,0.0,0.0,0.0,0.0,0.0,0.0,0.0,0.0,0.0,0.0,0.0,0.0,0.0,0.0,0.0,0.0,0.0,0.0,0.0,0.0,0.0,0.0,0.0,0.0,0.0,0.0,0.0,0.0,0.0,0.0,0.0,0.0,0.0,0.0,0.0,0.0,0.0,0.0,0.0,0.0,0.0,0.0,0.0,0.0,0.0,0.0,0.0,0.0,0.0,0.0,0.0,0.0,0.0,0.0,0.0,0.0,0.0,0.0,0.0,0.0,0.0,0.0,0.0,0.0,0.0,0.0,0.0,0.0,0.0,0.0,0.0,0.0,0.0,0.0,0.0,0.0,0.0,0.0,0.0,0.0,0.0,0.0,0.0,0.0,0.0,0.0,0.0,0.0,0.0,0.0,0.0,0.0,0.0,0.0,0.0,0.0,0.0,0.0,0.0,0.0,0.0,0.0,0.0,0.0,0.0,0.0,0.0,0.0,0.0,0.0,0.0,0.0,0.0,0.0,0.0,0.0,0.0,0.0,0.0,0.0,0.0,0.0,0.0,0.0,0.0,0.0,0.0,0.0,0.0,0.0,0.0,0.0,0.0,0.0,0.0,0.0,0.0,0.0,0.0,0.0,0.0,0.0,0.0,0.0,0.0,0.0,0.0,0.0,0.0,0.0,0.0,0.0,0.0,0.0,0.0,0.0,0.0,0.0,0.0,0.0,0.0,0.0,0.0,0.0,0.0,0.0,0.0,0.0,0.0,0.0,0.0,0.0,0.0,0.0,0.0,0.0,0.0,0.0,0.0,0.0,0.0,0.0,0.0,0.0,0.0,0.0,0.0,0.0,0.0,0.0,0.0,0.0,0.0,0.0,0.0,0.0,0.0,0.0,0.0,0.0,0.0,0.0,0.0,0.0,0.0,0.0,0.0,0.0,0.0,0.0,0.0,0.0,0.0,0.0,0.0,0.0,0.0,0.0,0.0,0.0,0.0,0.0,0.0,0.0,0.0,0.0,0.0,0.0,0.0,0.0,0.0,0.0,0.0,0.0,0.0,0.0,0.0,0.0,0.0,0.0,0.0,0.0,0.0,0.0,0.0,0.0,0.0,0.0,0.0,0.0,0.0,0.0,0.0,0.0,0.0,0.0,0.0,0.0,0.0,0.0,0.0,0.0,0.0,0.0,0.0,0.0,0.0,0.0,0.0,0.0,0.0,0.0,0.0,0.0,0.0,0.0,0.0,0.0,0.0,0.0,0.0,0.0,0.0,0.0,0.0,0.0,0.0,0.0,0.0,0.0,0.0,0.0,0.0,0.0,0.0,0.0,0.0,0.0,0.0,0.0,0.0,0.0,0.0,0.0,0.0,0.0,0.0,0.0,0.0,0.0,0.0,0.0,0.0,0.0,0.0,0.0,0.0,0.0,0.0,0.0,0.0,0.0,0.0,0.0,0.0,0.0,0.0,0.0,0.0,0.0,0.0,0.0,0.0,0.0,0.0,0.0,0.0,0.0,0.0,0.0,0.0,0.0,0.0,0.0,0.0,0.0,0.0,0.0,0.0,0.0,0.0,0.0,0.0,0.0,0.0,0.0,0.0,0.0,0.0,0.0,0.0,0.0,0.0,0.0,0.0,0.0,0.0,0.0,0.0,0.0,0.0,0.0,0.0,0.0,0.0,0.0,0.0,0.0,0.0,0.0,0.0,0.0,0.0,0.0,0.0,0.0,0.0,0.0,0.0,0.0,0.0,0.0,0.0,0.0,0.0,0.0,0.0,0.0,0.0,0.0,0.0,0.0,0.0,0.0,0.0,0.0,0.0,0.0,0.0,0.0,0.0,0.0,0.0,0.0,0.0,0.0,0.0,-1.5952,-1.5363,0.0,0.0,0.0,0.0,0.0,0.0,0.0,0.0,0.0,0.0,0.0,0.0,0.0,0.0,0.0,0.0,0.0,0.0,0.0,0.0,0.0,0.0,0.0,0.0,0.0,0.0,0.0,0.0,0.0,0.0,0.0,0.0,0.0,0.0,0.0,0.0,0.0,0.0,0.0,0.0,0.0,0.0,0.0,0.0,0.0,0.0,0.0,0.0,0.0,0.0,0.0,0.0,0.0,0.0,0.0,0.0,0.0,0.0,0.0,0.0,0.0,0.0,0.0,0.0,0.0,0.0,0.0,0.0,0.0,0.0,0.0,0.0,0.0,0.0,0.0,0.0,0.0,0.0,0.0,0.0,0.0,0.0,0.0,0.0,0.0,0.0,0.0,0.0,0.0,0.0,0.0,0.0,0.0,0.0,0.0,0.0,0.0,0.0,0.0,0.0,0.0,0.0,0.0,0.0,0.0,0.0,0.0,0.0,0.0,0.0,0.0,0.0,0.0,0.0,-1.6895,-1.6527,0.0,0.0,0.0,0.0,0.0,0.0,0.0,0.0,0.0,0.0,0.0,0.0,0.0,0.0,0.0,0.0,0.0,0.0,0.0,0.0,0.0,0.0,0.0,0.0,0.0,0.0,0.0,0.0,0.0,0.0,0.0,0.0,0.0,0.0,0.0,0.0,0.0,0.0,0.0,0.0,0.0,0.0,0.0,0.0,0.0,0.0,0.0,0.0,0.0,0.0,0.0,0.0,0.0,0.0,0.0,0.0,0.0,0.0,0.0,0.0,0.0,0.0,0.0,0.0,0.0,0.0,0.0,0.0,0.0,0.0,0.0,0.0,0.0,0.0,0.0,0.0,0.0,0.0,0.0,0.0,0.0,0.0,0.0,0.0,0.0,0.0,0.0,0.0,0.0,0.0,0.0,0.0,0.0,0.0,0.0,0.0,0.0,0.0,0.0,0.0,0.0,0.0,0.0,0.0,0.0,0.0,0.0,0.0,-1.7298,-1.7711,-1.7865,-1.7872,-1.7922,-1.801,-1.8112,-1.7979,-1.7689,-1.7826,0.0,0.0,0.0,0.0,0.0,0.0,0.0,0.0,0.0,0.0,0.0,0.0,0.0,0.0,0.0,0.0,0.0,0.0,0.0,0.0,0.0,0.0,0.0,0.0,0.0,0.0,0.0,0.0,0.0,0.0,0.0,0.0,0.0,0.0,0.0,0.0,0.0,0.0,-0.5119,-0.5698,-0.6402,-0.724,-0.8568,0.0,0.0,0.0,0.0,0.0,0.0,0.0,0.0,0.0,0.0,0.0,0.0,0.0,0.0,0.0,0.0,0.0,0.0,0.0,0.0,0.0,0.0,0.0,0.0,0.0,0.0,0.0,0.0,0.0,0.0,0.0,0.0,0.0,0.0,0.0,0.0,0.0,0.0,0.0,0.0,0.0,0.0,0.0,-1.5284,-1.5279,0.0,0.0,0.0,0.0,0.0,0.0,0.0,0.0,0.0,0.0,0.0,0.0,0.0,-1.6221,-1.6162,-1.6905,-1.7272,-1.7263,-1.733,-1.7746,-1.8476,-1.8544,-1.8934,-1.9595,-1.9608,0.0,-1.7663,-1.8363,0.0,0.0,0.0,0.0,0.0,0.0,0.0,0.0,0.0,0.0,0.0,0.0,0.0,0.0,0.0,0.0,0.0,0.0,0.0,0.0,0.0,0.0,0.0,0.0,0.0,0.0,0.0,0.0,0.0,0.0,0.0,0.0,0.0,0.0,0.0,0.0,-0.4242,-0.4564,-0.4953,-0.5358,-0.5948,-0.6658,-0.7679,-0.8593,-0.9402,-0.9732,0.0,0.0,0.0,0.0,0.0,0.0,0.0,0.0,0.0,0.0,0.0,0.0,0.0,0.0,0.0,0.0,0.0,0.0,0.0,0.0,0.0,0.0,0.0,0.0,0.0,0.0,0.0,0.0,0.0,0.0,0.0,0.0,0.0,0.0,0.0,0.0,0.0,0.0,0.0,-1.558,-1.5362,-1.5368,-1.5351,-1.5344,0.0,0.0,0.0,0.0,0.0,0.0,0.0,0.0,0.0,-1.5746,-1.6109,-1.6464,-1.6857,-1.7631,-1.8022,-1.8012,-1.8448,-1.8861,-1.9273,-1.9273,-1.9442,-1.98,-1.9744,-1.935,-1.8764,-1.9198,-1.9337,-1.9341,0.0,0.0,0.0,0.0,-1.9499,-1.9357,0.0,0.0,0.0,0.0,0.0,0.0,0.0,0.0,0.0,0.0,0.0,0.0,0.0,0.0,0.0,0.0269,0.0,0.0,0.0,0.0,0.0,0.0,0.0,0.0,0.0,0.0,0.0,-0.3826,-0.4118,-0.4473,-0.489,-0.5232,-0.5703,-0.6261,-0.6997,-0.7997,-0.9131,-0.9381,-0.9818,0.0,0.0,0.0,0.0,0.0,0.0,0.0,0.0,0.0,0.0,0.0,0.0,0.0,0.0,0.0,0.0,0.0,0.0,0.0,0.0,0.0,0.0,0.0,0.0,0.0,0.0,0.0,0.0,0.0,0.0,0.0,0.0,0.0,0.0,0.0,0.0,0.0,0.0,-1.5391,-1.5367,-1.5376,-1.5319,-1.5274,0.0,0.0,0.0,0.0,0.0,0.0,-1.5414,-1.5289,-1.5578,-1.6394,-1.6601,-1.6972,-1.7554,-1.8335,-1.8721,-1.8746,-1.9343,-1.9636,-1.9668,-1.9623,-1.9591,-1.9577,-1.9509,-1.9499,-1.9485,-1.9673,-1.9718,-1.9679,-1.9647,-1.9601,-1.9541,-1.9442,-1.9292,-1.9119,0.0,0.0,0.0,0.0,0.0,0.0,0.0,0.0,0.0,0.0,0.0,0.0,0.0,0.0,0.1274,0.0537,0.0101,-0.0437,0.0,0.0,0.0,0.0,0.0,0.0,0.0,0.0,0.0,-0.3597,-0.4016,-0.4409,-0.4806,-0.5201,-0.5609,-0.6036,-0.6795,-0.7669,-0.8674,-0.9257,-0.9818,-1.0283,0.0,0.0,0.0,0.0,0.0,0.0,0.0,0.0,0.0,0.0,0.0,0.0,0.0,0.0,0.0,0.0,0.0,0.0,0.0,0.0,0.0,0.0,0.0,0.0,0.0,0.0,0.0,0.0,0.0,0.0,0.0,0.0,0.0,0.0,0.0,0.0,0.0,0.0,0.0,-1.5316,-1.5248,0.0,0.0,0.0,0.0,-1.5101,-1.498,-1.5256,-1.5998,-1.5857,-1.6168,-1.7027,-1.7736,-1.8162,-1.8247,-1.899,-1.935,-1.9368,-1.9398,-1.9387,-1.932,-1.932,-1.9289,-1.9225,-1.9225,-1.9178,-1.9148,-1.9479,-1.9615,-1.9583,-1.9456,-1.9409,-1.9394,-1.9178,-1.9084,-1.8966,0.0,0.0,0.0,0.0,0.0,0.0,0.0,0.0,0.0,0.0,0.0,0.0,0.0,0.2121,0.1626,0.0953,0.0495,-0.0105,-0.0843,0.0,0.0,0.0,0.0,0.0,0.0,0.0,-0.3405,-0.3793,-0.421,-0.4564,-0.4934,-0.5302,-0.571,-0.623,-0.6965,-0.777,-0.8646,-0.9185,-0.9752,-1.0283,-1.0283,-1.0361,0.0,0.0,0.0,0.0,0.0,0.0,0.0,0.0,0.0,0.0,0.0,0.0,0.0,0.0,0.0,0.0,0.0,0.0,0.0,0.0,0.0,0.0,0.0,0.0,0.0,0.0,0.0,0.0,0.0,0.0,0.0,0.0,0.0,0.0,0.0,0.0,0.0,-1.5182,-1.5107,0.0,-1.5073,-1.5011,-1.4954,-1.4914,-1.5254,-1.5594,-1.5837,-1.6145,-1.6712,-1.7591,-1.7877,-1.8279,-1.8804,-1.9081,-1.9212,-1.9212,-1.92,-1.92,-1.918,-1.9134,-1.9084,-1.9067,-1.9033,-1.8981,-1.8982,-1.9099,-1.92,-1.9321,-1.9764,-1.9878,-1.99,-2.03,-2.0346,-2.0187,0.0,0.0,0.0,0.0,0.0,0.0,0.0,0.0,0.0,0.0,0.0,0.3243,0.299,0.2504,0.1963,0.1416,0.0873,0.0285,-0.0371,0.0,0.0,0.0,0.0,0.0,0.0,-0.3098,-0.347,-0.3923,-0.4307,-0.4686,-0.5049,-0.5428,-0.5842,-0.633,-0.7221,-0.7986,-0.8655,-0.9336,-0.9877,-1.0283,-1.0283,-1.0351,-1.0418,0.0,0.0,0.0,0.0,0.0,0.0,0.0,0.0,0.0,0.0,0.0,0.0,0.0,0.0,0.0,0.0,0.0,0.0,0.0,0.0,0.0,0.0,0.0,0.0,0.0,0.0,0.0,0.0,0.0,0.0,0.0,0.0,0.0,0.0,-1.5226,-1.5138,-1.5075,-1.4985,-1.4923,-1.4919,-1.4876,-1.4926,-1.512,-1.5473,-1.5876,-1.6351,-1.6676,-1.7263,-1.8118,-1.8139,-1.8408,-1.8982,-1.9,-1.9,-1.9,-1.9001,-1.8966,-1.8895,-1.8843,-1.8825,-1.8807,-1.8752,-1.8734,-1.8753,-1.8734,-1.8789,-1.895,-1.9776,-2.0064,-2.0115,-2.0782,-2.0937,-2.0767,0.0,0.0,0.0,0.0,0.0,0.0,0.0,0.0,0.0,0.0,0.3858,0.3613,0.3527,0.2861,0.2285,0.1967,0.1312,0.0677,0.0169,-0.0269,0.0,0.0,0.0,0.0,-0.2799,-0.3118,-0.3526,-0.3993,-0.4339,-0.4718,-0.5099,-0.5585,-0.5974,-0.6393,-0.7577,-0.8297,-0.8693,-0.9696,-1.0166,-1.0283,-1.0283,-1.0351,-1.0418,0.0,0.0,0.0,0.0,0.0,0.0,0.0,0.0,0.0,0.0,0.0,0.0,0.0,0.0,0.0,0.0,0.0,0.0,0.0,0.0,0.0,0.0,0.0,0.0,0.0,0.0,0.0,0.0,0.0,0.0,0.0,0.0,0.0,-1.5303,-1.5182,-1.5075,-1.5049,-1.4904,-1.4841,-1.486,-1.482,-1.5057,-1.5783,-1.5603,-1.611,-1.7619,-1.7524,-1.7786,-1.8567,-1.86,-1.8656,-1.8788,-1.8788,-1.8788,-1.8788,-1.8788,-1.8695,-1.8505,-1.8485,-1.8465,-1.8406,-1.8406,-1.8426,-1.8485,-1.8426,-1.8406,-1.8496,-1.9507,-1.9925,-1.9992,-2.0556,-2.0725,-2.0616,0.0,0.0,0.0,0.0,0.0,0.0,0.0,0.0,0.0,0.0,0.4312,0.414,0.4002,0.329,0.2722,0.2446,0.1706,0.1102,0.0708,0.0,0.0,0.0,0.0,0.0,-0.2576,-0.2972,-0.3417,-0.3923,-0.4307,-0.4718,-0.5099,-0.5585,-0.619,-0.6925,-0.7902,-0.8645,-0.9232,-0.9944,-1.0283,-1.0283,-1.0283,-1.0322,-1.0312,0.0,0.0,0.0,0.0,0.0,0.0,0.0,0.0,0.0,0.0,0.0,0.0,0.0,0.0,0.0,0.0,0.0,0.0,0.0,0.0,0.0,0.0,0.0,0.0,0.0,0.0,0.0,0.0,0.0,0.0,0.0,-1.5871,-1.6002,-1.5327,-1.5101,-1.5201,-1.5668,-1.5644,-1.5811,-1.6341,-1.6337,-1.6355,-1.6501,-1.6815,-1.7146,-1.7453,-1.7853,-1.8141,-1.8391,-1.8485,-1.8561,-1.8656,-1.8658,-1.8659,-1.8659,-1.8657,-1.8617,-1.8579,-1.8522,-1.8485,-1.8465,-1.8465,-1.8485,-1.8485,-1.8465,-1.8465,-1.8605,-1.9899,-2.0381,-2.0493,-2.169,-2.2048,-2.1865,0.0,0.0,0.0,0.0,0.0,0.0,0.0,0.0,0.0,0.0,0.4634,0.446,0.4364,0.371,0.3151,0.291,0.2213,0.1634,0.1348,0.0,0.0,0.0,0.0,-0.1623,-0.2356,-0.2892,-0.3421,-0.3948,-0.4435,-0.4917,-0.5388,-0.5941,-0.6548,-0.7263,-0.8167,-0.8839,-0.9347,-0.9945,-1.0244,-1.0283,-1.0283,-1.0283,-1.0283,-1.0244,-1.0351,-1.0534,-1.0649,-1.1019,-1.1542,-1.2018,0.0,0.0,0.0,0.0,0.0,0.0,0.0,0.0,0.0,0.0,0.0,0.0,0.0,0.0,0.0,0.0,0.0,0.0,0.0,0.0,0.0,0.0,0.0,0.0,-1.6834,-1.693,-1.6337,-1.6129,-1.6155,-1.6472,-1.6437,-1.6559,-1.6971,-1.6917,-1.6968,-1.7245,-1.7443,-1.7648,-1.7856,-1.8141,-1.8304,-1.8304,-1.8385,-1.8465,-1.8559,-1.86,-1.8601,-1.8601,-1.8598,-1.8559,-1.852,-1.8502,-1.8485,-1.8505,-1.8544,-1.8739,-1.9078,-1.9076,-1.9253,-1.9603,0.0,0.0,0.0,0.0,-2.2515,-2.2338,0.0,0.0,0.0,0.0,0.0,0.0,0.0,0.0,0.0,0.0,0.0,0.4662,0.4669,0.4082,0.3589,0.3369,0.2737,0.2226,0.0,0.0,0.0,-0.0434,-0.0945,-0.1508,-0.2134,-0.2846,-0.3475,-0.3961,-0.4537,-0.5141,-0.5776,-0.6366,-0.6943,-0.7468,-0.8342,-0.8928,-0.9273,-0.9848,-1.0157,-1.0283,-1.0283,-1.0283,-1.0283,-1.0118,-1.0166,-1.0283,-1.0283,-1.0534,-1.0981,-1.1383,0.0,0.0,0.0,0.0,0.0,0.0,0.0,0.0,0.0,0.0,0.0,0.0,0.0,0.0,0.0,0.0,0.0,0.0,0.0,0.0,0.0,0.0,0.0,0.0,-1.7986,-1.7985,-1.7863,-1.7823,-1.7681,-1.7382,-1.7293,-1.725,-1.7278,-1.7174,-1.7366,-1.8,-1.7804,-1.7896,-1.8489,-1.8383,0.0,0.0,0.0,-1.8408,-1.8524,-1.8598,-1.8617,-1.8637,-1.8637,-1.8561,-1.8465,-1.8524,-1.8563,-1.8581,-1.8729,-1.9231,-1.9948,-1.9998,-2.0459,-2.1153,-2.0845,-2.0779,-2.0975,-2.2108,-2.2432,-2.231,0.0,0.0,0.0,0.0,0.0,0.0,0.0,0.0,0.0,0.5277,0.5176,0.5054,0.5027,0.4459,0.3986,0.3717,0.3094,0.2478,0.0,0.0,0.1059,0.033,-0.025,-0.0964,-0.1762,-0.2347,-0.2986,-0.3698,-0.4161,-0.4807,-0.5553,-0.6079,-0.6766,-0.7669,-0.8219,-0.8835,-0.9449,-0.9855,-1.0049,-1.0166,-1.0244,-1.0283,-1.0283,-1.0088,-1.0049,-1.0127,-1.0098,-1.0244,-1.0572,-1.0916,-1.1207,-1.1505,-1.1909,0.0,0.0,0.0,0.0,0.0,0.0,0.0,0.0,0.0,0.0,0.0,0.0,0.0,0.0,0.0,0.0,0.0,0.0,0.0,0.0,-1.7953,-1.8471,-1.8843,-1.8769,-1.9238,-1.9269,-1.8369,-1.8186,-1.839,-1.8947,-1.8945,-1.891,-1.895,-1.8748,-1.861,-1.8585,-1.8505,-1.8463,-1.8463,-1.8506,-1.8603,-1.8732,-1.8824,-1.8843,-1.8825,-1.8825,0.0,-1.8807,-1.8861,-1.8896,-1.895,-1.965,-2.0082,-2.0282,-2.0971,-2.166,-2.2249,-2.1766,-2.1885,-2.2375,-2.2529,-2.2552,-2.2497,0.0,0.0,0.0,0.0,0.0,0.0,0.0,0.0,0.0,0.0,0.5239,0.5164,0.5049,0.4678,0.4296,0.3986,0.3319,0.0,0.0,0.1974,0.1559,0.0919,0.0257,-0.0477,-0.13,-0.1949,-0.2695,-0.3513,-0.4086,-0.4776,-0.5625,-0.6111,-0.6793,-0.7598,-0.8229,-0.8897,-0.9497,-1.0076,-1.0298,-1.0305,-1.0435,-1.039,-1.0205,-1.0059,-0.998,-0.9932,-0.9783,-0.9902,-1.0157,-1.0428,-1.0687,-1.0954,-1.133,-1.1884,-1.2579,0.0,0.0,0.0,0.0,0.0,0.0,0.0,0.0,0.0,0.0,0.0,0.0,0.0,0.0,-1.7825,-1.8441,0.0,-1.8788,-1.919,-1.9558,-1.9774,-1.9709,-1.9981,-1.9944,-1.9228,-1.9119,-1.9219,-1.9527,-1.9504,-1.9413,-1.9308,-1.913,-1.8981,-1.886,-1.8807,-1.8752,-1.8752,-1.8789,-1.886,-1.9002,-1.9017,-1.9084,-1.9099,-1.9099,-1.9099,-1.9115,-1.9164,-1.9433,-1.9886,-2.0347,-2.1021,-2.1867,-2.2711,-2.3233,-2.3456,-2.3184,-2.3053,-2.3025,-2.2925,-2.2833,-2.2712,0.0,0.0,0.0,0.0,0.0,0.0,0.0,0.0,0.0,0.0,0.5277,0.5176,0.5055,0.4826,0.4505,0.0,0.0,0.0,0.0,0.2376,0.2009,0.1526,0.0791,0.0045,-0.0716,-0.152,-0.2324,-0.3173,-0.3869,-0.4648,-0.548,-0.6096,-0.668,-0.7298,-0.8114,-0.8793,-0.93,-1.0081,-1.0427,-1.0512,-1.0605,-1.046,-1.0154,-0.9969,-0.9813,-0.9704,-0.9515,-0.9545,-0.9734,-0.9922,-1.0196,-1.0467,-1.0812,-1.1468,-1.2283,-1.315,-1.4349,0.0,0.0,0.0,0.0,0.0,0.0,0.0,0.0,-1.8721,-1.8538,-1.8793,-1.8442,-1.8383,-1.9289,-1.9491,-1.9743,-2.0399,-2.0499,-2.0478,-2.0413,-2.0347,-2.0219,-1.9933,-1.9866,-1.9811,-1.9669,-1.9612,-1.954,-1.9462,-1.9361,-1.9271,-1.9178,-1.913,-1.9097,-1.9132,-1.9111,-1.9175,-1.9308,-1.9301,-1.9328,-1.939,-1.9409,-1.9394,-1.9409,-1.9452,-1.994,-2.08,-2.1195,-2.2243,-2.3667,-2.4339,-2.4572,-2.4508,-2.4456,-2.4081,-2.3538,-2.3379,-2.32,-2.2985,0.0,0.0,0.0,0.0,0.0,0.0,0.0,0.0,0.0,0.0,0.0,0.0,0.0,0.0,0.0,0.0,0.0,0.0,0.3376,0.2921,0.2483,0.2211,0.1428,0.0671,-0.0089,-0.085,-0.1611,-0.2413,-0.3161,-0.3909,-0.4748,-0.551,-0.6186,-0.6828,-0.7511,-0.8164,-0.8836,-0.9466,-1.0004,-1.0428,-1.0431,-1.0391,-1.0307,-0.9775,-0.9558,-0.9527,-0.9359,-0.9319,-0.9359,-0.9518,-0.9655,-0.9832,-1.0127,-1.0781,-1.1681,-1.2692,-1.4019,-1.5301,-1.5966,-1.6686,-1.7313,-1.7726,-1.81,-1.8524,0.0,-1.9172,-1.9433,-1.9706,-1.9826,-1.9999,-2.0308,-2.0369,-2.0409,-2.0495,-2.0503,-2.048,-2.0415,-2.0394,-2.0341,-2.0255,-2.0142,-2.0011,-1.989,-1.9847,-1.9797,-1.9676,-1.9638,-1.9585,-1.9458,-1.9448,-1.9462,-1.9526,-1.9529,-1.9569,-1.9632,-1.9645,-1.9676,-1.9743,-1.9744,-1.9751,-1.9751,-1.9751,-2.022,-2.1148,-2.2691,-2.3917,-2.4822,-2.4917,-2.4929,-2.4921,-2.4921,-2.4771,-2.4484,-2.3928,-2.3635,-2.3477,0.0,0.0,0.0,0.0,0.0,0.0,0.0,0.0,0.0,0.0,0.0,0.0,0.0,0.0,0.0,0.0,0.0,0.0,0.378,0.3411,0.3053,0.2831,0.2073,0.1386,0.076,-0.0045,-0.0849,-0.165,-0.2317,-0.3025,-0.3822,-0.4571,-0.5213,-0.5835,-0.6821,-0.7591,-0.8296,-0.9222,-0.9874,-1.031,-1.0312,-1.0247,-1.0047,-0.9438,-0.9128,-0.9039,-0.9088,-0.9128,0.0,0.0,-0.9377,-0.9536,-0.9971,-1.0695,-1.1623,-1.2704,-1.4028,-1.5286,-1.62,-1.6747,-1.7191,-1.7618,-1.8409,-1.916,-1.9597,-2.0356,-2.0891,-2.0641,-2.0784,-2.0869,-2.056,-2.0499,-2.0506,-2.0507,-2.05,-2.0482,-2.0451,-2.0464,-2.0453,-2.0418,-2.0371,-2.0262,-2.0101,-2.0068,-2.0031,-1.9945,-1.9924,-1.9912,-1.9852,-1.9804,-1.9796,-1.9827,-1.9877,-1.9907,-1.9926,-1.9936,-1.9973,-2.0039,-2.0031,-2.0041,-2.006,-2.0547,-2.1531,-2.2872,-2.4091,-2.483,-2.5156,-2.5156,-2.5165,-2.5182,-2.5179,-2.5091,-2.4866,-2.4435,-2.4118,-2.3926,0.0,0.0,0.0,0.0,0.0,0.0,0.0,0.0,0.0,0.0,0.0,0.0,0.0,0.0,0.0,0.0,0.0,0.0,0.0,0.3806,0.3567,0.3416,0.2716,0.2119,0.1566,0.076,-0.0045,-0.0803,-0.1474,-0.2142,-0.2849,-0.3566,-0.4198,-0.4781,-0.5893,-0.6748,-0.7482,-0.8586,-0.9358,-0.981,-0.9897,-0.9862,-0.9581,-0.8997,-0.8683,-0.8553,-0.8773,-0.8854,0.0,0.0,-0.9047,-0.9159,-0.9716,-1.0494,-1.1465,-1.2634,-1.4055,-1.5419,-1.6363,-1.6747,-1.7075,-1.7806,-1.8726,-1.965,-2.0352,-2.1238,-2.1775,-2.1216,-2.1302,-2.128,-2.0608,-2.0489,-2.0494,-2.0501,-2.0507,-2.0507,-2.0497,-2.0498,-2.0498,-2.0492,-2.0497,-2.0443,-2.0308,-2.0268,-2.0237,-2.0169,-2.0161,-2.0154,-2.0161,-2.013,-2.0099,-2.0113,-2.016,-2.018,-2.0179,-2.0185,-2.0216,-2.0266,-2.0268,-2.0372,-2.0643,-2.1759,-2.29,-2.4094,-2.4992,-2.536,-2.536,-2.5372,-2.5356,-2.536,-2.5357,-2.5283,-2.5147,-2.4911,-2.4644,-2.4352,0.0,0.0,0.0,0.0,0.0,0.0,0.0,0.0,0.0,0.0,0.0,0.0,0.0,0.0,0.0,0.0,0.0,0.0,0.0,0.4141,0.3928,0.398,0.3344,0.2737,0.2277,0.1611,0.0895,0.0179,-0.0582,-0.1251,-0.1875,-0.2653,-0.3272,-0.3802,-0.465,-0.5474,-0.6221,-0.7325,-0.8165,-0.8785,-0.9048,-0.9093,-0.8972,-0.8443,-0.8136,-0.8062,-0.839,0.0,0.0,-0.8521,-0.8521,-0.8635,-0.9159,-0.9992,-1.1058,-1.2342,-1.4023,-1.5624,-1.6246,-1.6554,-1.702,-1.836,-1.903,-1.9738,-2.0976,-2.1552,-2.1665,-2.1204,-2.1263,-2.1197,-2.0531,-2.0467,-2.0509,-2.0494,-2.0494,-2.0503,-2.0505,-2.0505,-2.0505,-2.0507,-2.0506,-2.0505,-2.0486,-2.0438,-2.0363,-2.0305,-2.0294,-2.0297,-2.0298,-2.0356,-2.0396,-2.0396,-2.0389,-2.0399,-2.0387,-2.0387,-2.0387,-2.0387,-2.0397,-2.0837,-2.1708,-2.3357,-2.4156,-2.4234,-2.513,-2.5496,-2.5496,-2.5493,-2.5489,-2.5484,-2.5492,-2.5453,-2.5398,-2.5382,-2.5122,-2.4775,0.0,0.0,0.0,0.0,0.0,0.0,0.0,0.0,0.0,0.0,0.0,0.0,0.0,0.0,0.0,0.0,0.0,0.0,0.0,0.4672,0.455,0.4451,0.4147,0.3735,0.3158,0.2549,0.1919,0.125,0.0536,-0.0089,-0.0626,-0.1489,-0.2133,-0.2661,-0.3442,-0.4221,-0.5031,-0.5997,-0.6877,-0.766,-0.8031,-0.8268,-0.837,-0.7898,-0.7773,-0.7787,0.0,0.0,0.0,-0.8602,-0.8635,-0.8716,-0.9279,-0.9962,-1.0972,-1.292,-1.4274,-1.5255,-1.5968,-1.6382,-1.6949,-1.8244,-1.9358,-2.0451,-2.1676,-2.264,-2.2958,-2.1905,-2.1859,-2.1635,-2.0472,-2.0313,-2.0376,-2.0366,-2.039,-2.043,-2.0375,-2.0367,-2.0366,-2.0366,-2.0332,-2.0303,-2.0303,-2.0398,-2.0465,-2.0437,-2.0438,-2.0421,-2.0421,-2.0444,-2.0466,-2.0467,-2.0469,-2.0468,-2.0468,-2.0466,-2.0737,-2.1262,-2.185,-2.2576,-2.3437,-2.4004,-2.4589,-2.5154,-2.5447,-2.5563,-2.5561,-2.558,-2.5576,-2.557,-2.5573,-2.5547,-2.5527,-2.5471,-2.5386,-2.5245,0.0,0.0,0.0,0.0,0.0,0.0,0.0,0.0,0.0,0.0,0.0,0.0,0.0,0.0,0.0,0.0,0.0,0.5106,0.0,0.0,0.508,0.5044,0.484,0.4456,0.3934,0.3344,0.2718,0.2086,0.1491,0.0939,0.0427,-0.0263,-0.0843,-0.1381,-0.1971,-0.2687,-0.3506,-0.4476,-0.5369,-0.6238,-0.6835,-0.7128,-0.7244,-0.7045,-0.7063,0.0,0.0,0.0,0.0,-0.7966,-0.8165,-0.8325,-0.8757,-0.9752,-1.1159,-1.3103,-1.4146,-1.4831,-1.5609,-1.6108,-1.6727,-1.799,-1.9101,-2.0189,-2.1344,-2.2303,-2.2627,-2.159,-2.1568,-2.1381,-2.027,-2.0109,-2.0154,-2.0183,-2.0243,-2.0257,-2.0173,-2.0164,-2.0139,-2.0095,-2.0046,-2.0016,-1.9988,-2.0102,-2.0235,-2.0377,-2.038,-2.0397,-2.0422,-2.0433,-2.0438,-2.0455,-2.0467,-2.0461,-2.0458,-2.0756,-2.1309,-2.2138,-2.3007,-2.37,-2.4241,-2.458,-2.5035,-2.5554,-2.5556,-2.5559,-2.5564,-2.559,-2.5595,-2.5602,-2.5605,-2.56,-2.5605,-2.5587,-2.5559,-2.5507,0.0,0.0,0.0,0.0,0.0,0.0,0.0,0.0,0.0,0.0,0.0,0.0,0.0,0.0,0.0,0.0,0.0,0.0,0.0,0.0,0.0,0.5746,0.5371,0.4998,0.4605,0.3978,0.3372,0.2683,0.2338,0.1872,0.129,0.1015,0.0624,0.0078,-0.0256,-0.0841,-0.1692,-0.2775,-0.3713,-0.4467,-0.5409,-0.5752,-0.5728,-0.5862,0.0,0.0,0.0,0.0,-0.6178,-0.6751,-0.7178,-0.7527,-0.7733,-0.9366,-1.1417,-1.282,-1.367,-1.4333,-1.521,-1.5769,-1.6373,-1.7647,-1.8325,-1.899,-2.0119,-2.0684,-2.0827,-2.0354,-2.0475,-2.0457,-1.9861,-1.9804,-1.9877,-1.9936,-2.0012,-2.0012,-1.9888,-1.9858,-1.9817,-1.9687,-1.9673,-1.9628,-1.9574,-1.9555,-1.9722,-2.0101,-2.0153,-2.0203,-2.0265,-2.0269,-2.0326,-2.0388,-2.0388,-2.0421,-2.0462,-2.1288,-2.2133,-2.2977,-2.3837,-2.4238,-2.4186,-2.5092,-2.5493,-2.5493,-2.5492,-2.5498,-2.5498,-2.5566,-2.5585,-2.5601,-2.5603,-2.5598,-2.5604,-2.5663,-2.5655,-2.5593,0.0,0.0,0.0,0.0,0.0,0.0,0.0,0.0,0.0,0.0,0.0,0.0,0.0,0.0,0.0,0.0,0.0,0.0,0.0,0.0,0.0,0.0,0.0,0.0,0.0,0.0,0.0,0.3935,0.3525,0.3065,0.2603,0.2289,0.1898,0.1399,0.0997,0.0443,-0.0282,-0.1193,-0.2063,-0.287,0.0,-0.4177,-0.4319,0.0,0.0,0.0,0.0,0.0,-0.4944,-0.608,-0.6811,-0.7334,-0.7948,-0.9118,-1.0464,-1.1757,-1.2659,-1.3504,-1.4491,-1.5241,-1.6032,-1.7305,-1.8017,-1.8684,-1.9706,-2.023,-2.0309,-1.9741,-1.9879,-1.9884,-1.9178,-1.9243,-1.9369,-1.9337,-1.9423,-1.9468,-1.9318,-1.9346,-1.9323,-1.9184,-1.9121,-1.9094,-1.9,-1.9,-1.9063,-1.9158,-1.9567,-1.9859,-1.9926,-2.002,-2.0134,-2.0246,-2.0306,-2.0636,-2.128,-2.2748,-2.3562,-2.3807,-2.4673,-2.5059,-2.4994,-2.5297,-2.5429,-2.5437,-2.5488,-2.5503,-2.5503,-2.5511,-2.5538,-2.5537,-2.5576,-2.5598,-2.5609,-2.5625,-2.5659,-2.5664,0.0,0.0,0.0,0.0,0.0,0.0,0.0,0.0,0.0,0.0,0.0,0.0,0.0,0.0,0.0,0.0,0.0,0.0,0.0,0.0,0.0,0.0,0.0,0.0,0.0,0.0,0.0,0.0,0.0,0.0,0.3788,0.3602,0.3314,0.2893,0.2588,0.2092,0.1423,0.0573,0.0,0.0,0.0,0.0,0.0,0.0,0.0,0.0,0.0,0.0,-0.2708,-0.349,-0.4714,-0.6098,-0.7297,-0.8475,-0.9681,-1.1058,-1.2069,-1.2985,-1.3946,-1.4648,-1.5343,-1.6203,-1.68,-1.7336,-1.8017,-1.8475,-1.8723,-1.8558,-1.878,-1.8871,-1.8514,-1.8592,-1.8697,-1.8662,-1.8765,-1.8817,-1.8681,-1.8752,-1.8753,-1.8609,-1.8609,-1.8609,-1.8533,-1.8552,-1.8589,-1.8589,-1.906,-1.9391,-1.9494,-1.9673,-1.9834,-1.9973,-2.0106,-2.0781,-2.2073,-2.3389,-2.4235,-2.4582,-2.5101,-2.5322,-2.5253,-2.5322,-2.5361,-2.5361,-2.5397,-2.5415,-2.5415,-2.5448,-2.548,-2.549,-2.5538,-2.5579,-2.5595,-2.5605,-2.5612,-2.565,0.0,0.0,0.0,0.0,0.0,0.0,0.0,0.0,0.0,0.0,0.0,0.0,0.0,0.0,0.0,0.0,0.0,0.0,0.0,0.0,0.0,0.0,0.0,0.0,0.0,0.0,0.0,0.0,0.0,0.0,0.0,0.0,0.0,0.0,0.0,0.0,0.0,0.0,0.0,0.0,0.0,0.0,0.0,0.0,0.0,0.0,0.0,0.0082,0.0038,-0.0073,-0.1835,-0.4271,-0.5948,-0.7414,-0.8768,-1.0357,-1.1487,-1.2472,-1.3382,-1.396,-1.4456,-1.4831,-1.5256,-1.5593,-1.5877,-1.63,-1.6719,-1.7126,-1.7436,-1.7614,-1.7654,-1.7714,-1.7762,-1.7762,-1.7899,-1.8009,-1.7966,-1.8083,-1.8139,-1.8027,-1.8107,-1.8166,-1.8103,-1.8146,-1.817,-1.8191,-1.8535,-1.8821,-1.901,-1.9273,-1.9484,-1.9663,-2.0074,-2.1039,-2.264,-2.3522,-2.4375,-2.5171,-2.5126,-2.5135,-2.519,-2.5261,-2.529,-2.5301,-2.5283,-2.5293,-2.5293,-2.5351,-2.5415,-2.5448,-2.5471,-2.5506,-2.557,-2.5576,-2.5589,-2.5619,0.0,0.0,0.0,0.0,0.0,0.0,0.0,0.0,0.0,0.0,0.7956,0.7753,0.0,0.0,0.0,0.0,0.0,0.0,0.0,0.0,0.0,0.0,0.0,0.0,0.0,0.0,0.7157,0.6738,0.6562,0.0,0.0,0.0,0.0,0.0,0.0,0.0,0.0,0.0,0.0,0.0,0.0,0.0,0.0,0.0,0.0,0.0,0.273,0.2525,0.2414,0.0,0.0,-0.2479,-0.3818,-0.5389,-0.7073,-0.8705,-1.0108,-1.1302,-1.2271,-1.3051,-1.3657,-1.4004,-1.4387,-1.4715,-1.5019,-1.5389,-1.5762,-1.6165,-1.6407,-1.64,-1.5927,-1.5958,-1.6042,-1.6036,-1.6291,-1.6675,-1.7188,-1.7446,-1.7555,-1.7509,-1.7532,-1.7549,-1.7549,-1.7549,-1.7595,-1.7625,-1.7766,-1.8035,-1.857,-1.8806,-1.9102,-1.9535,-2.1028,-2.2023,-2.246,-2.3381,-2.4243,-2.5031,-2.4419,-2.4476,-2.512,-2.518,-2.5214,-2.5214,-2.522,-2.5212,-2.522,-2.5292,-2.5283,-2.5264,-2.5313,-2.5387,-2.5429,-2.551,-2.5543,-2.5604,0.0,0.0,0.0,0.0,0.0,0.0,0.0,0.8965,0.8883,0.8953,0.8789,0.8512,0.8109,0.7994,0.7908,0.0,0.0,0.0,0.0,0.0,0.0,0.0,0.0,0.0,0.0,0.8277,0.7935,0.7579,0.0,0.7325,0.7178,0.7159,0.7032,0.6892,0.6713,0.6477,0.0,0.0,0.0,0.0,0.5303,0.0,0.0,0.0,0.0,0.0,0.0,0.556,0.5228,0.4408,0.3066,0.1275,-0.1268,-0.3172,-0.4847,-0.6936,-0.851,-0.981,-1.0914,-1.153,-1.1941,-1.2283,-1.2618,-1.2994,-1.3552,-1.4051,-1.4505,-1.5065,-1.5109,-1.4964,-1.4651,-1.4449,-1.4308,-1.4349,-1.4831,-1.5355,-1.5728,-1.6245,-1.6596,-1.6674,-1.6777,-1.6919,-1.7052,-1.7175,-1.7272,-1.7337,-1.7408,-1.767,-1.817,-1.8514,-1.8875,-1.9276,-2.0641,-2.1438,-2.1619,-2.254,-2.3247,-2.3695,-2.38,-2.4041,-2.4448,-2.4891,-2.5094,-2.5094,-2.5122,-2.5153,-2.5141,-2.5228,-2.5231,-2.5212,-2.5264,-2.5341,-2.5423,-2.5476,-2.5531,-2.5615,0.0,0.0,0.0,0.0,0.0,0.0,0.0,0.9555,0.9502,0.9607,0.9581,0.9316,0.8745,0.8561,0.8421,0.0,0.0,0.0,0.0,0.0,0.0,0.0,0.0,0.0,0.0,0.0,0.0,0.8546,0.8481,0.0,0.0,0.0,0.0,0.0,0.8086,0.7934,0.7675,0.7425,0.0,0.0,0.0,0.8305,0.0,0.0,0.0,0.0,0.0,0.8375,0.7705,0.6722,0.6099,0.5192,0.2032,-0.0281,-0.2266,-0.4697,-0.6363,-0.7664,-0.9007,-0.954,-0.9849,-1.0316,-1.0617,-1.0978,-1.1799,-1.2352,-1.2901,-1.3572,-1.344,-1.3163,-1.3041,-1.2636,-1.2374,-1.2468,-1.3132,-1.3766,-1.421,-1.4874,-1.54,-1.5662,-1.593,-1.6181,-1.6454,-1.6664,-1.686,-1.7018,-1.7175,-1.7439,-1.7839,-1.8217,-1.8608,-1.8943,-1.9945,-2.0562,-2.0778,-2.1522,-2.2063,-2.235,-2.3038,-2.348,-2.3689,-2.449,-2.4869,-2.4869,-2.4974,-2.5,-2.5032,-2.513,-2.5176,-2.5168,-2.5252,-2.5313,-2.5397,-2.5449,-2.5525,-2.5605,0.0,0.0,0.0,0.0,0.0,0.0,0.0,1.0059,1.0034,1.0034,1.0034,0.9995,0.9867,0.9408,0.9097,0.0,0.0,0.0,0.0,0.0,0.0,0.0,0.0,0.0,0.0,0.0,0.0,1.0013,1.0116,0.0,0.0,0.0,0.0,0.0,0.0,0.9127,0.8935,0.8966,0.0,0.0,0.0,0.0,0.0,0.0,0.0,0.0,0.0,1.0155,0.9186,0.8505,0.822,0.7975,0.6705,0.3957,0.0756,-0.1557,-0.3077,-0.4426,-0.6184,-0.7085,-0.7686,-0.8454,-0.8692,-0.8998,-0.9868,-1.0276,-1.0714,-1.1442,-1.1205,-1.073,-1.028,-0.9999,-0.9909,-1.0173,-1.0727,-1.1623,-1.3047,-1.3519,-1.3948,-1.4663,-1.4914,-1.5139,-1.5404,-1.5665,-1.5994,-1.634,-1.685,-1.728,-1.771,-1.7866,-1.8107,-1.8455,-1.9484,-2.0156,-2.0348,-2.0554,-2.1055,-2.1874,-2.1964,-2.2407,-2.3184,-2.4068,-2.4458,-2.4474,-2.4651,-2.4727,-2.476,-2.5012,-2.5063,-2.5032,-2.5168,-2.5258,-2.5322,-2.5382,-2.5485,-2.5613,0.0,0.0,0.0,0.0,0.0,0.0,1.0926,1.0879,1.0855,1.0879,1.0774,1.0715,1.0715,1.0625,1.031,0.963,0.0,0.0,0.0,0.0,0.0,0.0,0.0,0.0,0.0,0.0,1.078,1.0862,1.1393,0.0,0.0,0.0,0.0,0.0,0.0,1.0794,1.0194,1.0205,0.0,0.0,0.0,0.0,0.0,0.0,0.0,0.0,0.0,0.0,1.1257,1.0405,0.9969,0.9632,0.8912,0.7704,0.5832,0.2341,0.0511,-0.0724,-0.2238,-0.2933,-0.3493,-0.4448,-0.4878,-0.5416,-0.6673,-0.7291,-0.7874,-0.8771,-0.8558,-0.8135,-0.7862,-0.758,-0.744,-0.7637,-0.8444,-0.9447,-1.0602,-1.1383,-1.2164,-1.3032,-1.3434,-1.3807,-1.43,-1.4746,-1.5271,-1.6006,-1.6405,-1.6773,-1.7126,-1.7595,-1.7932,-1.8153,-1.8768,-1.916,-1.9345,-1.9468,-1.9953,-2.0787,-2.1314,-2.1972,-2.2776,-2.3637,-2.4023,-2.4004,-2.4281,-2.4454,-2.4551,-2.491,-2.5075,-2.513,-2.5273,-2.534,-2.5363,-2.5476,-2.557,-2.5654,0.0,0.0,0.0,0.0,0.0,1.1542,1.1564,1.1542,1.152,1.1542,1.1423,1.1339,1.1362,1.1788,1.1691,1.0712,1.0793,0.0,0.0,0.0,0.0,0.0,0.0,0.0,0.0,0.0,1.1631,1.1949,1.259,1.3045,0.0,0.0,1.3535,1.2861,0.0,0.0,0.0,0.0,0.0,0.0,0.0,0.0,0.0,0.0,0.0,0.0,0.0,0.0,0.0,0.0,0.0,1.1169,1.0742,1.0572,0.0,0.584,0.4113,0.3166,0.1762,0.1192,0.0667,-0.0541,-0.1122,-0.1782,-0.3354,-0.4075,-0.468,-0.5645,-0.5444,-0.5073,-0.5061,-0.4903,-0.4863,-0.5057,-0.6037,-0.7144,-0.8133,-0.8989,-0.9903,-1.0919,-1.1347,-1.1813,-1.242,-1.327,-1.4133,-1.5006,-1.5447,-1.5777,-1.6111,-1.6801,-1.7486,-1.8127,-1.8431,-1.8742,-1.9076,-1.9198,-1.9542,-2.0114,-2.0945,-2.1607,-2.2153,-2.3066,-2.349,-2.3534,-2.397,-2.4251,-2.4383,-2.4854,-2.5059,-2.5089,-2.5213,-2.5226,-2.5184,-2.5297,-2.5336,-2.5329,0.0,0.0,0.0,0.0,0.0,0.0,1.1988,1.1988,1.1967,1.1909,1.1897,1.1848,1.1703,1.275,1.3226,1.2621,1.1852,0.0,0.0,0.0,0.0,0.0,0.0,0.0,0.0,0.0,1.2281,1.3473,1.3685,1.4227,1.5067,1.5415,1.5305,1.4837,0.0,0.0,0.0,0.0,0.0,0.0,0.0,0.0,0.0,0.0,0.0,0.0,0.0,0.0,0.0,0.0,0.0,0.0,0.0,0.0,0.0,0.0,0.7696,0.7269,0.5584,0.4978,0.4435,0.2784,0.2149,0.1514,-0.0074,-0.0667,-0.1115,-0.1974,-0.1833,-0.1566,-0.1635,-0.1802,-0.2058,-0.2396,-0.3442,-0.4672,-0.585,-0.6449,-0.7134,-0.8111,-0.8484,-0.8907,-0.9562,-1.1144,-1.2409,-1.3095,-1.3748,-1.4223,-1.4505,-1.5272,-1.6563,-1.8451,-1.87,-1.9183,-1.9984,-2.0051,-2.0093,-2.011,-2.0833,-2.1199,-2.1259,-2.2229,-2.2822,-2.3052,-2.3786,-2.4148,-2.4255,-2.486,-2.4988,-2.4818,-2.4871,-2.4781,-2.4613,-2.4684,-2.4575,-2.4419,0.0,0.0,0.0,0.0,0.0,0.0,0.0,1.2591,1.2591,1.2517,1.236,1.224,1.2251,1.3245,1.3702,1.3182,1.2967,0.0,0.0,0.0,0.0,0.0,0.0,0.0,0.0,0.0,1.3257,1.364,1.439,1.4924,1.526,1.6187,1.6331,1.5801,1.6323,1.6144,0.0,0.0,0.0,0.0,0.0,0.0,0.0,0.0,0.0,0.0,0.0,0.0,0.0,0.0,0.0,0.0,0.0,0.0,0.0,1.1952,1.0841,0.9764,0.8849,0.8396,0.7861,0.6552,0.593,0.5231,0.377,0.3072,0.2487,0.1504,0.1277,0.119,0.1089,0.0778,0.0552,0.0536,-0.0303,-0.1222,-0.1952,-0.2515,-0.3236,-0.4196,-0.5121,-0.5929,-0.6672,-0.7663,-0.8549,-0.9224,-0.9955,-1.0598,-1.1187,-1.1748,-1.3476,-1.6548,-1.7242,-1.7638,-1.7807,-1.8291,-1.8706,-1.9089,-2.0301,-2.0844,-2.0852,-2.2401,-2.2926,-2.2599,-2.2801,-2.2656,-2.2294,-2.2282,-2.1901,-2.1352,-2.1836,-2.1674,-2.1197,-2.1206,-2.0861,-2.0342,0.0,0.0,0.0,0.0,0.0,0.0,0.0,1.3052,1.3053,1.3,1.2822,1.2708,1.2724,1.3521,1.3949,1.3721,1.3731,0.0,0.0,0.0,0.0,0.0,0.0,0.0,0.0,1.3512,1.3866,1.4151,1.4863,1.5384,1.5767,1.6598,1.6992,1.7046,1.7393,1.7422,0.0,0.0,0.0,0.0,0.0,0.0,1.6267,0.0,0.0,0.0,0.0,0.0,0.0,0.0,0.0,0.0,0.0,0.0,0.0,0.0,1.3134,1.2187,1.1569,1.1281,1.0906,0.9793,0.9144,0.8408,0.7046,0.6348,0.5698,0.4771,0.4411,0.4204,0.4054,0.3794,0.357,0.355,0.2826,0.2141,0.179,0.133,0.0789,0.0203,-0.0728,-0.1647,-0.2391,-0.3171,-0.3889,-0.4542,-0.5219,-0.588,-0.6573,-0.7139,-0.843,-1.0592,-1.3301,-1.4691,-1.466,-1.4575,-1.4624,-1.4859,-1.4836,-1.5121,-1.5634,-1.5253,-1.5421,-1.5971,-1.5602,-1.5328,0.0,-1.5783,-1.5609,-1.499,-1.5528,-1.5309,-1.4725,-1.4726,-1.4386,-1.3849,0.0,0.0,0.0,0.0,0.0,0.0,0.0,1.3395,1.3412,1.3345,1.3261,1.321,1.3142,1.3681,1.4073,1.4172,0.0,0.0,0.0,0.0,0.0,0.0,0.0,0.0,0.0,1.3821,1.4197,1.4893,1.5076,1.5592,1.6401,1.6645,1.7322,1.8324,1.7709,1.7879,0.0,0.0,0.0,0.0,0.0,0.0,0.0,0.0,0.0,0.0,0.0,0.0,0.0,0.0,0.0,0.0,0.0,0.0,0.0,0.0,0.0,0.0,0.0,1.358,1.3392,1.2381,1.1732,1.1027,0.9806,0.9106,0.0,0.7797,0.7468,0.7272,0.7187,0.7076,0.6905,0.6714,0.6045,0.5516,0.5346,0.5077,0.4937,0.4917,0.4364,0.3672,0.2937,0.2139,0.1387,0.08,0.0318,-0.0246,-0.0868,-0.1561,-0.1809,-0.1523,-0.6699,-0.9751,-1.0284,-0.8982,-0.8137,-0.7836,-0.5625,-0.5341,-0.6585,-0.2971,-0.2638,-0.4866,-0.4041,-0.3942,-0.4494,-0.6275,-0.6711,-0.6285,-0.6594,-0.6367,-0.5896,-0.5896,-0.5701,-0.541,0.0,0.0,0.0,0.0,0.0,0.0,0.0,0.0,0.0,0.0,1.3572,1.3491,1.341,1.4041,1.4296,0.0,0.0,0.0,0.0,0.0,0.0,0.0,0.0,0.0,0.0,1.4359,1.4526,1.4746,1.4907,1.5071,1.5288,1.607,1.6946,1.7892,1.8373,0.0,0.0,0.0,0.0,0.0,0.0,0.0,0.0,0.0,0.0,0.0,1.5351,1.535,0.0,0.0,0.0,0.0,0.0,0.0,0.0,0.0,1.5047,1.4998,1.4813,0.0,1.3995,1.3426,1.3009,1.2537,0.0,1.1217,1.062,1.0028,0.9591,0.9439,0.9872,0.9678,0.9655,1.025,0.9733,0.9283,0.9394,0.9211,0.9083,0.9102,0.8631,0.8117,0.7642,0.7149,0.6695,0.6345,0.6098,0.5642,0.4885,0.4714,0.4774,0.5079,0.4648,0.2253,-0.2244,-0.1188,-0.0247,0.0477,0.0539,0.0653,0.0825,0.0438,0.015,-0.0035,0.017,0.0517,0.0887,0.0638,0.1043,0.1804,0.1213,0.1438,0.2093,0.2093,0.2387,0.2811,0.0,0.0,0.0,0.0,0.0,0.0,0.0,0.0,0.0,0.0,0.0,0.0,0.0,0.0,0.0,0.0,0.0,0.0,0.0,0.0,0.0,0.0,0.0,0.0,1.5168,1.5301,1.5407,1.5487,1.5575,1.5448,1.5093,1.5601,1.6319,1.7244,1.8514,1.9573,2.0382,0.0,0.0,0.0,1.8066,0.0,0.0,0.0,0.0,0.0,1.5368,1.5373,0.0,1.5408,1.5371,1.5344,0.0,0.0,0.0,0.0,1.5287,1.5299,1.5252,1.4961,1.4607,1.4315,1.4011,1.3623,1.3186,1.2666,1.2163,1.1698,1.1636,1.1747,1.2072,1.2322,1.2599,1.3053,1.2751,1.2493,1.2756,1.2839,1.2933,1.3019,1.2709,1.2418,1.2159,1.18,1.1652,1.1863,1.1699,1.1476,1.1229,1.1156,1.1314,1.1675,1.2862,1.085,0.5389,0.6845,0.7922,0.8582,0.9336,0.951,0.9227,1.0224,1.0227,0.9472,1.0091,1.047,1.0599,1.0031,1.0179,1.0763,1.0271,1.0413,1.0888,1.0908,1.1069,1.1307,0.0,0.0,0.0,0.0,0.0,0.0,0.0,0.0,0.0,0.0,0.0,0.0,0.0,0.0,0.0,0.0,0.0,0.0,0.0,0.0,0.0,0.0,0.0,1.5103,1.612,1.6136,1.6228,1.6438,1.6367,1.5972,1.5319,1.5291,1.584,1.6852,1.8473,1.9662,2.0476,2.0476,1.9983,1.9114,1.8364,0.0,0.0,0.0,0.0,0.0,0.0,0.0,0.0,1.5373,1.5391,1.5404,1.5409,0.0,0.0,0.0,0.0,0.0,1.5326,1.5216,1.5107,1.4961,1.47,1.4401,1.41,1.3669,1.3273,1.2958,1.34,1.3875,1.4003,1.474,1.5374,1.5413,1.5397,1.5442,1.5667,1.6018,1.6318,1.6473,1.6253,1.6123,1.6206,1.5822,1.5905,1.667,1.6573,1.6649,1.7109,1.7015,1.7211,1.7718,1.8761,1.7334,1.3254,1.4809,1.5831,1.6318,1.8472,1.8775,1.7579,2.1151,2.1681,1.9792,2.0896,2.1126,2.0657,1.9281,1.886,1.9039,1.8802,1.886,1.9073,1.9058,1.901,1.8913,0.0,0.0,0.0,0.0,0.0,0.0,0.0,0.0,0.0,0.0,0.0,0.0,0.0,0.0,0.0,0.0,0.0,0.0,0.0,0.0,0.0,0.0,1.5188,1.5241,1.6254,1.5686,1.5761,1.658,1.5903,1.5508,1.5383,1.533,1.6119,1.7657,1.8671,1.9603,2.041,2.041,1.9915,1.91,1.8905,0.0,0.0,0.0,0.0,0.0,0.0,0.0,0.0,1.5306,1.5343,1.5391,1.5402,0.0,0.0,0.0,0.0,0.0,1.5381,1.5332,1.5233,1.5094,1.495,1.4784,1.461,1.4294,1.4023,1.3913,1.4417,1.5084,1.5751,1.6465,1.7132,1.7689,1.8142,1.8404,1.841,1.8596,1.8758,1.8797,1.8232,1.8101,1.8833,1.8243,1.8169,1.9017,1.9304,1.9708,2.0336,2.068,2.1017,2.1464,2.2179,2.2513,2.2391,2.2173,2.238,2.3018,2.396,2.4272,2.4053,2.4715,2.4803,2.4453,2.4377,2.4292,2.4189,2.3617,2.3399,2.3418,2.3399,2.3399,2.3422,2.3434,2.3291,2.2978,0.0,0.0,0.0,0.0,0.0,0.0,0.0,0.0,0.0,0.0,0.0,0.0,0.0,0.0,0.0,0.0,0.0,0.0,0.0,0.0,0.0,1.6271,1.5899,1.5925,1.64,1.6101,1.6175,1.6604,1.6269,1.5847,1.5348,1.5316,1.6196,1.7815,1.8222,1.9132,2.0404,2.0359,2.0115,1.9703,0.0,0.0,0.0,0.0,0.0,0.0,0.0,0.0,0.0,0.0,1.5326,1.5343,1.5387,0.0,0.0,0.0,0.0,0.0,1.5399,1.5354,1.5295,1.5217,1.5466,1.5686,1.559,1.5742,1.5908,1.5804,1.6362,1.7019,1.7409,1.8033,1.8718,1.9423,1.9755,2.0065,2.0444,2.0608,2.0716,2.0751,2.049,2.0494,2.0967,2.028,2.0172,2.1046,2.0756,2.086,2.16,2.1771,2.2023,2.235,2.3145,2.3803,2.429,2.4566,2.4846,2.5146,2.5455,2.5603,2.5607,2.5602,2.5618,2.5605,2.5456,2.5387,2.5364,2.5182,2.5102,2.5102,2.5102,2.5102,2.509,2.505,2.4858,2.4509,0.0,0.0,0.0,0.0,0.0,0.0,0.0,0.0,0.0,0.0,0.0,0.0,0.0,0.0,0.0,0.0,0.0,0.0,0.0,0.0,1.7176,1.6666,1.6752,1.6725,1.6527,1.6399,1.6428,1.662,1.6456,1.5991,1.5272,1.5478,1.6361,1.7785,1.7997,1.8924,2.0353,2.0301,2.0272,2.0185,0.0,0.0,0.0,0.0,0.0,0.0,0.0,0.0,0.0,0.0,0.0,0.0,0.0,0.0,0.0,1.5409,1.54,1.5401,1.5402,1.5342,1.5295,1.5298,1.5882,1.64,1.6334,1.6899,1.7416,1.7321,1.796,1.8534,1.8577,1.9171,1.9951,2.0896,2.1078,2.134,2.2129,2.2293,2.237,2.2421,2.2312,2.2355,2.2664,2.1991,2.1805,2.2483,2.1831,2.166,2.2296,2.2297,2.2352,2.2566,2.3269,2.3723,2.3949,2.4908,2.5502,2.5698,2.5703,2.5703,2.5703,2.5703,2.5703,2.5703,2.5703,2.5703,2.5703,2.5703,2.5703,2.5703,2.5703,2.5703,2.5681,2.5619,2.5388,2.5086,0.0,0.0,0.0,0.0,0.0,0.0,0.0,0.0,0.0,0.0,0.0,0.0,0.0,0.0,0.0,0.0,0.0,0.0,0.0,0.0,1.7689,1.7688,1.7694,1.7369,1.6613,1.5861,1.5879,1.6691,1.5838,1.5327,1.5215,1.5958,1.6823,1.7733,1.8547,1.9392,2.0219,2.0214,2.0162,2.0098,1.9903,0.0,0.0,0.0,0.0,0.0,0.0,0.0,0.0,0.0,0.0,0.0,0.0,0.0,1.5391,1.5407,1.5394,1.5407,1.5404,1.5349,1.5292,1.5306,1.5908,1.6476,1.6399,1.7003,1.7581,1.7576,1.8266,1.8866,1.8873,1.9515,2.0566,2.2187,2.2471,2.2734,2.3472,2.3624,2.3655,2.3664,2.3063,2.2987,2.3811,2.3209,2.2821,2.2941,2.2886,2.2902,2.3014,2.3014,2.3036,2.3049,2.312,2.3152,2.3178,2.4042,2.4902,2.5703,2.5703,2.5703,2.5703,2.5703,2.5703,2.5703,2.5703,2.5703,2.5703,2.5703,2.5703,2.5703,2.5703,2.57,2.5701,2.5613,2.5434,2.5178,0.0,0.0,0.0,0.0,0.0,0.0,0.0,0.0,0.0,0.0,0.0,0.0,0.0,0.0,0.0,0.0,0.0,0.0,0.0,0.0,1.8306,1.7829,1.7839,1.7491,1.6677,1.582,1.554,1.5825,1.5427,1.5217,1.5214,1.5479,1.6321,1.765,1.7976,1.8896,2.0199,2.0155,2.0069,1.9969,1.9881,1.8843,0.0,0.0,0.0,0.0,0.0,0.0,0.0,0.0,1.5231,1.5303,1.5374,1.5392,1.541,1.5408,1.5391,1.5382,1.5359,1.5322,1.5431,1.5967,1.6734,1.735,1.7298,1.8313,1.9434,1.9969,1.9915,1.9764,1.978,2.0469,2.14,2.2536,2.3216,2.3879,2.4649,2.4774,2.4802,2.4791,2.4587,2.4594,2.4966,2.43,2.3848,2.3868,2.2899,2.2336,2.2358,2.1831,2.1557,2.1558,2.2068,2.2342,2.2343,2.3183,2.4023,2.4902,2.5449,2.5703,2.5703,2.5703,2.5703,2.5703,2.5703,2.5703,2.5703,2.5703,2.5703,2.5703,2.5703,2.5698,2.5696,2.5621,2.5454,2.5254,0.0,0.0,0.0,0.0,0.0,0.0,0.0,0.0,0.0,0.0,0.0,0.0,0.0,0.0,0.0,0.0,0.0,0.0,0.0,1.7823,1.8421,1.7852,1.8143,1.7792,1.6686,1.6089,1.5621,1.53,1.5226,1.5189,1.5172,1.5388,1.6101,1.7237,1.7485,1.827,1.9379,1.9306,1.922,1.9101,1.9051,1.8166,0.0,0.0,0.0,0.0,0.0,0.0,0.0,0.0,1.5269,1.5315,1.5379,1.5394,1.541,1.5406,1.5407,1.5452,1.5652,1.5719,1.5913,1.6786,1.7672,1.8371,1.859,1.9716,2.088,2.1486,2.1336,2.1097,2.1132,2.1606,2.2291,2.313,2.3816,2.4527,2.536,2.5444,2.5439,2.546,2.5496,2.5556,2.5623,2.5137,2.4583,2.4022,2.2929,2.2051,2.1523,2.0917,2.0605,2.0605,2.1171,2.1484,2.1484,2.2558,2.3398,2.4004,2.5156,2.5703,2.5703,2.5703,2.5703,2.5703,2.5703,2.5703,2.5703,2.5703,2.5703,2.5703,2.5702,2.5696,2.5693,2.5628,2.5493,2.5329,0.0,0.0,0.0,0.0,0.0,0.0,0.0,0.0,0.0,0.0,0.0,0.0,0.0,0.0,0.0,0.0,0.0,0.0,1.6421,1.7377,1.7894,1.7891,1.873,1.8389,1.6651,1.66,1.6159,1.5291,1.5224,1.5172,1.5113,1.5918,1.6319,1.6426,1.7221,1.7584,1.7584,1.7534,1.7453,1.7387,1.7342,1.6822,1.61,0.0,0.0,0.0,0.0,0.0,0.0,0.0,1.5315,1.5316,1.5394,1.5401,1.5391,1.5401,1.5418,1.5598,1.6376,1.6604,1.6812,1.7699,1.857,1.9449,2.0318,2.108,2.1603,2.161,2.2249,2.2824,2.289,2.2907,2.3218,2.4144,2.4313,2.461,2.5489,2.5546,2.5526,2.5598,2.5609,2.5626,2.5685,2.5696,2.4977,2.3239,2.3103,2.2362,2.0699,2.0601,2.0601,2.0599,2.0599,2.0599,2.0599,2.2258,2.3081,2.3124,2.4862,2.5683,2.5703,2.5703,2.5703,2.5703,2.5703,2.5703,2.5703,2.5703,2.5703,2.5702,2.5701,2.5691,2.5684,2.5628,2.5499,2.5393,0.0,0.0,0.0,0.0,0.0,0.0,0.0,0.0,0.0,0.0,0.0,0.0,0.0,0.0,0.0,0.0,0.0,0.0,1.5648,1.6522,1.7324,1.7949,1.8177,1.8033,1.7532,1.6266,1.5487,1.5236,1.5157,1.5127,1.5113,1.5334,1.5758,1.6338,1.6586,1.6998,1.7534,1.7499,1.7454,1.7394,1.7374,1.6863,1.612,0.0,0.0,0.0,0.0,0.0,0.0,0.0,0.0,0.0,1.6308,1.5895,1.541,1.5395,1.5794,1.6293,1.6474,1.6972,1.7806,1.9289,1.9893,2.0499,2.193,2.1953,2.1823,2.2404,2.3141,2.3543,2.3004,2.3437,2.3969,2.4248,2.4806,2.5325,2.5632,2.5655,2.5642,2.5676,2.5661,2.567,2.5699,2.57,2.5231,2.4098,2.3452,2.2611,2.1491,2.0864,2.0531,2.0527,2.0525,2.0527,2.0533,2.1627,2.2492,2.3103,2.4256,2.5117,2.5703,2.5703,2.5703,2.5703,2.5703,2.5703,2.5703,2.5703,2.5702,2.57,2.5693,2.5676,2.5625,2.5546,2.5473,2.539,0.0,0.0,0.0,0.0,0.0,0.0,0.0,0.0,0.0,0.0,0.0,0.0,0.0,0.0,0.0,0.0,0.0,0.0,0.0,0.0,1.7087,1.7924,1.823,1.8205,1.7864,1.6447,1.5713,1.5713,1.5331,1.5306,1.5605,1.5271,1.5365,1.5823,1.5815,1.6094,1.6554,1.6557,1.6514,1.646,1.646,1.6148,1.5702,0.0,0.0,0.0,0.0,0.0,0.0,0.0,0.0,0.0,1.7221,1.6855,1.644,1.6397,1.6749,1.7189,1.7451,1.8167,1.9162,2.0561,2.1227,2.187,2.3208,2.3085,2.2927,2.374,2.4292,2.4517,2.4058,2.4422,2.4836,2.4852,2.5291,2.5648,2.5698,2.5698,2.5698,2.5707,2.5707,2.5556,2.5211,2.5171,2.468,2.3467,2.2877,2.2205,2.1335,2.0784,2.0483,2.0455,2.0455,2.0477,2.0503,2.1681,2.2557,2.3119,2.4332,2.5194,2.5703,2.5703,2.5703,2.5703,2.5703,2.5703,2.5703,2.5702,2.5699,2.5693,2.5676,2.5648,2.5586,2.5525,2.5464,2.5401,0.0,0.0,0.0,0.0,0.0,0.0,0.0,0.0,0.0,0.0,0.0,0.0,0.0,0.0,0.0,0.0,0.0,0.0,0.0,0.0,1.6933,1.7751,1.848,1.8528,1.7812,1.6939,1.6561,1.6734,1.5856,1.576,1.6373,1.5591,1.5176,1.5092,1.5105,1.5097,1.509,1.5097,1.5057,1.5015,1.5015,1.5049,1.5097,1.5119,0.0,0.0,0.0,0.0,0.0,0.0,0.0,0.0,1.8125,1.8061,1.7987,1.7916,1.7956,1.8184,1.9004,1.9842,2.0743,2.1697,2.2633,2.3533,2.4243,2.4374,2.4532,2.5263,2.5461,2.5524,2.5595,2.5595,2.5632,2.5696,2.5701,2.5703,2.5691,2.5701,2.5696,2.5705,2.5701,2.5369,2.4477,2.4399,2.3673,2.1923,2.1798,2.1416,2.0538,2.0488,2.0452,2.0391,2.0395,2.0478,2.0603,2.222,2.3075,2.3249,2.4892,2.5699,2.5703,2.5703,2.5703,2.5703,2.5703,2.5703,2.5702,2.57,2.5693,2.5673,2.5629,2.5605,2.5589,2.551,2.5456,2.5406,0.0,0.0,0.0,0.0,0.0,0.0,0.0,0.0,0.0,0.0,0.0,0.0,0.0,0.0,0.0,0.0,0.0,0.0,0.0,0.0,1.6039,1.6834,1.6995,1.7294,1.7793,1.6939,1.7138,1.8453,1.7586,1.69,1.64,1.6213,1.5771,1.5087,1.5099,1.5105,1.509,1.5105,1.5097,1.5083,1.5085,1.508,1.5113,1.5165,1.5709,0.0,0.0,0.0,0.0,0.0,0.0,0.0,1.9019,1.8516,1.7925,1.7909,1.8353,1.9029,1.9895,2.0764,2.1787,2.3349,2.4451,2.5169,2.5293,2.5318,2.5337,2.5446,2.5525,2.5582,2.5605,2.5644,2.5687,2.5698,2.5703,2.5705,2.5703,2.5701,2.5696,2.5693,2.5693,2.5361,2.4486,2.4358,2.3628,2.1922,2.1741,2.1342,2.0478,2.0424,2.0402,2.0404,2.0396,2.0748,2.1449,2.2522,2.3439,2.4132,2.5182,2.5698,2.5703,2.5703,2.5703,2.5703,2.5703,2.5702,2.57,2.5691,2.5673,2.5629,2.56,2.557,2.551,2.5456,2.5415,2.5398,0.0,0.0,0.0,0.0,0.0,0.0,0.0,0.0,0.0,0.0,0.0,0.0,0.0,0.0,0.0,0.0,0.0,0.0,0.0,0.0,0.0,1.7116,1.7512,1.7909,1.8358,1.794,1.8126,1.8992,1.8535,1.7881,1.6997,1.6169,1.5535,1.5094,1.5092,1.5097,1.5097,1.5092,1.5113,1.5146,1.5159,1.5177,1.5247,1.5661,1.6383,1.7286,1.8164,0.0,0.0,0.0,0.0,0.0,0.0,0.0,1.914,1.9141,1.942,1.9909,2.0787,2.1662,2.2761,2.4538,2.534,2.5678,2.5625,2.5604,2.5586,2.5565,2.559,2.5605,2.5636,2.5678,2.569,2.5693,2.5671,2.5648,2.5645,2.5629,2.5593,2.5609,2.523,2.4642,2.3766,2.329,2.2522,2.1221,2.1099,2.0873,2.0385,2.0347,2.0354,2.034,2.0766,2.1217,2.1693,2.3009,2.393,2.4417,2.5273,2.5698,2.5703,2.5703,2.5703,2.5703,2.5702,2.5699,2.5691,2.5673,2.5625,2.56,2.557,2.551,2.5448,2.5415,2.5379,2.5351,0.0,0.0,0.0,0.0,0.0,0.0,0.0,0.0,0.0,0.0,0.0,0.0,0.0,0.0,0.0,0.0,0.0,0.0,0.0,0.0,0.0,0.0,1.8345,1.8845,1.8992,1.8992,1.8992,1.9011,1.8857,1.8414,1.7676,1.6067,1.5236,1.5101,1.5092,1.5097,1.5105,1.5113,1.5146,1.5209,1.5204,1.5347,1.5599,1.6261,1.7181,1.8226,1.8947,1.976,2.0494,2.0518,0.0,0.0,0.0,0.0,2.0301,2.0467,2.0468,2.0604,2.1478,2.2449,2.3646,2.5297,2.5698,2.5698,2.5626,2.5616,2.5613,2.5629,2.5621,2.5636,2.5691,2.5681,2.5684,2.5678,2.5625,2.5589,2.558,2.5521,2.5505,2.5505,2.473,2.3864,2.2985,2.2152,2.1313,2.0443,2.0379,2.0366,2.0295,2.0301,2.0294,2.0294,2.1152,2.1727,2.1913,2.3517,2.4423,2.4625,2.5354,2.57,2.5701,2.5702,2.5702,2.5702,2.5698,2.5691,2.5673,2.5625,2.5581,2.5583,2.551,2.5448,2.5397,2.5398,2.5351,2.5303,0.0,0.0,0.0,0.0,0.0,0.0,0.0,0.0,0.0,0.0,0.0,0.0,0.0,0.0,0.0,0.0,0.0,0.0,1.5407,0.0,0.0,1.6663,1.744,1.8234,1.8977,1.9004,1.9011,1.8996,1.8234,1.7818,1.7676,1.6701,1.5817,1.5108,1.5106,1.5099,1.5094,1.5153,1.5189,1.5204,1.5265,1.5734,1.6445,1.6551,1.7601,1.9044,1.9161,1.9753,2.0501,2.0561,2.0098,0.0,0.0,0.0,1.9523,2.027,2.0495,2.0686,2.1551,2.2968,2.4452,2.5455,2.5691,2.5691,2.5685,2.5683,2.5681,2.5696,2.569,2.5681,2.5694,2.5655,2.5605,2.5605,2.5565,2.5517,2.5511,2.5517,2.5503,2.5507,2.4733,2.3855,2.2984,2.2126,2.1243,2.0373,2.032,2.0311,2.0292,2.0311,2.0299,2.0294,2.1198,2.2055,2.2815,2.3869,2.4779,2.5538,2.5638,2.5702,2.5691,2.5707,2.5709,2.5694,2.5703,2.5665,2.5605,2.5595,2.5564,2.5503,2.5448,2.5406,2.5398,2.5322,2.5313,2.5303,0.0,0.0,0.0,0.0,0.0,0.0,0.0,0.0,0.0,0.0,0.0,0.0,0.0,0.0,0.0,1.5406,1.5391,1.5599,1.6032,1.7224,1.7896,1.7889,1.8703,1.935,1.9727,1.9735,1.9735,1.9727,1.885,1.8434,1.8414,1.7547,1.6912,1.6534,1.6046,1.5835,1.5805,1.5382,1.521,1.5289,1.581,1.6289,1.6758,1.7702,1.8556,1.9314,1.9773,2.0194,2.0498,2.0038,1.9628,1.9273,1.9142,0.0,0.0,0.0,2.0127,2.0701,2.1555,2.3074,2.4486,2.4877,2.5347,2.5699,2.5696,2.5696,2.5694,2.5709,2.5707,2.5701,2.5707,2.5655,2.5593,2.5609,2.5544,2.5505,2.5507,2.5476,2.5451,2.5443,2.4673,2.3805,2.2929,2.2053,2.1197,2.0349,2.0296,2.0308,2.0304,2.0292,2.032,2.0354,2.1693,2.2605,2.2994,2.4421,2.5314,2.5691,2.5703,2.5673,2.5632,2.5648,2.5648,2.5648,2.5636,2.5609,2.5546,2.5538,2.5503,2.5448,2.5406,2.5379,2.5351,2.5313,2.5303,2.5303,0.0,0.0,0.0,0.0,0.0,0.0,0.0,0.0,0.0,0.0,0.0,0.0,0.0,0.0,0.0,0.0,1.5701,1.6048,1.6856,1.8217,1.9001,1.9006,1.9838,2.0312,2.0312,2.0312,2.0188,1.9958,1.9319,1.8992,1.8999,1.8318,1.8164,1.8343,1.7245,1.6759,1.6714,1.6138,1.5927,1.6021,1.6693,1.7109,1.7504,1.8756,1.939,1.9713,2.0302,2.0559,2.0505,1.9844,1.9335,1.8922,1.8722,1.8796,0.0,0.0,0.0,2.0712,2.1595,2.2927,2.4121,2.4334,2.5057,2.5702,2.5701,2.57,2.5698,2.5693,2.5691,2.5705,2.5707,2.5648,2.5585,2.5574,2.5511,2.5472,2.5468,2.5425,2.5398,2.5398,2.4638,2.3753,2.2879,2.2032,2.1185,2.0369,2.0312,2.03,2.0304,2.0313,2.0354,2.0402,2.1896,2.2803,2.3015,2.4801,2.5709,2.5703,2.5676,2.5654,2.5593,2.559,2.5579,2.5542,2.5576,2.5549,2.5473,2.5476,2.5448,2.5397,2.5379,2.5351,2.5303,2.5303,2.5303,2.5303,0.0,0.0,0.0,0.0,0.0,0.0,0.0,0.0,0.0,0.0,0.0,0.0,0.0,1.5401,1.5722,1.6568,1.6574,1.6889,1.7682,1.8525,1.9006,1.8992,1.9831,0.0,2.0312,2.0312,1.99,1.9073,1.9023,1.8999,1.9006,1.8948,1.94,2.018,1.848,1.7738,1.7727,1.7752,1.7758,1.7761,1.7889,1.841,1.9179,1.9264,1.9815,2.0541,2.058,2.0602,2.0585,2.0547,1.9434,1.8359,1.9956,1.9368,1.8391,0.0,0.0,0.0,2.1659,2.2519,2.3379,2.4199,2.5058,2.5702,2.5702,2.5699,2.5693,2.5709,2.5701,2.5707,2.5707,2.5652,2.5586,2.5512,2.5449,2.5412,2.5407,2.5398,2.5398,2.5398,2.4626,2.3758,2.2885,2.2076,2.124,2.0369,2.0312,2.03,2.0304,2.0353,2.0404,2.0395,2.1348,2.2257,2.3091,2.4834,2.5703,2.5694,2.5642,2.5605,2.5607,2.5531,2.5471,2.5418,2.5476,2.5476,2.5414,2.5412,2.5397,2.5398,2.5322,2.5303,2.5303,2.5303,2.5303,2.5303,0.0,0.0,0.0,0.0,0.0,0.0,0.0,0.0,0.0,0.0,0.0,0.0,0.0,1.706,1.7183,1.7455,1.7911,1.831,1.8545,1.936,1.9838,1.9831,2.0139,2.0312,2.0312,2.0312,2.0139,1.9827,1.9834,1.9829,1.9844,1.9883,2.0075,2.0346,1.9162,1.8654,1.8651,1.8137,1.7925,1.8018,1.8596,1.9012,1.9368,1.9918,2.033,2.0605,2.0605,2.0605,2.0508,1.9941,1.9355,1.8848,1.8905,1.8886,1.9062,2.0253,2.0605,2.0664,2.0976,2.168,2.2539,2.3418,2.4258,2.5019,2.5564,2.5697,2.5685,2.5632,2.5639,2.5621,2.5581,2.5595,2.5585,2.5518,2.543,2.5393,2.5406,2.5407,2.5398,2.5397,2.5125,2.4601,2.3779,2.2929,2.2079,2.1203,2.0655,2.036,2.0353,2.0388,2.041,2.0453,2.1327,2.2498,2.3916,2.5115,2.5703,2.5693,2.5634,2.5598,2.5593,2.5531,2.5498,2.5461,2.5445,2.5421,2.5395,2.5397,2.537,2.5322,2.5313,2.5303,2.5303,2.5303,2.5303,2.5303,0.0,0.0,0.0,0.0,0.0,0.0,0.0,0.0,0.0,0.0,0.0,0.0,0.0,0.0,1.8067,1.8275,1.9029,1.9471,1.9438,1.9981,2.0312,2.0312,2.0292,2.03,2.03,2.0308,2.0304,2.0306,2.0325,2.0334,2.034,2.0408,2.0425,2.0406,1.9838,1.9593,1.9594,1.9032,1.8831,1.8916,1.9505,1.9742,1.9803,2.037,2.0781,2.1035,2.1035,2.1211,2.1348,2.0469,1.998,1.9648,1.9062,1.9062,1.9414,1.998,2.0156,2.0156,2.0156,2.1016,2.2109,2.2949,2.3788,2.4626,2.5502,2.5685,2.5642,2.5617,2.5576,2.5546,2.5505,2.5512,2.5531,2.5473,2.5434,2.5404,2.5406,2.5397,2.5406,2.5404,2.5445,2.5147,2.4302,2.3457,2.2566,2.1707,2.0868,2.0396,2.041,2.0415,2.0457,2.0536,2.1645,2.2786,2.3944,2.5117,2.5701,2.5691,2.5626,2.5609,2.5599,2.5525,2.5492,2.551,2.5453,2.5421,2.5397,2.5407,2.5361,2.5322,2.5313,2.5303,2.5303,2.5303,2.5303,2.5303,0.0,0.0,0.0,0.0,0.0,0.0,0.0,0.0,0.0,0.0,0.0,0.0,0.0,0.0,0.0,1.9074,1.9858,2.0306,2.0304,2.03,2.0312,2.0312,2.0289,2.0304,2.0304,2.0306,2.0308,2.0308,2.0379,2.039,2.04,2.0463,2.0492,2.0509,2.0504,2.0506,2.0501,2.0575,2.0599,2.0601,2.0604,2.0624,2.0644,2.0644,2.1172,2.1934,2.1934,2.248,2.3066,2.2227,2.1367,2.0625,2.0605,2.0,1.9297,1.9297,1.9297,1.9297,0.0,0.0,0.0,2.2852,2.3728,2.4598,2.5453,2.5636,2.56,2.5604,2.5544,2.5495,2.5495,2.5445,2.5401,2.5406,2.5393,2.5406,2.5398,2.5395,2.541,2.5406,2.5518,2.5265,2.4424,2.3542,2.2682,2.1806,2.0928,2.0434,2.04,2.0461,2.0519,2.0598,2.2225,2.3105,2.3105,2.4823,2.5697,2.5707,2.5619,2.5604,2.5604,2.5537,2.5493,2.5499,2.549,2.5461,2.5401,2.5397,2.5398,2.5398,2.5341,2.5303,2.5303,2.5303,2.5303,2.5303,0.0,0.0,0.0,0.0,0.0,0.0,1.9883,0.0,0.0,0.0,0.0,0.0,0.0,0.0,1.9803,2.0022,2.0199,2.0311,2.0304,2.03,2.0292,2.0296,2.0299,2.0294,2.0308,2.0354,2.0379,2.0377,2.0385,2.0415,2.0469,2.0487,2.0509,2.051,2.0557,2.058,2.0561,2.0583,2.0604,2.0605,2.0605,2.0976,2.1543,2.1543,2.207,2.2832,2.2793,2.2949,2.3164,2.2871,2.2227,2.1426,2.0801,2.0,1.9297,1.9297,1.9296,1.9296,1.9297,0.0,0.0,0.0,0.0,0.0,2.4556,2.5195,2.5582,2.5538,2.5476,2.5429,2.5434,2.5406,2.5388,2.5331,2.5379,2.5407,2.5398,2.5397,2.5421,2.5468,2.5544,2.5521,2.5264,2.4503,2.3653,2.2776,2.1919,2.1143,2.0509,2.0545,2.0576,2.0603,2.2265,2.3164,2.3164,2.4843,2.5701,2.5697,2.5685,2.5668,2.5671,2.5598,2.558,2.5581,2.5568,2.5538,2.5466,2.5421,2.5388,2.5398,2.5341,2.5303,2.5303,2.5303,2.5303,2.5303,0.0,0.0,0.0,0.0,0.0,2.0605,2.0605,2.0605,2.0605,0.0,0.0,0.0,0.0,0.0,2.0383,2.0354,2.0318,2.0308,2.0308,2.0292,2.03,2.0304,2.0339,2.0347,2.0334,2.0408,2.0434,2.0439,2.0441,2.0464,2.0506,2.0538,2.0531,2.0541,2.0583,2.0604,2.0605,2.0605,2.0605,2.0625,2.0996,2.1445,2.1934,2.2266,2.2949,2.3691,2.3652,2.3906,2.418,2.3789,2.2871,2.1816,2.1308,2.0292,1.9295,1.9295,1.9293,1.9291,1.9293,1.9937,2.0795,2.1654,0.0,0.0,2.4179,2.4957,2.5505,2.5461,2.5393,2.5369,2.5361,2.5361,2.5351,2.5313,2.5322,2.5361,2.5361,2.5378,2.5421,2.5488,2.557,2.5605,2.5644,2.4885,2.4193,2.3688,2.2832,2.1956,2.1081,2.0757,2.0779,2.1132,2.2441,2.332,2.3691,2.5039,2.5702,2.5701,2.5694,2.5705,2.5698,2.5668,2.5632,2.5648,2.5615,2.5562,2.5486,2.5418,2.5387,2.5388,2.5322,2.5303,2.5303,2.5303,2.5303,2.5303,0.0,0.0,2.0605,2.0605,2.0605,2.0605,2.0605,2.0605,2.0605,0.0,0.0,0.0,0.0,0.0,0.0,0.0,2.0443,2.0485,2.0562,2.0581,2.0539,2.0446,2.0514,2.0507,2.0404,2.0463,2.0508,2.049,2.0506,2.0519,2.051,2.0578,2.0602,2.0605,0.0,2.0605,2.0605,2.0605,2.0605,2.0684,2.1543,2.1953,2.2129,2.2949,2.3789,2.4531,2.4531,2.5039,2.5566,2.4687,2.3418,2.2148,2.1952,2.0759,1.9406,1.9327,1.9285,1.93,1.928,1.9926,2.0763,2.1483,2.238,0.0,2.399,2.4807,2.5398,2.5401,2.535,2.5313,2.5313,2.5313,2.5313,2.5303,2.5313,2.5313,2.5303,2.535,2.541,2.5495,2.5554,2.5632,2.5694,2.4996,2.45,2.4404,2.3604,2.2767,2.1988,2.1268,2.1249,2.2011,2.2812,2.3613,2.4394,2.5254,2.5703,2.5703,2.5698,2.5693,2.5707,2.5698,2.5701,2.5695,2.5639,2.5556,2.5485,2.5426,2.5404,2.5378,2.5332,2.5303,2.5303,2.5303,2.5303,2.5303,0.0,2.0605,2.0605,2.0605,2.0605,2.0605,2.0605,2.0605,2.0605,0.0,0.0,0.0,0.0,0.0,0.0,0.0,2.1355,2.1625,2.226,2.2299,2.2026,2.1362,2.1411,2.1138,2.0495,2.049,2.0492,2.0501,2.0552,2.0578,2.058,2.0583,2.0605,2.0605,2.0605,2.0605,2.0605,2.0605,2.0605,2.0684,2.1543,2.2285,2.2969,2.3828,2.4687,2.5449,2.5449,2.5566,2.5566,2.4687,2.4179,2.3671,2.2322,2.1142,2.0131,1.9424,1.9217,1.9221,1.9214,1.9851,2.0568,2.0717,2.1908,0.0,2.3215,2.436,2.5401,2.5401,2.5395,2.5388,2.537,2.5389,2.5361,2.5313,2.5351,2.5361,2.5313,2.536,2.5421,2.5488,2.5562,2.5632,2.5693,2.5554,2.5153,2.4453,2.3632,2.3086,2.2851,2.2695,2.2715,2.2949,2.373,2.4238,2.4394,2.5254,2.5703,2.5703,2.5703,2.5701,2.5693,2.5707,2.5668,2.5628,2.5615,2.557,2.5483,2.5437,2.5395,2.5398,2.5322,2.5303,2.5303,2.5303,2.5303,2.5303,2.0605,2.0605,2.0605,2.0605,2.0605,2.0605,2.0605,2.0977,2.125,0.0,0.0,0.0,0.0,0.0,0.0,0.0,0.0,0.0,0.0,2.2844,2.2492,2.1675,2.169,2.1327,2.0526,2.0536,2.0551,2.0555,2.0581,2.0603,2.0603,2.0605,2.0605,2.0605,2.0605,2.0605,2.0605,2.0605,2.0605,2.0703,2.2012,2.2793,2.3281,2.4551,2.5312,2.5703,2.5703,2.5703,2.5625,2.5195,2.4472,2.3689,2.3273,2.1932,2.05,2.049,2.0181,1.9854,1.9842,2.0145,2.0448,2.0452,2.1715,0.0,0.0,2.4215,2.541,2.5445,2.5456,2.544,2.5404,2.5395,2.5387,2.5369,2.5378,2.5395,2.5395,2.5432,2.5456,2.549,2.5554,2.5636,2.5696,2.5694,2.5526,2.5078,2.4277,2.3789,2.375,2.334,2.3301,2.3789,2.4199,2.4609,2.5039,2.5488,2.5703,2.5703,2.5703,2.57,2.5707,2.5679,2.5629,2.5595,2.555,2.5517,2.5456,2.5404,2.5388,2.5351,2.5313,2.5303,2.5303,2.5303,2.5303,2.5303,2.0664,2.0742,2.0859,2.0859,2.0977,2.1074,2.1074,2.1699,2.2207,0.0,0.0,0.0,0.0,0.0,2.3008,2.2937,0.0,0.0,2.3166,2.3166,2.2811,2.1981,2.1964,2.1515,2.0511,2.057,2.0599,2.0603,2.0604,2.0605,2.0605,2.0605,2.0605,2.0604,2.0604,2.0603,2.0601,2.0603,2.0604,2.0741,2.248,2.3184,2.3379,2.5059,2.5703,2.5703,2.5703,2.5703,2.5703,2.5703,2.4647,2.3432,2.3971,2.2584,2.0853,2.1387,2.1035,2.0473,2.0497,2.0449,2.0434,2.0612,2.1785,2.2958,0.0,0.0,0.0,2.551,2.5529,2.5495,2.5437,2.5422,2.5426,2.5418,2.5426,2.5441,2.549,2.5517,2.5524,2.5525,2.5581,2.5629,2.5698,2.5696,2.5702,2.5703,2.5059,2.4648,2.4648,2.3984,2.3926,2.4629,2.4648,2.498,2.5683,2.5703,2.5703,2.5702,2.5701,2.5694,2.5673,2.5616,2.5595,2.5583,2.5517,2.5456,2.5406,2.5407,2.5361,2.5303,2.5303,2.5303,2.5303,2.5303,2.5303,2.5303,2.0898,2.1211,2.1758,2.1758,2.2344,2.2812,2.2812,2.2949,2.3301,0.0,0.0,0.0,2.4163,2.3544,2.3098,2.3081,2.3023,2.3323,2.4094,2.4133,2.377,2.2887,2.2902,2.2174,2.0533,2.0561,2.0605,2.0605,2.0605,2.0605,2.0605,2.0605,2.0604,2.0601,2.0601,2.0598,2.0594,2.0598,2.0601,2.0759,2.242,2.3144,2.3379,2.5059,2.5703,2.5703,2.5703,2.5703,2.5703,2.5703,2.5058,2.4136,2.3467,2.2508,2.1515,2.0842,2.0545,2.042,2.0488,2.0444,2.0589,2.136,2.2229,2.3127,2.396,0.0,2.5518,2.5568,0.0,2.5562,2.5492,0.0,0.0,2.5485,2.5493,2.5492,2.5492,2.5556,2.5595,2.5599,2.5656,2.5693,2.5705,2.57,2.5703,2.5703,2.5605,2.5547,2.5547,2.5469,2.5449,2.5546,2.5546,2.5604,2.5701,2.5701,2.5699,2.5696,2.5691,2.5679,2.5605,2.5604,2.5574,2.551,2.5499,2.5459,2.5398,2.5398,2.5361,2.5303,2.5303,2.5303,2.5303,2.5303,2.5303,2.5303,2.2344,2.2363,2.2598,2.2598,2.291,2.3164,2.3164,2.3574,2.4199,0.0,0.0,2.4743,2.5107,2.438,2.3844,2.3851,2.3368,2.3435,2.4304,2.4362,2.4195,2.3836,2.3347,2.2541,2.1341,2.0837,2.0605,2.0605,2.0605,2.0605,2.0605,2.0604,2.058,2.0549,2.0545,2.0811,2.1291,2.1306,2.1587,2.2158,2.3376,2.3867,2.4023,2.5234,2.5703,2.5703,2.5703,2.5703,2.5703,2.5703,2.5114,2.442,2.4525,2.3618,2.2527,2.2649,2.1969,2.1274,2.1813,2.1556,2.1351,2.2244,2.3062,2.3773,2.4191,2.496,2.5579,2.56,0.0,0.0,0.0,0.0,0.0,0.0,2.5566,2.558,2.5621,2.5639,2.5642,2.5593,2.5662,2.5707,2.5698,2.5703,2.5703,2.5703,2.5703,2.5703,2.5703,2.5703,2.5703,2.5701,2.5699,2.5696,2.5691,2.5691,2.5683,2.5648,2.5645,2.5601,2.5546,2.5549,2.5518,2.5448,2.5443,2.5388,2.5351,2.5351,2.5341,2.5303,2.5303,2.5303,2.5303,2.5303,2.5303,2.5303,2.4004,2.3652,2.3457,2.3457,2.3691,2.3887,2.3887,2.4375,2.498,2.5625,2.5703,2.5702,2.5698,2.5131,2.4659,2.4419,2.381,2.373,2.4369,2.4408,2.4391,2.4397,2.3796,2.3078,2.2243,2.16,2.1172,2.0957,2.0957,2.0839,2.0604,2.058,2.0551,2.0509,2.0731,2.1188,2.1827,2.2046,2.2511,2.3187,2.4059,2.4531,2.4824,2.5469,2.5703,2.5703,2.5703,2.5703,2.5702,2.5701,2.5127,2.4505,2.509,2.4226,2.314,2.3772,2.3062,2.2221,2.2863,2.2576,2.2284,2.3179,2.3816,2.4335,2.4613,2.5167,2.5632,2.5623,2.5623,0.0,0.0,0.0,2.5629,2.5636,0.0,2.5645,2.5681,2.5709,2.5689,2.5632,2.5666,2.5697,2.5703,2.5703,2.5703,2.5703,2.5703,2.5703,2.5703,2.5703,2.5702,2.5698,2.5693,2.5683,2.5668,2.5665,2.5632,2.5561,2.558,2.5546,2.5479,2.5478,2.5453,2.5397,2.5407,2.5361,2.5303,2.5303,2.5303,2.5303,2.5303,2.5303,2.5303,2.5303,2.5303,2.5303,2.5625,2.4941,2.4355,2.4355,2.5059,2.5625,2.5625,2.5644,2.5664,2.5703,2.5703,2.5703,2.5703,2.5683,2.5311,2.4472,2.437,2.4367,2.4406,2.4406,2.4406,2.4406,2.4372,2.3944,2.3085,2.3027,2.2637,2.1855,2.1855,2.1424,2.0599,2.0527,2.0509,2.0522,2.1321,2.1705,2.1854,2.2707,2.3065,2.3171,2.4057,2.4901,2.5664,2.5684,2.5703,2.5703,2.5703,2.5702,2.5699,2.5691,2.5115,2.4397,2.444,2.3774,2.3028,2.3106,2.3091,2.3061,2.3089,2.3072,2.326,2.4138,2.4378,2.4617,2.5461,2.5681,2.5707,2.5691,2.5693,2.5693,2.5693,2.5709,2.5705,0.0,2.5709,0.0,0.0,2.5699,2.5701,2.5694,2.5699,2.5703,2.5703,2.5703,2.5703,2.5703,2.5703,2.5703,2.5703,2.5703,2.57,2.5707,2.5698,2.5678,2.5609,2.5595,2.5576,2.5504,2.5492,2.5473,2.5395,2.539,2.5404,2.5398,2.5398,2.5361,2.5303,2.5303,2.5303,2.5303,2.5303,2.5303,2.5303,2.5303,2.5303,2.5303,2.5703,2.5469,2.5254,2.5254,2.5508,2.5702,2.5699,2.5699,2.5699,2.5699,2.5699,2.57,2.5703,2.5195,2.4726,2.4433,2.3867,2.3788,2.4354,2.4394,2.4667,2.5233,2.4707,2.4258,2.3965,2.3437,2.3027,2.2754,2.2714,2.2243,2.1416,2.1962,2.1893,2.1327,2.2182,2.2882,2.3466,2.377,2.4255,2.485,2.5135,2.5449,2.5703,2.5703,2.5703,2.5703,2.5703,2.57,2.5696,2.5705,2.5495,2.5258,2.5219,2.4983,2.4729,2.4738,2.4355,2.4015,2.4603,2.4378,2.4167,2.5044,2.5255,2.5347,2.5625,2.5709,2.5694,2.5699,2.5699,2.5699,2.57,2.5698,2.5697,0.0,0.0,2.5701,0.0,2.5703,2.5703,2.5702,2.5703,2.5703,2.5703,2.5703,2.5703,2.5703,2.5703,2.5703,2.5703,2.5701,2.5694,2.5703,2.5655,2.5595,2.5535,2.5525,2.5492,2.5437,2.543,2.5418,2.5387,2.5406,2.5379,2.5322,2.5322,2.5313,2.5303,2.5303,2.5303,2.5303,2.5303,2.5303,2.5303,2.5303,2.5303,2.5303,2.5702,2.5702,2.5702,2.5703,2.5703,2.57,2.5694,2.5693,2.5693,2.5693,2.5694,2.5697,2.5702,2.5194,2.4863,2.4863,2.4355,2.4258,2.4824,2.4863,2.5117,2.5684,2.5156,2.4863,2.4863,2.4355,2.3945,2.3633,2.3573,2.3118,2.2262,2.2815,2.2736,2.22,2.3042,2.3758,2.4316,2.4631,2.5138,2.5691,2.5702,2.5703,2.5703,2.5703,2.5703,2.5703,2.5702,2.5699,2.5691,2.5698,2.5697,2.5695,2.5615,2.56,2.5609,2.5599,2.5201,2.49,2.5489,2.5262,2.4996,2.5561,2.5698,2.5691,2.5694,2.5697,2.57,2.5703,2.5702,2.5702,2.5703,2.5702,2.5702,0.0,0.0,2.5703,0.0,2.5703,2.5703,2.5703,2.5703,2.5703,2.5703,2.5703,2.5703,2.5703,2.5703,2.5703,2.5703,2.5698,2.5687,2.5671,2.5613,2.5565,2.5499,2.5476,2.5437,2.5395,2.5395,2.5397,2.5361,2.5361,2.5351,2.5303,2.5303,2.5303,2.5303,2.5303,2.5303,2.5303,2.5303,2.5303,2.5303,2.5303,2.5303,2.5303,2.5694,2.5693,2.5696,2.5703,2.5702,2.5698,2.5693,2.5709,2.5707,2.5691,2.5693,2.5696,2.5702,2.5702,2.5703,2.5703,2.5703,2.5703,2.5703,2.5703,2.5703,2.5703,2.5703,2.5703,2.5703,2.5703,2.5293,2.4452,2.4468,2.4024,2.3153,2.3135,2.3106,2.3095,2.3895,2.4303,2.4428,2.5247,2.5634,2.5696,2.5703,2.5703,2.5703,2.5703,2.5703,2.5703,2.5702,2.5698,2.5691,2.5707,2.571,2.5699,2.5639,2.5595,2.5591,2.5591,2.56,2.5609,2.5675,2.5701,2.5701,2.5705,2.5697,2.5702,2.5702,2.5703,2.5703,2.5703,2.5703,2.5703,2.5703,2.5703,2.5703,0.0,0.0,2.5703,2.5703,2.5703,2.5703,2.5703,2.5703,2.5703,2.5703,2.5703,2.5703,2.5703,2.5702,2.5702,2.57,2.5696,2.5664,2.5597,2.5604,2.5549,2.5495,2.5437,2.5395,2.5398,2.5398,2.5361,2.5303,2.5303,2.5303,2.5303,2.5303,2.5303,2.5303,2.5303,2.5303,2.5303,2.5303,2.5303,2.5303,2.5303,2.5303,2.5303,2.5705,2.5701,2.5676,2.5637,2.5679,2.5696,2.5701,2.5652,2.5632,2.5684,2.5707,2.5698,2.5699,2.5701,2.5702,2.5703,2.5703,2.5703,2.5703,2.5703,2.5703,2.5703,2.5703,2.5703,2.5703,2.5703,2.5585,2.5369,2.5379,2.489,2.3992,2.4583,2.4516,2.3934,2.4786,2.5202,2.5274,2.5504,2.564,2.5701,2.5703,2.5703,2.5703,2.5703,2.5703,2.5703,2.5703,2.5701,2.5697,2.5705,2.5696,2.571,2.5681,2.5678,2.5655,2.5617,2.5601,2.5605,2.5624,2.5668,2.569,2.5704,2.5707,2.5701,2.5701,2.5703,2.5703,2.5703,2.5703,2.5703,2.5703,2.5703,2.5703,2.5703,2.5703,2.5703,2.5703,2.5703,2.5703,2.5703,2.5703,2.5703,2.5703,2.5703,2.5703,2.5703,2.5702,2.5701,2.5696,2.5709,2.5673,2.5605,2.5551,2.5531,2.5499,2.5423,2.5379,2.5341,2.5341,2.5313,2.5303,2.5303,2.5303,2.5303,2.5303,2.5303,2.5303,2.5303,2.5303,2.5303,2.5303,2.5303,2.5303,2.5303,2.5303,2.5303,2.5625,2.5609,2.5712,2.6067,2.6126,2.6038,2.571,2.5624,2.5628,2.5691,2.5701,2.5698,2.5699,2.5701,2.5702,2.5703,2.5703,2.5703,2.5703,2.5703,2.5703,2.5703,2.5703,2.5703,2.5703,2.5703,2.5701,2.5696,2.5661,2.5375,2.4832,2.526,2.5193,2.4749,2.5275,2.5525,2.5556,2.5616,2.5672,2.5703,2.5703,2.5703,0.0,2.5703,2.5703,2.5703,2.5703,2.5702,2.5759,2.6143,2.6275,2.6271,2.6266,2.6264,2.6186,2.5765,2.5648,2.5648,2.5636,2.5668,2.5701,2.5696,2.5693,2.5701,2.5701,2.5703,2.5703,2.5703,2.5703,2.5703,2.5703,2.5703,2.5703,2.5703,2.5703,2.5703,2.5703,2.5703,2.5703,2.5703,2.5703,2.5703,2.5703,2.5702,2.57,2.5697,2.5696,2.5691,2.5657,2.5676,2.5662,2.56,2.556,2.5525,2.5456,2.5415,2.537,2.5303,2.5303,2.5303,2.5303,2.5303,2.5303,2.5303,2.5303,2.5303,2.5303,2.5303,2.5303,2.5303,2.5303,2.5303,2.5303,2.5303,2.5303,2.5303,2.5848,2.5835,2.6067,2.6808,2.6908,2.6648,2.6004,2.5912,2.5941,2.6015,2.5938,2.5859,2.5874,2.5779,2.5703,2.5703,2.5703,2.5703,2.5703,2.5703,2.5703,2.5703,2.5703,2.5703,2.5703,2.5703,2.5698,2.5683,2.5623,2.5576,2.5493,2.543,2.5401,2.5395,2.5464,2.5492,2.5521,2.5651,2.5776,2.5859,2.5742,2.5761,2.5858,2.5741,2.5701,2.5699,2.5701,2.5761,2.5995,2.6733,2.7083,2.716,2.7177,2.7098,2.6845,2.6082,2.5789,2.5709,2.5709,2.5691,2.5694,2.5694,2.5699,2.5702,2.5702,2.5703,2.5703,2.5703,2.5703,2.5703,2.5703,2.5703,2.5703,2.5703,2.5703,2.5703,2.5703,2.5703,2.5703,2.5703,2.5703,0.0,2.5699,2.5696,2.5709,2.5698,2.5698,2.5668,2.5601,2.5655,2.5664,2.5599,2.5593,2.5525,2.5401,2.5395,2.5379,2.5303,2.5303,2.5303,2.5303,2.5303,2.5303,2.5303,2.5303,2.5303,2.5303,2.5303,2.5303,2.5303,2.5303,2.5303,2.5303,2.5303,2.5303,2.5303,2.7558,2.755,2.76,2.7755,2.7776,2.7718,2.7605,2.7636,2.7686,2.7746,2.7132,2.6715,2.6765,2.6128,2.5702,2.5703,2.5703,2.5703,2.5703,2.5703,2.5703,2.5703,2.5703,2.5703,2.5703,2.5699,2.5668,2.5623,2.56,2.5562,2.551,2.5429,2.5395,2.5395,2.5421,2.5479,2.5593,2.5671,2.6101,2.6716,2.5991,2.6127,2.6691,2.5966,2.5691,2.5691,2.5694,2.6168,2.6796,2.6953,2.748,2.8066,2.8066,2.7577,2.6972,2.6815,2.6267,2.57,2.5694,2.5696,2.5698,2.5694,2.5699,2.5702,2.5702,2.5703,2.5703,2.5703,2.5703,2.5703,2.5703,2.5703,2.5703,2.5703,2.5703,2.5703,2.5703,2.5703,2.5703,2.5703,2.5701,2.5694,2.5691,2.5709,2.5705,2.5693,2.569,2.5662,2.5589,2.5613,2.5591,2.5531,2.5518,2.5488,2.5395,2.5397,2.5361,2.5303,2.5303,2.5303,2.5303,2.5303,2.5303,2.5303,2.5303,2.5303,2.5303,2.5303,2.5303,2.5303,2.5303,2.5303,2.5303,2.5303,2.5303,2.5303,2.7943,2.7952,2.8078,2.8502,2.8569,2.8733,2.9178,2.9313,2.8891,2.7647,2.7133,2.6743,2.6366,2.5947,2.5699,2.5703,2.5703,2.5703,2.5703,2.5703,2.5703,2.5703,2.5703,2.5703,2.5702,2.5696,2.5679,2.5609,2.5571,2.5506,2.5445,2.5415,2.5388,2.5351,2.5374,2.546,2.5604,2.5629,2.6155,2.6915,2.6481,2.6847,2.7579,2.7167,2.6715,2.6321,2.6314,2.6603,2.7064,2.7518,2.7949,2.8379,2.8828,2.8691,2.8262,2.7812,2.7382,2.705,2.7049,2.7049,2.6933,2.6483,2.6366,2.6269,2.58,2.5703,2.5703,2.5703,2.5703,2.5703,2.5703,2.5703,2.5703,2.5703,2.5703,2.5703,2.5703,2.5703,2.5703,2.5701,2.5694,2.5683,2.5648,2.5655,2.5644,2.5644,2.5656,2.5619,2.5595,2.56,2.5579,2.5492,2.551,2.5464,2.5397,2.5398,2.5361,2.5303,2.5303,2.5303,2.5303,2.5303,2.5303,2.5303,2.5303,2.5303,2.5303,2.5303,2.5303,2.5303,2.5303,2.5303,2.5303,2.5303,2.5303,2.5303,2.8673,2.8709,2.8909,2.9544,2.964,2.9825,3.0329,3.0428,2.9728,2.76,2.7237,2.6855,2.6038,2.5798,2.5673,2.57,2.5702,2.5703,2.5703,2.5703,2.5703,2.5703,2.5703,2.5703,2.5702,2.5693,2.5651,2.5585,2.5523,2.5471,2.5404,2.5388,2.5361,2.5322,2.5385,2.5466,2.5571,2.5586,2.6096,2.6899,2.6876,2.7409,2.8189,2.8159,2.7629,2.6889,2.6875,2.6802,2.6847,2.7705,2.8143,2.8457,2.9336,2.9473,2.9238,2.8711,2.8457,2.8301,2.8301,2.8164,2.7851,2.7168,2.6855,2.6543,2.5859,2.5703,2.5703,2.5703,2.5859,2.5977,2.5977,2.6133,2.625,2.625,2.6094,2.5976,2.5976,2.5819,2.5699,2.5693,2.5701,2.5662,2.5617,2.5595,2.5568,2.5571,2.5585,2.5593,2.5595,2.5582,2.5557,2.5488,2.548,2.544,2.5389,2.5389,2.5351,2.5303,2.5313,2.5322,2.5322,2.5332,2.5313,2.5313,2.5313,2.5322,2.5322,2.5322,2.5313,2.5303,2.5303,2.5303,2.5303,2.5303,2.5303,2.5303,3.1179,3.1333,3.1371,3.1448,3.1468,3.1218,3.0506,3.0414,3.0094,2.9182,2.8446,2.768,2.687,2.6077,2.5629,2.5687,2.5697,2.5701,2.5703,2.5703,2.5703,2.5703,2.5703,2.5702,2.5696,2.5705,2.5636,2.551,2.5492,2.5464,2.5398,2.5351,2.5341,2.5398,2.5406,2.5445,2.5506,2.5505,2.6046,2.6899,2.6823,2.7336,2.8107,2.8046,2.7523,2.6806,2.6805,2.6334,2.587,2.6743,2.7596,2.8455,2.9332,2.9061,2.8554,2.9276,2.8925,2.8301,2.8301,2.7715,2.7109,2.7012,2.6406,2.5801,2.5723,2.5703,2.5703,2.5703,2.6328,2.6875,2.6875,2.7519,2.8066,2.8066,2.7382,2.6874,2.6873,2.6203,2.5707,2.5701,2.5655,2.5609,2.5595,2.5544,2.5517,2.5506,2.557,2.5595,2.5602,2.5551,2.5478,2.541,2.5406,2.537,2.5313,2.5313,2.5313,2.5303,2.5361,2.5389,2.5398,2.5395,2.5393,2.5393,2.5393,2.5387,2.5389,2.5389,2.5351,2.5303,2.5303,2.5303,2.5303,2.5303,2.5303,2.5303,3.2256,3.2429,3.2429,3.2429,3.2429,3.2141,3.1314,3.1191,3.0714,2.9419,2.8548,2.752,2.6196,2.5775,2.5636,2.5696,2.5707,2.5697,2.5702,2.5703,2.5703,2.5703,2.5703,2.5702,2.5694,2.5701,2.5629,2.5504,2.5498,2.5468,2.5398,2.5322,2.5341,2.5398,2.5407,2.5404,2.5441,2.5449,2.5963,2.6786,2.6745,2.7544,2.8698,2.8189,2.7802,2.7442,2.6935,2.623,2.5599,2.5945,2.6704,2.7663,2.8502,2.8546,2.8375,2.8728,2.8944,2.8964,2.8437,2.8437,2.8301,2.7266,2.6738,2.6348,2.582,2.5703,2.5703,2.5703,2.6387,2.7168,2.7676,2.8066,2.8301,2.8301,2.8007,2.7595,2.7065,2.6704,2.6261,2.5714,2.5615,2.5579,2.5537,2.5524,2.5507,2.549,2.5517,2.5543,2.5544,2.5505,2.5495,2.5456,2.5459,2.5423,2.5359,2.5406,2.5415,2.5415,2.5451,2.5459,2.5456,2.5464,2.5453,2.5453,2.5426,2.5393,2.5397,2.5398,2.5361,2.5341,2.589,2.6082,2.614,2.6678,2.6851,2.6851,3.3122,3.3276,3.3276,3.3276,3.3276,3.291,3.1852,3.1698,3.1095,2.9404,2.8675,2.7699,2.6021,2.568,2.559,2.5664,2.5693,2.5691,2.5699,2.5703,2.5703,2.5702,2.5702,2.5699,2.5705,2.5687,2.5609,2.5499,2.5476,2.5451,2.5361,2.5322,2.5341,2.5361,2.5361,2.5388,2.5404,2.5404,2.5768,2.6346,2.6569,2.7391,2.8396,2.8087,2.7808,2.7508,2.688,2.6157,2.5473,2.546,2.596,2.6708,2.7543,2.7869,2.7977,2.8217,2.8747,2.9081,2.8476,2.8555,2.8535,2.7305,2.6816,2.6465,2.584,2.5703,2.5762,2.6035,2.6973,2.7949,2.8574,2.8887,2.9062,2.9062,2.8847,2.8376,2.7492,2.7147,2.6637,2.5706,2.5609,2.557,2.5525,2.5503,2.5507,2.551,2.5507,2.5495,2.5492,2.549,2.5495,2.5507,2.5499,2.5472,2.5434,2.548,2.5507,2.5507,2.5503,2.549,2.5505,2.5518,2.5538,2.5531,2.5471,2.5426,2.5415,2.5686,2.5746,2.5774,2.664,2.6986,2.7063,2.7659,2.789,2.789,3.4007,3.418,3.418,3.418,3.418,3.3622,3.1948,3.1698,3.1064,2.9333,2.9094,2.8461,2.6861,2.5979,2.5538,2.5599,2.5652,2.5701,2.5707,2.5699,2.5701,2.5694,2.5694,2.5705,2.5694,2.5636,2.5565,2.5495,2.5418,2.5367,2.5303,2.5303,2.5303,2.5303,2.5303,2.5341,2.5398,2.5398,2.5407,2.5483,2.6285,2.6612,2.6728,2.7574,2.7372,2.6612,2.6612,2.6072,2.5401,2.5401,2.5449,2.5674,2.6621,2.6952,2.7186,2.8055,2.8317,2.83,2.8301,2.7676,2.7031,2.7012,2.6348,2.5703,2.5703,2.5703,2.5937,2.6816,2.8359,2.957,2.957,3.0293,3.0879,3.0879,3.0155,2.9272,2.841,2.7493,2.6587,2.5706,2.5609,2.5595,2.5596,2.5543,2.551,2.5492,2.549,2.551,2.5492,2.549,2.551,2.5492,2.549,2.551,2.5492,2.5492,2.5492,2.5492,2.5505,2.5498,2.5504,2.5576,2.56,2.5599,2.5531,2.5459,2.5479,2.6322,2.6632,2.6678,2.7544,2.7871,2.789,2.789,2.789,2.789,3.493,3.5084,3.5084,3.5084,3.5084,3.4718,3.3583,3.2891,3.2122,3.1025,2.9833,2.8901,2.8394,2.7131,2.6122,2.5589,2.5595,2.5655,2.5696,2.5705,2.5709,2.5705,2.5701,2.5687,2.5636,2.56,2.5535,2.5441,2.541,2.5367,2.5303,2.5303,2.5303,2.5303,2.5303,2.5313,2.5322,2.5322,2.5332,2.5351,2.5611,2.6073,2.6573,2.6255,2.6313,2.6515,2.5938,2.5572,2.5397,2.5397,2.5429,2.5543,2.5854,2.5989,2.611,2.6427,2.6947,2.7283,2.6699,2.6758,2.6855,2.6269,2.6348,2.6582,2.6582,2.7051,2.7715,2.8594,2.9219,2.9785,3.0371,3.0703,3.0898,3.0898,3.0663,2.9978,2.8511,2.8049,2.7287,2.5784,2.5605,2.5599,2.5609,2.5537,2.5511,2.556,2.6124,2.6436,2.6392,2.5868,2.6094,2.7245,2.6154,2.5858,2.6452,2.5901,2.5636,2.5636,2.564,2.5909,2.6466,2.6485,2.6783,2.7296,2.7278,2.7222,2.7198,2.7422,2.7518,2.7563,2.839,2.8717,2.8794,2.939,2.9602,2.9602,3.5391,3.5493,3.5493,3.5493,3.5493,3.5218,3.4334,3.3737,3.2987,3.1852,3.0756,2.9833,2.9159,2.8231,2.7179,2.604,2.5735,2.5628,2.5664,2.5658,2.5642,2.5629,2.5621,2.56,2.556,2.5543,2.5479,2.541,2.5376,2.5331,2.5303,2.5303,2.5303,2.5303,2.5303,2.5303,2.5303,2.5303,2.5303,2.5303,2.5303,2.563,2.6063,2.5514,2.563,2.6043,2.5495,2.5322,2.5361,2.5389,2.5423,2.5468,2.5493,2.5556,2.5609,2.5681,2.6086,2.6385,2.5859,2.6094,2.6465,2.623,2.6602,2.709,2.7402,2.8164,2.8945,2.9492,2.9863,3.0254,3.0801,3.0898,3.0898,3.0898,3.0898,3.0291,2.8553,2.8291,2.7635,2.5846,2.5644,2.5648,2.5636,2.56,2.5712,2.6057,2.6582,2.7177,2.7779,2.702,2.705,2.8101,2.711,2.6851,2.7423,2.6925,2.6674,2.6674,2.6671,2.6936,2.7386,2.7366,2.7629,2.8107,2.8066,2.8023,2.7991,2.827,2.8375,2.8429,2.9256,2.9583,2.964,3.0198,3.0398,3.0398,3.557,3.557,3.557,3.557,3.557,3.5295,3.441,3.4237,3.3641,3.2083,3.1775,3.1083,2.9448,2.922,2.855,2.6925,2.6107,2.5654,2.5593,2.5595,2.5571,2.5498,2.5498,2.5493,2.5495,2.5434,2.541,2.5406,2.5332,2.5303,2.5303,2.5303,2.5303,2.5303,2.5303,2.5303,2.5303,2.5303,2.5303,2.5303,2.5303,2.5303,2.5303,2.5303,2.5303,2.5303,2.5303,2.5303,2.5313,2.5389,2.5406,2.5418,2.548,2.5542,2.5613,2.5681,2.5697,2.5703,2.5703,2.5742,2.5977,2.6797,2.709,2.7402,2.8281,2.9101,2.9687,2.9687,3.0332,3.0898,3.0898,3.0898,3.0898,3.0898,3.0898,3.0292,2.8554,2.8297,2.7647,2.5904,2.5703,2.5698,2.5693,2.5693,2.6041,2.6851,2.6968,2.7729,2.9429,2.8798,2.8392,2.8385,2.8276,2.8264,2.8385,2.8327,2.8307,2.8307,2.8298,2.8285,2.8299,2.8218,2.821,2.8279,2.8197,2.8144,2.8145,2.8963,2.9239,2.9275,3.0083,3.0398,3.0398,3.0398,3.0398,3.0398,3.6315,3.643,3.643,3.643,3.643,3.6142,3.5315,3.4622,3.4064,3.366,3.2487,3.1545,3.1121,2.9952,2.876,2.7701,2.6895,2.6176,2.5563,2.5518,2.5518,2.5498,2.5503,2.5488,2.5418,2.541,2.5404,2.5407,2.5322,2.5303,2.5303,2.5303,2.5303,2.5303,2.5303,2.5303,2.5303,2.5303,2.5303,2.5303,2.5303,2.5303,2.5303,2.5303,2.5303,2.5303,2.5303,2.5303,2.5313,2.5389,2.5434,2.548,2.5499,2.5576,2.5687,2.5707,2.5698,2.5703,2.5703,2.6191,2.6738,2.6953,2.8008,2.9219,3.0098,3.0449,3.0586,3.0586,3.0762,3.0898,3.0898,3.0898,3.0898,3.0898,3.0898,3.0293,2.8555,2.83,2.7655,2.5916,2.5696,2.5693,2.5696,2.5693,2.6042,2.6905,2.7588,2.8447,2.9521,3.0011,3.0243,3.0191,2.8937,2.859,2.9293,2.8631,2.8298,2.8294,2.8242,2.8551,2.9182,2.9129,2.9438,3.0004,2.9931,2.9872,2.982,3.0032,3.0106,3.0121,3.0321,3.0398,3.0398,3.0398,3.0398,3.0398,3.6622,3.7026,3.718,3.6776,3.6699,3.643,3.5622,3.5103,3.4641,3.4237,3.341,3.2545,3.1775,3.0883,2.9836,2.8566,2.7383,2.6346,2.5514,2.5445,2.5445,2.5448,2.5451,2.5415,2.535,2.535,2.536,2.5351,2.5313,2.5303,2.5303,2.5303,2.5303,2.5303,2.5303,2.5303,2.5303,2.5303,2.5303,2.5303,2.5303,2.5303,2.5303,2.5303,2.5303,2.5303,2.5303,2.5303,2.5313,2.5379,2.5432,2.5515,2.5543,2.5613,2.5698,2.5694,2.5701,2.5781,2.6191,2.6641,2.7187,2.7988,2.9199,3.0312,3.0781,3.0898,3.0898,3.0898,3.0898,3.0898,3.0898,3.0898,3.0898,3.0898,3.0898,3.043,2.9082,2.8887,2.8242,2.6503,2.6287,2.6148,2.5739,2.5699,2.6226,2.7497,2.8024,2.9,3.066,3.1189,3.1267,3.085,2.9959,2.9726,3.0195,3.0097,3.0232,3.0634,3.0554,3.0555,3.0587,3.0525,3.049,3.0511,3.0479,3.0417,3.0394,3.0394,3.0402,3.0398,3.0398,3.0398,3.0398,3.0398,3.0398,3.0398,3.7065,3.77,3.7911,3.7046,3.6911,3.6584,3.5641,3.5493,3.5238,3.4487,3.4276,3.3603,3.2045,3.1775,3.1006,2.9236,2.774,2.6515,2.5648,2.5453,2.5387,2.537,2.5389,2.5361,2.5303,2.5303,2.5303,2.5303,2.5303,2.5303,2.5303,2.5303,2.5303,2.5303,2.5303,2.5303,2.5303,2.5303,2.5303,2.5303,2.5303,2.5303,2.5303,2.5303,2.5303,2.5303,2.5303,2.5303,2.5313,2.5369,2.5429,2.5517,2.5585,2.5648,2.5703,2.5697,2.5702,2.5898,2.6758,2.7187,2.7773,2.9394,3.0351,3.0898,3.0898,3.0898,3.0898,3.0898,3.0898,3.0898,3.0898,3.0898,3.0898,3.0898,3.0898,3.0605,2.9726,2.9609,2.9004,2.7382,2.7206,2.6912,2.6169,2.6092,2.6756,2.8376,2.8612,2.9686,3.1989,3.2225,3.1971,3.1307,3.1289,3.1289,3.1289,3.1952,3.2669,3.3395,3.3325,3.2875,3.2089,3.2038,3.1553,3.0802,3.0652,3.0602,3.059,3.0436,3.0398,3.0398,3.0398,3.0398,3.0398,3.0398,3.0398,3.0398,3.8738,3.9008,3.8815,3.795,3.7796,3.7276,3.5738,3.5493,3.5449,3.5334,3.4661,3.3814,3.2814,3.2102,3.1006,2.9236,2.8247,2.7334,2.6477,2.5726,2.5322,2.5313,2.5313,2.5313,2.5303,2.5303,2.5303,2.5303,2.5303,2.5303,2.5303,2.5303,2.5303,2.5303,2.5303,2.5303,2.5303,2.5303,2.5303,2.5303,2.5303,2.5303,2.5303,2.5303,2.5303,2.5303,2.5303,2.5303,2.5313,2.5369,2.5429,2.5517,2.5585,2.5648,2.5703,2.5697,2.5702,2.5898,2.6758,2.8086,2.9434,3.0449,3.0801,3.0898,3.0898,3.0898,3.0898,3.0898,3.0898,3.0898,3.0898,3.0898,3.0898,3.0898,3.0898,3.0605,2.9725,2.9608,2.9236,2.8219,2.8102,2.8043,2.7906,2.7908,2.8319,2.9315,3.0078,3.0996,3.2129,3.2832,3.3144,3.3027,3.3008,3.3008,3.3008,3.3142,3.327,3.3406,3.3327,3.318,3.2994,3.2938,3.2786,3.2555,3.1826,3.1506,3.1448,3.0698,3.0398,3.0398,3.0398,3.0398,3.0398,3.0398,3.0398,3.0398,3.9219,3.9642,3.9527,3.8238,3.7757,3.7103,3.5718,3.5493,3.5493,3.5493,3.5161,3.4391,3.3045,3.2564,3.166,2.9948,2.9025,2.8179,2.7351,2.6043,2.5303,2.5303,2.5303,2.5303,2.5303,2.5303,2.5303,2.5303,2.5303,2.5303,2.5303,2.5303,2.5303,2.5303,2.5303,2.5303,2.5303,2.5303,2.5303,2.5303,2.5303,2.5303,2.5303,2.5303,2.5303,2.5303,2.5303,2.5303,2.5313,2.5387,2.5453,2.5518,2.5586,2.5658,2.5707,2.5699,2.6367,2.7187,2.7598,2.8965,3.0391,3.0801,3.0898,3.0898,3.0898,3.0898,3.0898,3.0898,3.0898,3.0898,3.0898,3.0898,3.1055,3.1523,3.1601,3.1445,3.1014,3.0956,3.0466,2.9153,2.8997,2.8995,2.8994,2.8998,2.9548,3.0857,3.1347,3.2168,3.3476,3.3906,3.4316,3.4785,3.3887,3.3632,3.4101,3.4096,3.432,3.4741,3.4675,3.4365,3.3848,3.3776,3.3458,3.2916,3.2519,3.2352,3.2314,3.191,3.1487,3.1102,3.1102,3.0814,3.0398,3.0398,3.0398,3.0398,3.9535,4.0065,3.9969,3.8296,3.7565,3.6834,3.5666,3.5493,3.5493,3.5493,3.5334,3.4622,3.3064,3.2737,3.2025,3.0533,2.9602,2.8832,2.8217,2.6563,2.5514,2.5303,2.5303,2.5303,2.5303,2.5303,2.5303,2.5303,2.5303,2.5303,2.5303,2.5303,2.5303,2.5303,2.5303,2.5303,2.5303,2.5303,2.5303,2.5303,2.5303,2.5303,2.5303,2.5303,2.5303,2.5303,2.5303,2.5313,2.5332,2.5376,2.543,2.5505,2.558,2.5648,2.5691,2.5701,2.6933,2.8301,2.8301,2.957,3.0898,3.0898,3.0898,3.0898,3.0898,3.0898,3.0898,3.0898,3.0898,3.0898,3.0898,3.1074,3.1426,3.209,3.2363,3.2461,3.24,3.24,3.193,3.0632,3.0476,3.0476,3.0472,3.0481,3.1012,3.2302,3.2636,3.334,3.4629,3.4883,3.5312,3.5976,3.4706,3.4335,3.4999,3.4993,3.5291,3.5908,3.5833,3.5399,3.47,3.4635,3.4205,3.3487,3.3295,3.3199,3.3179,3.2987,3.2545,3.1987,3.1987,3.1564,3.0987,3.0987,3.0987,3.0987,4.0332,4.0419,3.9969,3.8296,3.7565,3.6834,3.5666,3.5493,3.5493,3.5493,3.4795,3.393,3.3006,3.2237,3.141,3.0475,2.9602,2.9063,2.9006,2.7448,2.614,2.5341,2.5303,2.5303,2.5303,2.5303,2.5303,2.5303,2.5303,2.5303,2.5303,2.5303,2.5303,2.5303,2.5303,2.5303,2.5303,2.5303,2.5303,2.5303,2.5303,2.5303,2.5303,2.5303,2.5303,2.5303,2.5303,2.5351,2.5379,2.5404,2.5444,2.551,2.5585,2.5651,2.5694,2.5702,2.6933,2.8301,2.8301,2.957,3.0898,3.0898,3.0898,3.0898,3.0898,3.0898,3.0898,3.0898,3.0898,3.0898,3.0898,3.1562,3.2129,3.2187,3.2832,3.33,3.3297,3.3296,3.3254,3.3124,3.3129,3.3114,3.3112,3.312,3.3163,3.3299,3.4062,3.457,3.4687,3.5469,3.5937,3.5996,3.5878,3.5838,3.5897,3.5891,3.5896,3.5908,3.5833,3.5729,3.5611,3.5523,3.5419,3.5257,3.4449,3.4103,3.4045,3.3237,3.2872,3.2814,3.2814,3.2776,3.2718,3.2718,3.2718,3.2718,4.046,4.0473,3.9969,3.8296,3.6969,3.6007,3.557,3.5493,3.5315,3.4757,3.441,3.368,3.2314,3.1891,3.1352,3.0475,3.0102,2.9679,2.914,2.8506,2.7294,2.538,2.5303,2.5303,2.5303,2.5303,2.5303,2.5303,2.5303,2.5303,2.5303,2.5303,2.5303,2.5303,2.5303,2.5303,2.5341,2.589,2.612,2.6159,2.6697,2.6582,2.612,2.612,2.5774,2.5313,2.5351,2.5379,2.5406,2.5441,2.5881,2.6373,2.6454,2.6854,2.7318,2.7304,2.8164,2.9101,2.9101,2.998,3.0898,3.0898,3.0898,3.0898,3.0898,3.1328,3.1719,3.1719,3.2109,3.2441,3.2441,3.2715,3.3125,3.3652,3.4004,3.4219,3.4217,3.4216,3.4019,3.3469,3.339,3.3607,3.4152,3.4216,3.4432,3.4979,3.5312,3.5508,3.5508,3.582,3.5996,3.5996,3.5996,3.5994,3.5993,3.6001,3.5962,3.5895,3.584,3.576,3.5707,3.5639,3.5554,3.5474,3.5161,3.5007,3.4988,3.4661,3.4199,3.3699,3.3699,3.3372,3.2891,3.2891,3.2891,3.2891,4.0394,3.9631,3.8565,3.743,3.6257,3.5493,3.5493,3.5493,3.5199,3.4314,3.3949,3.3256,3.1852,3.1468,3.1064,3.0436,3.0398,3.016,2.9544,2.9256,2.8082,2.5813,2.5437,2.5303,2.5303,2.5303,2.5303,2.5303,2.5303,2.5303,2.5303,2.5303,2.5437,2.5707,2.5707,2.587,2.6159,2.6755,2.7005,2.7063,2.7659,2.7544,2.7005,2.7005,2.664,2.612,2.6179,2.6207,2.6223,2.6292,2.6753,2.7318,2.739,2.7821,2.8356,2.8632,2.9121,2.9668,2.9922,3.0449,3.0898,3.0898,3.1113,3.1309,3.1309,3.1973,3.2578,3.2578,3.3027,3.3398,3.3398,3.3613,3.4004,3.4609,3.4922,3.5117,3.5116,3.5116,3.4881,3.4293,3.4216,3.445,3.5054,3.5116,3.5351,3.5956,3.5996,3.5996,3.5996,3.5996,3.5996,3.5996,3.5996,3.6131,3.6401,3.6133,3.597,3.5904,3.5827,3.5743,3.5678,3.562,3.5554,3.5493,3.5493,3.5493,3.5493,3.5493,3.5161,3.4603,3.4603,3.4237,3.3718,3.3718,3.3718,3.3718,4.0196,3.7693,3.5493,3.5493,3.5493,3.5493,3.5493,3.5493,3.5199,3.4314,3.343,3.2583,3.1795,3.0929,3.0398,3.0398,3.0398,3.0398,3.0398,2.9583,2.8352,2.6697,2.5793,2.5322,2.5322,2.5303,2.5303,2.5303,2.5303,2.5303,2.5303,2.5303,2.5764,2.6601,2.6621,2.7082,2.789,2.7909,2.7909,2.7909,2.7909,2.7909,2.7909,2.7909,2.7909,2.7901,2.7893,2.7933,2.8008,2.8085,2.8143,2.8225,2.8298,2.8316,2.8496,2.9355,2.9609,2.9805,3.0664,3.0898,3.0918,3.0918,3.1562,3.2207,3.2207,3.2832,3.3418,3.3418,3.3418,3.3418,3.3418,3.4121,3.4707,3.4707,3.5449,3.5996,3.5995,3.5995,3.5994,3.5992,3.5994,3.5995,3.6014,3.6015,3.6016,3.6016,3.5996,3.5996,3.5996,3.5996,3.5996,3.5996,3.5996,3.6424,3.7297,3.6448,3.5974,3.5908,3.584,3.5735,3.5607,3.5608,3.5554,3.5493,3.5493,3.5493,3.5493,3.5493,3.5493,3.5493,3.5493,3.5493,3.5493,3.5493,3.5493,3.5493,3.7125,3.6063,3.5493,3.5493,3.5493,3.5493,3.5493,3.5493,3.5199,3.4314,3.343,3.2583,3.1795,3.0929,3.0398,3.0398,3.0398,3.0398,3.0398,2.9583,2.8871,2.8371,2.7563,2.7121,2.7121,2.6524,2.6217,2.6217,2.5591,2.5303,2.5303,2.5928,2.6351,2.664,2.7236,2.7659,2.7928,2.8486,2.8736,2.8794,2.941,2.9294,2.8736,2.8736,2.839,2.7901,2.7894,2.7951,2.8012,2.8074,2.854,2.924,2.9913,3.0116,3.0176,3.0449,3.0508,3.0566,3.082,3.1348,3.1816,3.1816,3.2012,3.2344,3.291,3.3691,3.4316,3.4316,3.4805,3.5215,3.5215,3.5449,3.5605,3.5605,3.582,3.5996,3.5996,3.5996,3.5996,3.5996,3.5996,3.623,3.6855,3.6914,3.6914,3.6914,3.6348,3.5996,3.5996,3.5996,3.5996,3.5996,3.5996,3.6424,3.7297,3.6443,3.6259,3.6805,3.6117,3.5736,3.5607,3.5608,3.5554,3.5493,3.5493,3.5493,3.5493,3.5493,3.5493,3.5493,3.5493,3.5493,3.5493,3.5493,3.5493,3.5493,3.5808,3.5354,3.5493,3.5493,3.5493,3.5493,3.5493,3.5493,3.5199,3.4314,3.3737,3.3103,3.2275,3.1698,3.1391,3.1391,3.1391,3.1256,3.0948,3.0429,2.9967,2.9621,2.9159,2.8582,2.7909,2.7371,2.7101,2.7101,2.6582,2.6332,2.6351,2.6871,2.7274,2.7601,2.814,2.8563,2.8929,2.941,2.9602,2.966,3.0198,3.0083,2.9602,2.9602,2.9313,2.8901,2.8916,2.8965,2.9043,2.9111,2.9542,3.016,3.072,3.0898,3.0898,3.0898,3.0898,3.0976,3.1328,3.1797,3.2363,3.3027,3.3184,3.332,3.3809,3.459,3.5215,3.5215,3.5625,3.5996,3.5996,3.5996,3.5996,3.5996,3.5996,3.5996,3.5996,3.5996,3.5996,3.5996,3.5996,3.6211,3.6738,3.7109,3.7305,3.7305,3.6484,3.5996,3.5996,3.5996,3.5996,3.5996,3.6328,3.6933,3.7808,3.7292,3.709,3.7194,3.6591,3.6084,3.5637,3.5601,3.556,3.5501,3.5507,3.5493,3.5493,3.5493,3.5493,3.5493,3.5493,3.5699,3.5968,3.5968,3.5968,3.5968,3.5959,3.5445,3.5493,3.5493,3.5493,3.5493,3.5493,3.5493,3.5218,3.441,3.4237,3.3891,3.3103,3.2949,3.2891,3.2891,3.2891,3.2583,3.1852,3.1737,3.1352,3.0552,3.0436,2.9698,2.8159,2.8044,2.8005,2.8005,2.7928,2.789,2.789,2.7967,2.839,2.9102,2.9179,2.966,3.0398,3.0398,3.0398,3.0398,3.0398,3.0398,3.0398,3.0398,3.0398,3.041,3.0477,3.054,3.0602,3.0685,3.0798,3.0896,3.0898,3.0898,3.0898,3.0898,3.0957,3.1191,3.1973,3.2305,3.2793,3.4316,3.4766,3.4824,3.4824,3.543,3.5996,3.5996,3.5996,3.5996,3.5996,3.5996,3.5996,3.5996,3.5996,3.5996,3.5996,3.5996,3.5996,3.5996,3.5996,3.6035,3.6113,3.6894,3.7441,3.7539,3.6641,3.6113,3.6113,3.6035,3.6035,3.6113,3.6894,3.7753,3.8709,3.8727,3.8241,3.7317,3.717,3.6612,3.5688,3.5635,3.5546,3.5502,3.5501,3.5493,3.5493,3.5493,3.5532,3.5622,3.5622,3.6103,3.6815,3.6815,3.6815,3.6815,3.714,3.6046,3.5493,3.5493,3.5493,3.5493,3.5493,3.5493,3.543,3.5238,3.4622,3.4122,3.393,3.3314,3.2891,3.2891,3.2891,3.2833,3.2641,3.2045,3.1621,3.1429,3.0756,3.0225,2.9871,2.9179,2.8832,2.8832,2.8198,2.789,2.7909,2.8544,2.8929,2.9121,2.9813,3.0217,3.0398,3.0398,3.0398,3.0398,3.0398,3.0398,3.0398,3.0398,3.0398,3.041,3.0479,3.054,3.0626,3.0735,3.0825,3.0897,3.0898,3.0898,3.0898,3.0898,3.1387,3.1953,3.2148,3.3164,3.4258,3.4609,3.5215,3.5723,3.5723,3.5859,3.5996,3.5996,3.5996,3.5996,3.5996,3.5996,3.5996,3.5996,3.5996,3.5996,3.5996,3.5996,3.5996,3.5996,3.5996,3.6269,3.6953,3.7812,3.8594,3.9297,3.7891,3.7012,3.7012,3.6367,3.6309,3.6992,3.7207,3.8046,3.9607,3.9626,3.9149,3.8218,3.7453,3.6604,3.5708,3.5626,3.5546,3.5502,3.5501,3.5493,3.5493,3.5493,3.5872,3.6449,3.6449,3.6969,3.7719,3.7719,3.7719,3.7623,3.8232,3.6608,3.5493,3.5493,3.5493,3.5493,3.5493,3.5493,3.5493,3.5493,3.5103,3.4814,3.4814,3.441,3.4141,3.4141,3.4141,3.3968,3.3545,3.2737,3.2102,3.1718,3.0871,3.0398,3.0398,2.9948,2.9717,2.9717,2.9294,2.9083,2.9102,2.9525,2.9717,2.9737,3.0198,3.0398,3.0398,3.0398,3.0398,3.0398,3.0398,3.0398,3.0398,3.0398,3.0398,3.041,3.049,3.0554,3.0652,3.0762,3.0831,3.0897,3.0898,3.0898,3.0976,3.1406,3.1836,3.2363,3.3184,3.4023,3.4805,3.5215,3.5664,3.5996,3.5996,3.5996,3.5996,3.5996,3.5996,3.5996,3.5996,3.5996,3.5996,3.5996,3.5996,3.5996,3.5996,3.5996,3.5996,3.5996,3.5996,3.6504,3.7793,3.832,3.8965,3.9824,3.8672,3.793,3.793,3.748,3.7441,3.791,3.832,3.8984,3.9882,4.0312,4.0075,3.9161,3.8224,3.7287,3.6343,3.5843,3.557,3.5547,3.5501,3.5493,3.5532,3.5911,3.6334,3.6738,3.7161,3.7853,3.8623,3.8623,3.8623,3.843,3.8911,3.7103,3.5738,3.5532,3.5493,3.5493,3.5493,3.5622,3.5661,3.5526,3.5622,3.5661,3.5512,3.5493,3.5493,3.5493,3.5493,3.5199,3.4468,3.3603,3.2756,3.1948,3.1083,3.0552,3.0398,3.0552,3.0552,3.0398,3.0398,3.0398,3.0398,3.0398,3.0398,3.0398,3.0398,3.0398,3.0398,3.0398,3.0398,3.0398,3.0398,3.0398,3.0398,3.0398,3.041,3.0402,3.0471,3.0583,3.072,3.0774,3.0832,3.0937,3.1074,3.1113,3.1289,3.2148,3.2519,3.293,3.4316,3.4805,3.5098,3.582,3.5996,3.5996,3.5996,3.5996,3.5996,3.5996,3.5996,3.5996,3.5996,3.5996,3.5996,3.5996,3.6113,3.6211,3.6211,3.6348,3.6445,3.6445,3.6445,3.707,3.8672,3.8828,3.918,4.0059,3.9316,3.8828,3.8828,3.8672,3.8672,3.8828,3.9512,3.9961,4.0117,4.084,4.0839,4.0091,3.9006,3.8018,3.7063,3.6067,3.5593,3.5591,3.5534,3.5493,3.5551,3.6219,3.6661,3.6988,3.7719,3.8623,3.9508,3.9508,3.9411,3.9065,3.8411,3.7488,3.6661,3.5666,3.5493,3.5493,3.5493,3.6103,3.6295,3.5603,3.6122,3.6276,3.5584,3.5493,3.5493,3.5493,3.5493,3.5449,3.5334,3.4507,3.3641,3.2776,3.1968,3.1179,3.0417,3.1141,3.116,3.0398,3.0398,3.0398,3.0398,3.0398,3.0398,3.0398,3.0398,3.0398,3.0398,3.0398,3.0398,3.0398,3.0398,3.0398,3.0398,3.0398,3.0402,3.0398,3.0482,3.0613,3.0798,3.0804,3.0836,3.1035,3.1797,3.2012,3.2187,3.3008,3.3769,3.4414,3.4648,3.5254,3.5859,3.5976,3.5996,3.5996,3.5996,3.5996,3.5996,3.5996,3.5996,3.5996,3.5996,3.5996,3.5996,3.5996,3.6621,3.7129,3.7129,3.7773,3.8242,3.8242,3.8242,3.8633,3.9629,3.9726,4.0098,4.0957,4.0215,3.9726,3.9726,3.9004,3.8945,3.9707,3.9844,4.0254,4.1016,4.1133,4.1112,4.0912,3.9286,3.801,3.7065,3.6057,3.5593,3.5591,3.5534,3.5493,3.5526,3.5622,3.6526,3.7834,3.795,3.895,4.0335,4.0335,3.9892,3.9161,3.8334,3.7815,3.7199,3.5757,3.5493,3.5661,3.6103,3.6469,3.6757,3.6892,3.7219,3.7103,3.6257,3.5776,3.5493,3.5493,3.5493,3.5493,3.5493,3.468,3.4026,3.3641,3.2814,3.2199,3.1795,3.2179,3.2179,3.1795,3.1795,3.1795,3.1795,3.1352,3.1141,3.1102,3.0621,3.0679,3.1141,3.1141,3.1141,3.1141,3.1141,3.0845,3.0394,3.0394,3.0417,3.0539,3.1125,3.1721,3.2254,3.2251,3.2262,3.2363,3.2754,3.2871,3.3047,3.3887,3.4394,3.4805,3.5293,3.5703,3.5996,3.5996,3.5996,3.6133,3.6621,3.6738,3.6738,3.6738,3.7109,3.7441,3.7441,3.7441,3.7441,3.7441,3.7773,3.8027,3.8027,3.8359,3.8594,3.8594,3.9023,3.9473,3.9863,4.0332,4.0781,4.1172,4.084,4.0625,4.0625,4.0254,4.0234,4.0605,4.0625,4.0801,4.1191,4.1191,4.1171,4.1087,3.9832,3.8736,3.7773,3.627,3.5593,3.5591,3.5534,3.5493,3.5532,3.5988,3.6892,3.8046,3.8546,3.945,4.0489,4.0489,4.0277,3.9777]}]]